<?xml version="1.0" encoding="UTF-8" standalone="no" ?>
<gpx xmlns="http://www.topografix.com/GPX/1/1" xmlns:xsi="http://www.w3.org/2001/XMLSchema-instance" xsi:schemaLocation="http://www.topografix.com/GPX/1/1 http://www.topografix.com/GPX/1/1/gpx.xsd" version="1.1" creator="VisuGPX - https://www.visugpx.com">
  <metadata>
    <name>Randonnée 29-05-2018</name>
    <desc><![CDATA[Boucle au départ de Baziège (31)]]></desc>
  </metadata>
  <trk>
    <name><![CDATA[20180605231206-MHHet]]></name>
    <trkseg>
      <trkpt lat="43.45367" lon="1.61558">
        <ele>161</ele>
        <time>2018-05-26T09:39:22Z</time>
      </trkpt>
      <trkpt lat="43.45375" lon="1.61551">
        <ele>160</ele>
        <time>2018-05-26T09:39:22Z</time>
      </trkpt>
      <trkpt lat="43.45369" lon="1.61544">
        <ele>160</ele>
        <time>2018-05-26T09:39:22Z</time>
      </trkpt>
      <trkpt lat="43.45369" lon="1.61539">
        <ele>160</ele>
        <time>2018-05-26T09:39:22Z</time>
      </trkpt>
      <trkpt lat="43.45371" lon="1.61533">
        <ele>160</ele>
        <time>2018-05-26T09:39:38Z</time>
      </trkpt>
      <trkpt lat="43.45373" lon="1.61523">
        <ele>160</ele>
        <time>2018-05-26T09:39:38Z</time>
      </trkpt>
      <trkpt lat="43.45374" lon="1.61522">
        <ele>160</ele>
        <time>2018-05-26T09:39:38Z</time>
      </trkpt>
      <trkpt lat="43.45375" lon="1.6152">
        <ele>161</ele>
        <time>2018-05-26T09:39:38Z</time>
      </trkpt>
      <trkpt lat="43.45378" lon="1.61518">
        <ele>161</ele>
        <time>2018-05-26T09:39:54Z</time>
      </trkpt>
      <trkpt lat="43.4538" lon="1.61514">
        <ele>161</ele>
        <time>2018-05-26T09:39:54Z</time>
      </trkpt>
      <trkpt lat="43.45383" lon="1.6151">
        <ele>161</ele>
        <time>2018-05-26T09:39:54Z</time>
      </trkpt>
      <trkpt lat="43.45386" lon="1.61507">
        <ele>161</ele>
        <time>2018-05-26T09:39:54Z</time>
      </trkpt>
      <trkpt lat="43.45389" lon="1.61501">
        <ele>161</ele>
        <time>2018-05-26T09:40:10Z</time>
      </trkpt>
      <trkpt lat="43.45391" lon="1.61499">
        <ele>161</ele>
        <time>2018-05-26T09:40:10Z</time>
      </trkpt>
      <trkpt lat="43.45394" lon="1.61497">
        <ele>161</ele>
        <time>2018-05-26T09:40:11Z</time>
      </trkpt>
      <trkpt lat="43.45397" lon="1.61491">
        <ele>161</ele>
        <time>2018-05-26T09:40:11Z</time>
      </trkpt>
      <trkpt lat="43.45398" lon="1.61486">
        <ele>161</ele>
        <time>2018-05-26T09:40:30Z</time>
      </trkpt>
      <trkpt lat="43.45401" lon="1.61485">
        <ele>161</ele>
        <time>2018-05-26T09:40:30Z</time>
      </trkpt>
      <trkpt lat="43.45403" lon="1.61486">
        <ele>161</ele>
        <time>2018-05-26T09:40:30Z</time>
      </trkpt>
      <trkpt lat="43.45405" lon="1.61487">
        <ele>161</ele>
        <time>2018-05-26T09:40:30Z</time>
      </trkpt>
      <trkpt lat="43.4541" lon="1.61486">
        <ele>161</ele>
        <time>2018-05-26T09:40:30Z</time>
      </trkpt>
      <trkpt lat="43.45414" lon="1.61486">
        <ele>161</ele>
        <time>2018-05-26T09:40:47Z</time>
      </trkpt>
      <trkpt lat="43.45419" lon="1.61485">
        <ele>162</ele>
        <time>2018-05-26T09:40:47Z</time>
      </trkpt>
      <trkpt lat="43.45422" lon="1.61486">
        <ele>162</ele>
        <time>2018-05-26T09:40:47Z</time>
      </trkpt>
      <trkpt lat="43.45426" lon="1.61487">
        <ele>162</ele>
        <time>2018-05-26T09:40:47Z</time>
      </trkpt>
      <trkpt lat="43.4543" lon="1.61488">
        <ele>162</ele>
        <time>2018-05-26T09:41:02Z</time>
      </trkpt>
      <trkpt lat="43.45435" lon="1.61488">
        <ele>162</ele>
        <time>2018-05-26T09:41:02Z</time>
      </trkpt>
      <trkpt lat="43.45439" lon="1.61489">
        <ele>163</ele>
        <time>2018-05-26T09:41:02Z</time>
      </trkpt>
      <trkpt lat="43.45442" lon="1.61489">
        <ele>163</ele>
        <time>2018-05-26T09:41:02Z</time>
      </trkpt>
      <trkpt lat="43.45446" lon="1.61489">
        <ele>163</ele>
        <time>2018-05-26T09:41:18Z</time>
      </trkpt>
      <trkpt lat="43.45452" lon="1.61492">
        <ele>163</ele>
        <time>2018-05-26T09:41:18Z</time>
      </trkpt>
      <trkpt lat="43.45456" lon="1.61496">
        <ele>163</ele>
        <time>2018-05-26T09:41:18Z</time>
      </trkpt>
      <trkpt lat="43.4546" lon="1.615">
        <ele>162</ele>
        <time>2018-05-26T09:41:18Z</time>
      </trkpt>
      <trkpt lat="43.45464" lon="1.61503">
        <ele>162</ele>
        <time>2018-05-26T09:41:34Z</time>
      </trkpt>
      <trkpt lat="43.45468" lon="1.61503">
        <ele>163</ele>
        <time>2018-05-26T09:41:34Z</time>
      </trkpt>
      <trkpt lat="43.45471" lon="1.61503">
        <ele>163</ele>
        <time>2018-05-26T09:41:34Z</time>
      </trkpt>
      <trkpt lat="43.45474" lon="1.61506">
        <ele>163</ele>
        <time>2018-05-26T09:41:34Z</time>
      </trkpt>
      <trkpt lat="43.45476" lon="1.61506">
        <ele>163</ele>
        <time>2018-05-26T09:41:54Z</time>
      </trkpt>
      <trkpt lat="43.45477" lon="1.61507">
        <ele>163</ele>
        <time>2018-05-26T09:41:54Z</time>
      </trkpt>
      <trkpt lat="43.45478" lon="1.61506">
        <ele>163</ele>
        <time>2018-05-26T09:41:55Z</time>
      </trkpt>
      <trkpt lat="43.45482" lon="1.61506">
        <ele>163</ele>
        <time>2018-05-26T09:41:55Z</time>
      </trkpt>
      <trkpt lat="43.45488" lon="1.61507">
        <ele>163</ele>
        <time>2018-05-26T09:41:55Z</time>
      </trkpt>
      <trkpt lat="43.4549" lon="1.61507">
        <ele>163</ele>
        <time>2018-05-26T09:42:10Z</time>
      </trkpt>
      <trkpt lat="43.45494" lon="1.61508">
        <ele>163</ele>
        <time>2018-05-26T09:42:10Z</time>
      </trkpt>
      <trkpt lat="43.45501" lon="1.61509">
        <ele>164</ele>
        <time>2018-05-26T09:42:10Z</time>
      </trkpt>
      <trkpt lat="43.45504" lon="1.6151">
        <ele>164</ele>
        <time>2018-05-26T09:42:10Z</time>
      </trkpt>
      <trkpt lat="43.45509" lon="1.61512">
        <ele>164</ele>
        <time>2018-05-26T09:42:26Z</time>
      </trkpt>
      <trkpt lat="43.45512" lon="1.61512">
        <ele>164</ele>
        <time>2018-05-26T09:42:26Z</time>
      </trkpt>
      <trkpt lat="43.45516" lon="1.61516">
        <ele>164</ele>
        <time>2018-05-26T09:42:26Z</time>
      </trkpt>
      <trkpt lat="43.45521" lon="1.61517">
        <ele>164</ele>
        <time>2018-05-26T09:42:27Z</time>
      </trkpt>
      <trkpt lat="43.45525" lon="1.61519">
        <ele>164</ele>
        <time>2018-05-26T09:42:42Z</time>
      </trkpt>
      <trkpt lat="43.45526" lon="1.61519">
        <ele>164</ele>
        <time>2018-05-26T09:42:42Z</time>
      </trkpt>
      <trkpt lat="43.45531" lon="1.61521">
        <ele>164</ele>
        <time>2018-05-26T09:42:42Z</time>
      </trkpt>
      <trkpt lat="43.45536" lon="1.61524">
        <ele>164</ele>
        <time>2018-05-26T09:42:42Z</time>
      </trkpt>
      <trkpt lat="43.45539" lon="1.61528">
        <ele>164</ele>
        <time>2018-05-26T09:42:58Z</time>
      </trkpt>
      <trkpt lat="43.45545" lon="1.61531">
        <ele>164</ele>
        <time>2018-05-26T09:42:58Z</time>
      </trkpt>
      <trkpt lat="43.45549" lon="1.61533">
        <ele>164</ele>
        <time>2018-05-26T09:42:58Z</time>
      </trkpt>
      <trkpt lat="43.45554" lon="1.61535">
        <ele>164</ele>
        <time>2018-05-26T09:42:58Z</time>
      </trkpt>
      <trkpt lat="43.45559" lon="1.61538">
        <ele>164</ele>
        <time>2018-05-26T09:43:15Z</time>
      </trkpt>
      <trkpt lat="43.45561" lon="1.6154">
        <ele>164</ele>
        <time>2018-05-26T09:43:15Z</time>
      </trkpt>
      <trkpt lat="43.45567" lon="1.61543">
        <ele>164</ele>
        <time>2018-05-26T09:43:15Z</time>
      </trkpt>
      <trkpt lat="43.45574" lon="1.61545">
        <ele>164</ele>
        <time>2018-05-26T09:43:15Z</time>
      </trkpt>
      <trkpt lat="43.45576" lon="1.61547">
        <ele>164</ele>
        <time>2018-05-26T09:43:30Z</time>
      </trkpt>
      <trkpt lat="43.45578" lon="1.61551">
        <ele>164</ele>
        <time>2018-05-26T09:43:30Z</time>
      </trkpt>
      <trkpt lat="43.45582" lon="1.61555">
        <ele>164</ele>
        <time>2018-05-26T09:43:30Z</time>
      </trkpt>
      <trkpt lat="43.45586" lon="1.6156">
        <ele>165</ele>
        <time>2018-05-26T09:43:30Z</time>
      </trkpt>
      <trkpt lat="43.45591" lon="1.61565">
        <ele>165</ele>
        <time>2018-05-26T09:43:51Z</time>
      </trkpt>
      <trkpt lat="43.45592" lon="1.61563">
        <ele>166</ele>
        <time>2018-05-26T09:43:51Z</time>
      </trkpt>
      <trkpt lat="43.45592" lon="1.61567">
        <ele>165</ele>
        <time>2018-05-26T09:43:51Z</time>
      </trkpt>
      <trkpt lat="43.45593" lon="1.61574">
        <ele>165</ele>
        <time>2018-05-26T09:43:51Z</time>
      </trkpt>
      <trkpt lat="43.456" lon="1.61585">
        <ele>166</ele>
        <time>2018-05-26T09:43:51Z</time>
      </trkpt>
      <trkpt lat="43.45604" lon="1.61589">
        <ele>166</ele>
        <time>2018-05-26T09:44:06Z</time>
      </trkpt>
      <trkpt lat="43.45607" lon="1.61594">
        <ele>166</ele>
        <time>2018-05-26T09:44:06Z</time>
      </trkpt>
      <trkpt lat="43.45611" lon="1.61602">
        <ele>167</ele>
        <time>2018-05-26T09:44:06Z</time>
      </trkpt>
      <trkpt lat="43.45614" lon="1.61606">
        <ele>167</ele>
        <time>2018-05-26T09:44:06Z</time>
      </trkpt>
      <trkpt lat="43.45618" lon="1.61611">
        <ele>167</ele>
        <time>2018-05-26T09:44:22Z</time>
      </trkpt>
      <trkpt lat="43.45622" lon="1.61615">
        <ele>167</ele>
        <time>2018-05-26T09:44:22Z</time>
      </trkpt>
      <trkpt lat="43.45624" lon="1.61618">
        <ele>167</ele>
        <time>2018-05-26T09:44:22Z</time>
      </trkpt>
      <trkpt lat="43.45627" lon="1.61623">
        <ele>167</ele>
        <time>2018-05-26T09:44:22Z</time>
      </trkpt>
      <trkpt lat="43.4563" lon="1.61629">
        <ele>167</ele>
        <time>2018-05-26T09:44:39Z</time>
      </trkpt>
      <trkpt lat="43.45634" lon="1.61633">
        <ele>167</ele>
        <time>2018-05-26T09:44:39Z</time>
      </trkpt>
      <trkpt lat="43.45638" lon="1.61638">
        <ele>167</ele>
        <time>2018-05-26T09:44:39Z</time>
      </trkpt>
      <trkpt lat="43.45642" lon="1.61642">
        <ele>167</ele>
        <time>2018-05-26T09:44:39Z</time>
      </trkpt>
      <trkpt lat="43.45645" lon="1.61648">
        <ele>168</ele>
        <time>2018-05-26T09:44:54Z</time>
      </trkpt>
      <trkpt lat="43.45648" lon="1.61652">
        <ele>168</ele>
        <time>2018-05-26T09:44:54Z</time>
      </trkpt>
      <trkpt lat="43.45651" lon="1.61656">
        <ele>168</ele>
        <time>2018-05-26T09:44:54Z</time>
      </trkpt>
      <trkpt lat="43.45655" lon="1.61662">
        <ele>168</ele>
        <time>2018-05-26T09:44:54Z</time>
      </trkpt>
      <trkpt lat="43.45659" lon="1.61667">
        <ele>169</ele>
        <time>2018-05-26T09:45:10Z</time>
      </trkpt>
      <trkpt lat="43.45665" lon="1.61672">
        <ele>169</ele>
        <time>2018-05-26T09:45:10Z</time>
      </trkpt>
      <trkpt lat="43.45666" lon="1.61675">
        <ele>169</ele>
        <time>2018-05-26T09:45:10Z</time>
      </trkpt>
      <trkpt lat="43.45668" lon="1.61681">
        <ele>171</ele>
        <time>2018-05-26T09:45:10Z</time>
      </trkpt>
      <trkpt lat="43.45671" lon="1.61686">
        <ele>171</ele>
        <time>2018-05-26T09:45:26Z</time>
      </trkpt>
      <trkpt lat="43.45673" lon="1.61689">
        <ele>172</ele>
        <time>2018-05-26T09:45:26Z</time>
      </trkpt>
      <trkpt lat="43.45676" lon="1.61693">
        <ele>172</ele>
        <time>2018-05-26T09:45:26Z</time>
      </trkpt>
      <trkpt lat="43.45678" lon="1.61697">
        <ele>172</ele>
        <time>2018-05-26T09:45:26Z</time>
      </trkpt>
      <trkpt lat="43.45681" lon="1.61701">
        <ele>173</ele>
        <time>2018-05-26T09:45:42Z</time>
      </trkpt>
      <trkpt lat="43.45684" lon="1.61707">
        <ele>173</ele>
        <time>2018-05-26T09:45:42Z</time>
      </trkpt>
      <trkpt lat="43.45685" lon="1.61713">
        <ele>173</ele>
        <time>2018-05-26T09:45:42Z</time>
      </trkpt>
      <trkpt lat="43.45686" lon="1.61716">
        <ele>173</ele>
        <time>2018-05-26T09:45:42Z</time>
      </trkpt>
      <trkpt lat="43.4569" lon="1.6172">
        <ele>173</ele>
        <time>2018-05-26T09:45:58Z</time>
      </trkpt>
      <trkpt lat="43.45692" lon="1.61724">
        <ele>173</ele>
        <time>2018-05-26T09:45:58Z</time>
      </trkpt>
      <trkpt lat="43.45694" lon="1.61727">
        <ele>173</ele>
        <time>2018-05-26T09:45:58Z</time>
      </trkpt>
      <trkpt lat="43.45698" lon="1.61731">
        <ele>174</ele>
        <time>2018-05-26T09:45:58Z</time>
      </trkpt>
      <trkpt lat="43.45702" lon="1.61735">
        <ele>174</ele>
        <time>2018-05-26T09:46:14Z</time>
      </trkpt>
      <trkpt lat="43.45705" lon="1.61739">
        <ele>174</ele>
        <time>2018-05-26T09:46:14Z</time>
      </trkpt>
      <trkpt lat="43.45708" lon="1.61743">
        <ele>174</ele>
        <time>2018-05-26T09:46:14Z</time>
      </trkpt>
      <trkpt lat="43.45711" lon="1.61747">
        <ele>174</ele>
        <time>2018-05-26T09:46:14Z</time>
      </trkpt>
      <trkpt lat="43.45715" lon="1.61751">
        <ele>177</ele>
        <time>2018-05-26T09:46:30Z</time>
      </trkpt>
      <trkpt lat="43.45719" lon="1.61756">
        <ele>177</ele>
        <time>2018-05-26T09:46:31Z</time>
      </trkpt>
      <trkpt lat="43.45722" lon="1.61762">
        <ele>177</ele>
        <time>2018-05-26T09:46:31Z</time>
      </trkpt>
      <trkpt lat="43.45725" lon="1.61768">
        <ele>177</ele>
        <time>2018-05-26T09:46:31Z</time>
      </trkpt>
      <trkpt lat="43.45728" lon="1.61771">
        <ele>177</ele>
        <time>2018-05-26T09:46:46Z</time>
      </trkpt>
      <trkpt lat="43.45731" lon="1.61777">
        <ele>177</ele>
        <time>2018-05-26T09:46:46Z</time>
      </trkpt>
      <trkpt lat="43.45733" lon="1.61782">
        <ele>178</ele>
        <time>2018-05-26T09:46:46Z</time>
      </trkpt>
      <trkpt lat="43.45736" lon="1.61787">
        <ele>178</ele>
        <time>2018-05-26T09:46:46Z</time>
      </trkpt>
      <trkpt lat="43.45739" lon="1.6179">
        <ele>178</ele>
        <time>2018-05-26T09:47:02Z</time>
      </trkpt>
      <trkpt lat="43.45742" lon="1.61794">
        <ele>178</ele>
        <time>2018-05-26T09:47:02Z</time>
      </trkpt>
      <trkpt lat="43.45746" lon="1.61796">
        <ele>178</ele>
        <time>2018-05-26T09:47:02Z</time>
      </trkpt>
      <trkpt lat="43.45749" lon="1.61799">
        <ele>178</ele>
        <time>2018-05-26T09:47:02Z</time>
      </trkpt>
      <trkpt lat="43.45752" lon="1.61803">
        <ele>183</ele>
        <time>2018-05-26T09:47:18Z</time>
      </trkpt>
      <trkpt lat="43.45755" lon="1.61808">
        <ele>183</ele>
        <time>2018-05-26T09:47:18Z</time>
      </trkpt>
      <trkpt lat="43.45757" lon="1.61813">
        <ele>183</ele>
        <time>2018-05-26T09:47:18Z</time>
      </trkpt>
      <trkpt lat="43.45759" lon="1.61818">
        <ele>183</ele>
        <time>2018-05-26T09:47:18Z</time>
      </trkpt>
      <trkpt lat="43.45761" lon="1.61823">
        <ele>183</ele>
        <time>2018-05-26T09:47:35Z</time>
      </trkpt>
      <trkpt lat="43.45764" lon="1.61827">
        <ele>183</ele>
        <time>2018-05-26T09:47:35Z</time>
      </trkpt>
      <trkpt lat="43.45767" lon="1.6183">
        <ele>183</ele>
        <time>2018-05-26T09:47:35Z</time>
      </trkpt>
      <trkpt lat="43.4577" lon="1.61835">
        <ele>186</ele>
        <time>2018-05-26T09:47:35Z</time>
      </trkpt>
      <trkpt lat="43.45772" lon="1.6184">
        <ele>187</ele>
        <time>2018-05-26T09:47:50Z</time>
      </trkpt>
      <trkpt lat="43.45775" lon="1.61844">
        <ele>187</ele>
        <time>2018-05-26T09:47:50Z</time>
      </trkpt>
      <trkpt lat="43.45778" lon="1.61849">
        <ele>188</ele>
        <time>2018-05-26T09:47:50Z</time>
      </trkpt>
      <trkpt lat="43.45781" lon="1.61853">
        <ele>188</ele>
        <time>2018-05-26T09:47:50Z</time>
      </trkpt>
      <trkpt lat="43.45782" lon="1.61859">
        <ele>189</ele>
        <time>2018-05-26T09:48:06Z</time>
      </trkpt>
      <trkpt lat="43.45784" lon="1.61866">
        <ele>189</ele>
        <time>2018-05-26T09:48:06Z</time>
      </trkpt>
      <trkpt lat="43.45786" lon="1.6187">
        <ele>189</ele>
        <time>2018-05-26T09:48:06Z</time>
      </trkpt>
      <trkpt lat="43.45789" lon="1.61875">
        <ele>190</ele>
        <time>2018-05-26T09:48:06Z</time>
      </trkpt>
      <trkpt lat="43.45792" lon="1.61879">
        <ele>190</ele>
        <time>2018-05-26T09:48:22Z</time>
      </trkpt>
      <trkpt lat="43.45794" lon="1.61883">
        <ele>190</ele>
        <time>2018-05-26T09:48:22Z</time>
      </trkpt>
      <trkpt lat="43.45796" lon="1.61887">
        <ele>191</ele>
        <time>2018-05-26T09:48:22Z</time>
      </trkpt>
      <trkpt lat="43.45798" lon="1.61892">
        <ele>191</ele>
        <time>2018-05-26T09:48:22Z</time>
      </trkpt>
      <trkpt lat="43.45799" lon="1.61896">
        <ele>191</ele>
        <time>2018-05-26T09:48:38Z</time>
      </trkpt>
      <trkpt lat="43.45801" lon="1.61902">
        <ele>192</ele>
        <time>2018-05-26T09:48:38Z</time>
      </trkpt>
      <trkpt lat="43.45803" lon="1.61907">
        <ele>192</ele>
        <time>2018-05-26T09:48:38Z</time>
      </trkpt>
      <trkpt lat="43.45805" lon="1.61911">
        <ele>192</ele>
        <time>2018-05-26T09:48:38Z</time>
      </trkpt>
      <trkpt lat="43.45807" lon="1.61917">
        <ele>196</ele>
        <time>2018-05-26T09:48:54Z</time>
      </trkpt>
      <trkpt lat="43.45808" lon="1.61921">
        <ele>196</ele>
        <time>2018-05-26T09:48:54Z</time>
      </trkpt>
      <trkpt lat="43.4581" lon="1.61926">
        <ele>196</ele>
        <time>2018-05-26T09:48:54Z</time>
      </trkpt>
      <trkpt lat="43.45811" lon="1.61931">
        <ele>196</ele>
        <time>2018-05-26T09:48:54Z</time>
      </trkpt>
      <trkpt lat="43.45813" lon="1.61934">
        <ele>197</ele>
        <time>2018-05-26T09:49:10Z</time>
      </trkpt>
      <trkpt lat="43.45815" lon="1.61938">
        <ele>197</ele>
        <time>2018-05-26T09:49:10Z</time>
      </trkpt>
      <trkpt lat="43.45818" lon="1.61943">
        <ele>197</ele>
        <time>2018-05-26T09:49:10Z</time>
      </trkpt>
      <trkpt lat="43.4582" lon="1.61946">
        <ele>197</ele>
        <time>2018-05-26T09:49:10Z</time>
      </trkpt>
      <trkpt lat="43.45823" lon="1.6195">
        <ele>197</ele>
        <time>2018-05-26T09:49:26Z</time>
      </trkpt>
      <trkpt lat="43.45824" lon="1.61956">
        <ele>197</ele>
        <time>2018-05-26T09:49:26Z</time>
      </trkpt>
      <trkpt lat="43.45825" lon="1.61959">
        <ele>198</ele>
        <time>2018-05-26T09:49:26Z</time>
      </trkpt>
      <trkpt lat="43.45827" lon="1.61963">
        <ele>198</ele>
        <time>2018-05-26T09:49:26Z</time>
      </trkpt>
      <trkpt lat="43.45828" lon="1.61968">
        <ele>198</ele>
        <time>2018-05-26T09:49:42Z</time>
      </trkpt>
      <trkpt lat="43.4583" lon="1.61973">
        <ele>199</ele>
        <time>2018-05-26T09:49:42Z</time>
      </trkpt>
      <trkpt lat="43.45831" lon="1.61978">
        <ele>199</ele>
        <time>2018-05-26T09:49:42Z</time>
      </trkpt>
      <trkpt lat="43.45832" lon="1.61984">
        <ele>200</ele>
        <time>2018-05-26T09:49:42Z</time>
      </trkpt>
      <trkpt lat="43.45834" lon="1.6199">
        <ele>203</ele>
        <time>2018-05-26T09:49:58Z</time>
      </trkpt>
      <trkpt lat="43.45837" lon="1.61996">
        <ele>203</ele>
        <time>2018-05-26T09:49:58Z</time>
      </trkpt>
      <trkpt lat="43.45837" lon="1.61999">
        <ele>203</ele>
        <time>2018-05-26T09:49:58Z</time>
      </trkpt>
      <trkpt lat="43.4584" lon="1.62003">
        <ele>204</ele>
        <time>2018-05-26T09:49:58Z</time>
      </trkpt>
      <trkpt lat="43.45842" lon="1.62008">
        <ele>204</ele>
        <time>2018-05-26T09:50:14Z</time>
      </trkpt>
      <trkpt lat="43.45844" lon="1.62013">
        <ele>204</ele>
        <time>2018-05-26T09:50:14Z</time>
      </trkpt>
      <trkpt lat="43.45846" lon="1.62017">
        <ele>205</ele>
        <time>2018-05-26T09:50:14Z</time>
      </trkpt>
      <trkpt lat="43.45849" lon="1.62021">
        <ele>205</ele>
        <time>2018-05-26T09:50:14Z</time>
      </trkpt>
      <trkpt lat="43.45851" lon="1.62026">
        <ele>205</ele>
        <time>2018-05-26T09:50:30Z</time>
      </trkpt>
      <trkpt lat="43.45854" lon="1.62031">
        <ele>205</ele>
        <time>2018-05-26T09:50:30Z</time>
      </trkpt>
      <trkpt lat="43.45856" lon="1.62036">
        <ele>206</ele>
        <time>2018-05-26T09:50:30Z</time>
      </trkpt>
      <trkpt lat="43.45859" lon="1.62041">
        <ele>206</ele>
        <time>2018-05-26T09:50:30Z</time>
      </trkpt>
      <trkpt lat="43.45861" lon="1.62045">
        <ele>206</ele>
        <time>2018-05-26T09:50:46Z</time>
      </trkpt>
      <trkpt lat="43.45865" lon="1.62051">
        <ele>206</ele>
        <time>2018-05-26T09:50:46Z</time>
      </trkpt>
      <trkpt lat="43.45867" lon="1.62054">
        <ele>206</ele>
        <time>2018-05-26T09:50:46Z</time>
      </trkpt>
      <trkpt lat="43.4587" lon="1.62058">
        <ele>206</ele>
        <time>2018-05-26T09:50:46Z</time>
      </trkpt>
      <trkpt lat="43.45874" lon="1.62065">
        <ele>206</ele>
        <time>2018-05-26T09:51:02Z</time>
      </trkpt>
      <trkpt lat="43.45876" lon="1.62069">
        <ele>206</ele>
        <time>2018-05-26T09:51:02Z</time>
      </trkpt>
      <trkpt lat="43.4588" lon="1.62075">
        <ele>206</ele>
        <time>2018-05-26T09:51:02Z</time>
      </trkpt>
      <trkpt lat="43.45883" lon="1.62078">
        <ele>206</ele>
        <time>2018-05-26T09:51:02Z</time>
      </trkpt>
      <trkpt lat="43.45888" lon="1.62082">
        <ele>206</ele>
        <time>2018-05-26T09:51:18Z</time>
      </trkpt>
      <trkpt lat="43.45895" lon="1.62086">
        <ele>208</ele>
        <time>2018-05-26T09:51:18Z</time>
      </trkpt>
      <trkpt lat="43.45898" lon="1.62088">
        <ele>208</ele>
        <time>2018-05-26T09:51:18Z</time>
      </trkpt>
      <trkpt lat="43.45902" lon="1.62089">
        <ele>208</ele>
        <time>2018-05-26T09:51:18Z</time>
      </trkpt>
      <trkpt lat="43.45906" lon="1.62092">
        <ele>208</ele>
        <time>2018-05-26T09:51:43Z</time>
      </trkpt>
      <trkpt lat="43.45908" lon="1.62092">
        <ele>207</ele>
        <time>2018-05-26T09:51:43Z</time>
      </trkpt>
      <trkpt lat="43.45913" lon="1.62091">
        <ele>207</ele>
        <time>2018-05-26T09:51:43Z</time>
      </trkpt>
      <trkpt lat="43.45915" lon="1.6209">
        <ele>207</ele>
        <time>2018-05-26T09:51:43Z</time>
      </trkpt>
      <trkpt lat="43.45916" lon="1.6209">
        <ele>207</ele>
        <time>2018-05-26T09:51:43Z</time>
      </trkpt>
      <trkpt lat="43.45922" lon="1.6209">
        <ele>208</ele>
        <time>2018-05-26T09:52:51Z</time>
      </trkpt>
      <trkpt lat="43.45922" lon="1.6209">
        <ele>208</ele>
        <time>2018-05-26T09:52:51Z</time>
      </trkpt>
      <trkpt lat="43.45922" lon="1.62096">
        <ele>208</ele>
        <time>2018-05-26T09:52:51Z</time>
      </trkpt>
      <trkpt lat="43.45921" lon="1.621">
        <ele>208</ele>
        <time>2018-05-26T09:52:51Z</time>
      </trkpt>
      <trkpt lat="43.45918" lon="1.62108">
        <ele>209</ele>
        <time>2018-05-26T09:52:51Z</time>
      </trkpt>
      <trkpt lat="43.45916" lon="1.62113">
        <ele>208</ele>
        <time>2018-05-26T09:53:06Z</time>
      </trkpt>
      <trkpt lat="43.45915" lon="1.62119">
        <ele>208</ele>
        <time>2018-05-26T09:53:06Z</time>
      </trkpt>
      <trkpt lat="43.45914" lon="1.62127">
        <ele>208</ele>
        <time>2018-05-26T09:53:06Z</time>
      </trkpt>
      <trkpt lat="43.45914" lon="1.62132">
        <ele>208</ele>
        <time>2018-05-26T09:53:06Z</time>
      </trkpt>
      <trkpt lat="43.45913" lon="1.62139">
        <ele>208</ele>
        <time>2018-05-26T09:53:22Z</time>
      </trkpt>
      <trkpt lat="43.45912" lon="1.62147">
        <ele>209</ele>
        <time>2018-05-26T09:53:22Z</time>
      </trkpt>
      <trkpt lat="43.45912" lon="1.62151">
        <ele>209</ele>
        <time>2018-05-26T09:53:22Z</time>
      </trkpt>
      <trkpt lat="43.45911" lon="1.62157">
        <ele>209</ele>
        <time>2018-05-26T09:53:22Z</time>
      </trkpt>
      <trkpt lat="43.45909" lon="1.62163">
        <ele>209</ele>
        <time>2018-05-26T09:53:38Z</time>
      </trkpt>
      <trkpt lat="43.45908" lon="1.62169">
        <ele>209</ele>
        <time>2018-05-26T09:53:38Z</time>
      </trkpt>
      <trkpt lat="43.45906" lon="1.62177">
        <ele>209</ele>
        <time>2018-05-26T09:53:38Z</time>
      </trkpt>
      <trkpt lat="43.45906" lon="1.62187">
        <ele>209</ele>
        <time>2018-05-26T09:53:38Z</time>
      </trkpt>
      <trkpt lat="43.45907" lon="1.62194">
        <ele>209</ele>
        <time>2018-05-26T09:53:54Z</time>
      </trkpt>
      <trkpt lat="43.45909" lon="1.622">
        <ele>209</ele>
        <time>2018-05-26T09:53:54Z</time>
      </trkpt>
      <trkpt lat="43.45912" lon="1.62205">
        <ele>209</ele>
        <time>2018-05-26T09:53:54Z</time>
      </trkpt>
      <trkpt lat="43.45916" lon="1.6221">
        <ele>209</ele>
        <time>2018-05-26T09:53:54Z</time>
      </trkpt>
      <trkpt lat="43.45919" lon="1.62215">
        <ele>211</ele>
        <time>2018-05-26T09:54:12Z</time>
      </trkpt>
      <trkpt lat="43.45922" lon="1.62221">
        <ele>211</ele>
        <time>2018-05-26T09:54:12Z</time>
      </trkpt>
      <trkpt lat="43.45925" lon="1.62227">
        <ele>211</ele>
        <time>2018-05-26T09:54:12Z</time>
      </trkpt>
      <trkpt lat="43.45929" lon="1.62234">
        <ele>211</ele>
        <time>2018-05-26T09:54:12Z</time>
      </trkpt>
      <trkpt lat="43.4593" lon="1.62236">
        <ele>211</ele>
        <time>2018-05-26T09:54:26Z</time>
      </trkpt>
      <trkpt lat="43.45933" lon="1.62242">
        <ele>211</ele>
        <time>2018-05-26T09:54:26Z</time>
      </trkpt>
      <trkpt lat="43.45937" lon="1.62247">
        <ele>211</ele>
        <time>2018-05-26T09:54:26Z</time>
      </trkpt>
      <trkpt lat="43.4594" lon="1.62252">
        <ele>211</ele>
        <time>2018-05-26T09:54:26Z</time>
      </trkpt>
      <trkpt lat="43.45945" lon="1.62257">
        <ele>211</ele>
        <time>2018-05-26T09:54:42Z</time>
      </trkpt>
      <trkpt lat="43.45948" lon="1.62261">
        <ele>211</ele>
        <time>2018-05-26T09:54:42Z</time>
      </trkpt>
      <trkpt lat="43.45952" lon="1.62265">
        <ele>211</ele>
        <time>2018-05-26T09:54:42Z</time>
      </trkpt>
      <trkpt lat="43.45955" lon="1.62271">
        <ele>212</ele>
        <time>2018-05-26T09:54:42Z</time>
      </trkpt>
      <trkpt lat="43.45959" lon="1.62276">
        <ele>212</ele>
        <time>2018-05-26T09:54:58Z</time>
      </trkpt>
      <trkpt lat="43.45963" lon="1.62281">
        <ele>212</ele>
        <time>2018-05-26T09:54:58Z</time>
      </trkpt>
      <trkpt lat="43.45966" lon="1.62286">
        <ele>212</ele>
        <time>2018-05-26T09:54:58Z</time>
      </trkpt>
      <trkpt lat="43.45968" lon="1.62292">
        <ele>212</ele>
        <time>2018-05-26T09:54:58Z</time>
      </trkpt>
      <trkpt lat="43.45971" lon="1.62298">
        <ele>212</ele>
        <time>2018-05-26T09:55:14Z</time>
      </trkpt>
      <trkpt lat="43.45972" lon="1.62304">
        <ele>212</ele>
        <time>2018-05-26T09:55:14Z</time>
      </trkpt>
      <trkpt lat="43.45974" lon="1.62309">
        <ele>212</ele>
        <time>2018-05-26T09:55:14Z</time>
      </trkpt>
      <trkpt lat="43.45977" lon="1.62315">
        <ele>212</ele>
        <time>2018-05-26T09:55:14Z</time>
      </trkpt>
      <trkpt lat="43.4598" lon="1.62321">
        <ele>213</ele>
        <time>2018-05-26T09:55:30Z</time>
      </trkpt>
      <trkpt lat="43.45983" lon="1.62325">
        <ele>213</ele>
        <time>2018-05-26T09:55:30Z</time>
      </trkpt>
      <trkpt lat="43.45985" lon="1.62332">
        <ele>213</ele>
        <time>2018-05-26T09:55:30Z</time>
      </trkpt>
      <trkpt lat="43.45987" lon="1.62339">
        <ele>210</ele>
        <time>2018-05-26T09:55:30Z</time>
      </trkpt>
      <trkpt lat="43.4599" lon="1.62345">
        <ele>210</ele>
        <time>2018-05-26T09:55:46Z</time>
      </trkpt>
      <trkpt lat="43.45992" lon="1.6235">
        <ele>209</ele>
        <time>2018-05-26T09:55:46Z</time>
      </trkpt>
      <trkpt lat="43.45995" lon="1.62355">
        <ele>209</ele>
        <time>2018-05-26T09:55:46Z</time>
      </trkpt>
      <trkpt lat="43.45998" lon="1.6236">
        <ele>208</ele>
        <time>2018-05-26T09:55:46Z</time>
      </trkpt>
      <trkpt lat="43.46001" lon="1.62366">
        <ele>210</ele>
        <time>2018-05-26T09:56:03Z</time>
      </trkpt>
      <trkpt lat="43.46004" lon="1.62371">
        <ele>210</ele>
        <time>2018-05-26T09:56:03Z</time>
      </trkpt>
      <trkpt lat="43.46007" lon="1.62376">
        <ele>209</ele>
        <time>2018-05-26T09:56:03Z</time>
      </trkpt>
      <trkpt lat="43.46011" lon="1.62381">
        <ele>209</ele>
        <time>2018-05-26T09:56:03Z</time>
      </trkpt>
      <trkpt lat="43.46012" lon="1.62386">
        <ele>208</ele>
        <time>2018-05-26T09:56:18Z</time>
      </trkpt>
      <trkpt lat="43.46013" lon="1.62389">
        <ele>208</ele>
        <time>2018-05-26T09:56:18Z</time>
      </trkpt>
      <trkpt lat="43.46017" lon="1.62395">
        <ele>207</ele>
        <time>2018-05-26T09:56:18Z</time>
      </trkpt>
      <trkpt lat="43.46021" lon="1.62399">
        <ele>207</ele>
        <time>2018-05-26T09:56:18Z</time>
      </trkpt>
      <trkpt lat="43.46024" lon="1.62404">
        <ele>207</ele>
        <time>2018-05-26T09:56:34Z</time>
      </trkpt>
      <trkpt lat="43.46026" lon="1.62409">
        <ele>207</ele>
        <time>2018-05-26T09:56:34Z</time>
      </trkpt>
      <trkpt lat="43.4603" lon="1.62417">
        <ele>199</ele>
        <time>2018-05-26T09:56:34Z</time>
      </trkpt>
      <trkpt lat="43.46033" lon="1.62424">
        <ele>199</ele>
        <time>2018-05-26T09:56:34Z</time>
      </trkpt>
      <trkpt lat="43.46033" lon="1.6244">
        <ele>198</ele>
        <time>2018-05-26T09:57:06Z</time>
      </trkpt>
      <trkpt lat="43.46033" lon="1.6244">
        <ele>198</ele>
        <time>2018-05-26T09:57:06Z</time>
      </trkpt>
      <trkpt lat="43.46033" lon="1.6244">
        <ele>198</ele>
        <time>2018-05-26T09:57:06Z</time>
      </trkpt>
      <trkpt lat="43.46034" lon="1.62442">
        <ele>198</ele>
        <time>2018-05-26T09:57:06Z</time>
      </trkpt>
      <trkpt lat="43.46037" lon="1.62447">
        <ele>198</ele>
        <time>2018-05-26T09:57:06Z</time>
      </trkpt>
      <trkpt lat="43.46039" lon="1.6245">
        <ele>198</ele>
        <time>2018-05-26T09:57:22Z</time>
      </trkpt>
      <trkpt lat="43.46043" lon="1.62456">
        <ele>197</ele>
        <time>2018-05-26T09:57:22Z</time>
      </trkpt>
      <trkpt lat="43.46044" lon="1.62459">
        <ele>197</ele>
        <time>2018-05-26T09:57:22Z</time>
      </trkpt>
      <trkpt lat="43.46047" lon="1.62466">
        <ele>197</ele>
        <time>2018-05-26T09:57:22Z</time>
      </trkpt>
      <trkpt lat="43.46049" lon="1.62472">
        <ele>196</ele>
        <time>2018-05-26T09:57:38Z</time>
      </trkpt>
      <trkpt lat="43.46051" lon="1.6248">
        <ele>196</ele>
        <time>2018-05-26T09:57:38Z</time>
      </trkpt>
      <trkpt lat="43.46053" lon="1.62484">
        <ele>196</ele>
        <time>2018-05-26T09:57:38Z</time>
      </trkpt>
      <trkpt lat="43.46053" lon="1.62489">
        <ele>195</ele>
        <time>2018-05-26T09:57:38Z</time>
      </trkpt>
      <trkpt lat="43.46055" lon="1.62494">
        <ele>195</ele>
        <time>2018-05-26T09:57:54Z</time>
      </trkpt>
      <trkpt lat="43.46057" lon="1.62501">
        <ele>188</ele>
        <time>2018-05-26T09:57:54Z</time>
      </trkpt>
      <trkpt lat="43.46058" lon="1.62508">
        <ele>188</ele>
        <time>2018-05-26T09:57:54Z</time>
      </trkpt>
      <trkpt lat="43.46061" lon="1.62513">
        <ele>188</ele>
        <time>2018-05-26T09:57:54Z</time>
      </trkpt>
      <trkpt lat="43.46063" lon="1.6252">
        <ele>188</ele>
        <time>2018-05-26T09:58:10Z</time>
      </trkpt>
      <trkpt lat="43.46064" lon="1.62526">
        <ele>188</ele>
        <time>2018-05-26T09:58:10Z</time>
      </trkpt>
      <trkpt lat="43.46065" lon="1.62531">
        <ele>187</ele>
        <time>2018-05-26T09:58:10Z</time>
      </trkpt>
      <trkpt lat="43.46067" lon="1.62535">
        <ele>187</ele>
        <time>2018-05-26T09:58:10Z</time>
      </trkpt>
      <trkpt lat="43.4607" lon="1.6254">
        <ele>187</ele>
        <time>2018-05-26T09:58:26Z</time>
      </trkpt>
      <trkpt lat="43.46071" lon="1.62545">
        <ele>187</ele>
        <time>2018-05-26T09:58:26Z</time>
      </trkpt>
      <trkpt lat="43.46072" lon="1.62549">
        <ele>187</ele>
        <time>2018-05-26T09:58:26Z</time>
      </trkpt>
      <trkpt lat="43.46074" lon="1.62555">
        <ele>186</ele>
        <time>2018-05-26T09:58:27Z</time>
      </trkpt>
      <trkpt lat="43.46076" lon="1.62561">
        <ele>186</ele>
        <time>2018-05-26T09:58:43Z</time>
      </trkpt>
      <trkpt lat="43.46078" lon="1.62566">
        <ele>187</ele>
        <time>2018-05-26T09:58:43Z</time>
      </trkpt>
      <trkpt lat="43.46079" lon="1.6257">
        <ele>187</ele>
        <time>2018-05-26T09:58:43Z</time>
      </trkpt>
      <trkpt lat="43.46079" lon="1.62578">
        <ele>187</ele>
        <time>2018-05-26T09:58:43Z</time>
      </trkpt>
      <trkpt lat="43.4608" lon="1.62582">
        <ele>187</ele>
        <time>2018-05-26T09:58:58Z</time>
      </trkpt>
      <trkpt lat="43.4608" lon="1.62587">
        <ele>186</ele>
        <time>2018-05-26T09:58:58Z</time>
      </trkpt>
      <trkpt lat="43.46081" lon="1.62591">
        <ele>185</ele>
        <time>2018-05-26T09:58:58Z</time>
      </trkpt>
      <trkpt lat="43.4608" lon="1.62598">
        <ele>184</ele>
        <time>2018-05-26T09:58:58Z</time>
      </trkpt>
      <trkpt lat="43.46081" lon="1.62606">
        <ele>182</ele>
        <time>2018-05-26T09:59:15Z</time>
      </trkpt>
      <trkpt lat="43.46081" lon="1.6261">
        <ele>182</ele>
        <time>2018-05-26T09:59:15Z</time>
      </trkpt>
      <trkpt lat="43.46081" lon="1.62616">
        <ele>181</ele>
        <time>2018-05-26T09:59:15Z</time>
      </trkpt>
      <trkpt lat="43.46082" lon="1.62623">
        <ele>180</ele>
        <time>2018-05-26T09:59:15Z</time>
      </trkpt>
      <trkpt lat="43.46082" lon="1.62627">
        <ele>180</ele>
        <time>2018-05-26T09:59:30Z</time>
      </trkpt>
      <trkpt lat="43.46083" lon="1.62632">
        <ele>180</ele>
        <time>2018-05-26T09:59:30Z</time>
      </trkpt>
      <trkpt lat="43.46083" lon="1.62641">
        <ele>180</ele>
        <time>2018-05-26T09:59:30Z</time>
      </trkpt>
      <trkpt lat="43.46083" lon="1.62646">
        <ele>179</ele>
        <time>2018-05-26T09:59:30Z</time>
      </trkpt>
      <trkpt lat="43.46084" lon="1.62654">
        <ele>182</ele>
        <time>2018-05-26T09:59:46Z</time>
      </trkpt>
      <trkpt lat="43.46084" lon="1.62662">
        <ele>181</ele>
        <time>2018-05-26T09:59:46Z</time>
      </trkpt>
      <trkpt lat="43.46084" lon="1.62669">
        <ele>180</ele>
        <time>2018-05-26T09:59:46Z</time>
      </trkpt>
      <trkpt lat="43.46086" lon="1.62677">
        <ele>179</ele>
        <time>2018-05-26T09:59:46Z</time>
      </trkpt>
      <trkpt lat="43.46089" lon="1.62685">
        <ele>179</ele>
        <time>2018-05-26T10:00:02Z</time>
      </trkpt>
      <trkpt lat="43.46091" lon="1.62689">
        <ele>179</ele>
        <time>2018-05-26T10:00:02Z</time>
      </trkpt>
      <trkpt lat="43.46093" lon="1.62694">
        <ele>179</ele>
        <time>2018-05-26T10:00:02Z</time>
      </trkpt>
      <trkpt lat="43.46097" lon="1.62697">
        <ele>179</ele>
        <time>2018-05-26T10:00:02Z</time>
      </trkpt>
      <trkpt lat="43.46101" lon="1.62701">
        <ele>178</ele>
        <time>2018-05-26T10:00:18Z</time>
      </trkpt>
      <trkpt lat="43.46106" lon="1.62701">
        <ele>179</ele>
        <time>2018-05-26T10:00:18Z</time>
      </trkpt>
      <trkpt lat="43.4611" lon="1.62701">
        <ele>179</ele>
        <time>2018-05-26T10:00:18Z</time>
      </trkpt>
      <trkpt lat="43.46114" lon="1.62706">
        <ele>178</ele>
        <time>2018-05-26T10:00:18Z</time>
      </trkpt>
      <trkpt lat="43.46118" lon="1.62711">
        <ele>178</ele>
        <time>2018-05-26T10:00:35Z</time>
      </trkpt>
      <trkpt lat="43.46123" lon="1.62716">
        <ele>178</ele>
        <time>2018-05-26T10:00:35Z</time>
      </trkpt>
      <trkpt lat="43.46125" lon="1.6272">
        <ele>178</ele>
        <time>2018-05-26T10:00:35Z</time>
      </trkpt>
      <trkpt lat="43.46128" lon="1.62727">
        <ele>178</ele>
        <time>2018-05-26T10:00:35Z</time>
      </trkpt>
      <trkpt lat="43.4613" lon="1.62733">
        <ele>178</ele>
        <time>2018-05-26T10:00:50Z</time>
      </trkpt>
      <trkpt lat="43.46133" lon="1.62738">
        <ele>178</ele>
        <time>2018-05-26T10:00:50Z</time>
      </trkpt>
      <trkpt lat="43.46135" lon="1.62744">
        <ele>178</ele>
        <time>2018-05-26T10:00:50Z</time>
      </trkpt>
      <trkpt lat="43.46136" lon="1.62748">
        <ele>178</ele>
        <time>2018-05-26T10:00:50Z</time>
      </trkpt>
      <trkpt lat="43.46139" lon="1.62753">
        <ele>177</ele>
        <time>2018-05-26T10:01:06Z</time>
      </trkpt>
      <trkpt lat="43.46141" lon="1.62763">
        <ele>177</ele>
        <time>2018-05-26T10:01:06Z</time>
      </trkpt>
      <trkpt lat="43.46143" lon="1.62767">
        <ele>177</ele>
        <time>2018-05-26T10:01:06Z</time>
      </trkpt>
      <trkpt lat="43.46145" lon="1.62772">
        <ele>177</ele>
        <time>2018-05-26T10:01:06Z</time>
      </trkpt>
      <trkpt lat="43.46147" lon="1.62779">
        <ele>176</ele>
        <time>2018-05-26T10:01:22Z</time>
      </trkpt>
      <trkpt lat="43.46149" lon="1.62783">
        <ele>176</ele>
        <time>2018-05-26T10:01:22Z</time>
      </trkpt>
      <trkpt lat="43.46151" lon="1.62787">
        <ele>176</ele>
        <time>2018-05-26T10:01:22Z</time>
      </trkpt>
      <trkpt lat="43.46152" lon="1.62792">
        <ele>176</ele>
        <time>2018-05-26T10:01:22Z</time>
      </trkpt>
      <trkpt lat="43.46154" lon="1.62797">
        <ele>176</ele>
        <time>2018-05-26T10:01:38Z</time>
      </trkpt>
      <trkpt lat="43.46157" lon="1.62805">
        <ele>176</ele>
        <time>2018-05-26T10:01:38Z</time>
      </trkpt>
      <trkpt lat="43.46157" lon="1.6281">
        <ele>176</ele>
        <time>2018-05-26T10:01:38Z</time>
      </trkpt>
      <trkpt lat="43.46159" lon="1.62816">
        <ele>176</ele>
        <time>2018-05-26T10:01:38Z</time>
      </trkpt>
      <trkpt lat="43.4616" lon="1.62824">
        <ele>176</ele>
        <time>2018-05-26T10:01:54Z</time>
      </trkpt>
      <trkpt lat="43.4616" lon="1.62829">
        <ele>177</ele>
        <time>2018-05-26T10:01:54Z</time>
      </trkpt>
      <trkpt lat="43.46161" lon="1.62836">
        <ele>176</ele>
        <time>2018-05-26T10:01:54Z</time>
      </trkpt>
      <trkpt lat="43.46162" lon="1.62843">
        <ele>176</ele>
        <time>2018-05-26T10:01:55Z</time>
      </trkpt>
      <trkpt lat="43.46162" lon="1.6285">
        <ele>176</ele>
        <time>2018-05-26T10:02:10Z</time>
      </trkpt>
      <trkpt lat="43.46162" lon="1.62857">
        <ele>175</ele>
        <time>2018-05-26T10:02:10Z</time>
      </trkpt>
      <trkpt lat="43.46162" lon="1.62863">
        <ele>175</ele>
        <time>2018-05-26T10:02:10Z</time>
      </trkpt>
      <trkpt lat="43.46161" lon="1.62871">
        <ele>175</ele>
        <time>2018-05-26T10:02:10Z</time>
      </trkpt>
      <trkpt lat="43.46161" lon="1.62879">
        <ele>175</ele>
        <time>2018-05-26T10:02:26Z</time>
      </trkpt>
      <trkpt lat="43.46162" lon="1.62885">
        <ele>175</ele>
        <time>2018-05-26T10:02:26Z</time>
      </trkpt>
      <trkpt lat="43.46162" lon="1.6289">
        <ele>175</ele>
        <time>2018-05-26T10:02:26Z</time>
      </trkpt>
      <trkpt lat="43.46163" lon="1.62895">
        <ele>175</ele>
        <time>2018-05-26T10:02:26Z</time>
      </trkpt>
      <trkpt lat="43.46163" lon="1.62902">
        <ele>175</ele>
        <time>2018-05-26T10:02:43Z</time>
      </trkpt>
      <trkpt lat="43.46163" lon="1.62907">
        <ele>175</ele>
        <time>2018-05-26T10:02:43Z</time>
      </trkpt>
      <trkpt lat="43.46164" lon="1.62913">
        <ele>175</ele>
        <time>2018-05-26T10:02:43Z</time>
      </trkpt>
      <trkpt lat="43.46166" lon="1.62921">
        <ele>175</ele>
        <time>2018-05-26T10:02:43Z</time>
      </trkpt>
      <trkpt lat="43.46167" lon="1.62925">
        <ele>177</ele>
        <time>2018-05-26T10:02:58Z</time>
      </trkpt>
      <trkpt lat="43.46169" lon="1.62932">
        <ele>178</ele>
        <time>2018-05-26T10:02:58Z</time>
      </trkpt>
      <trkpt lat="43.46166" lon="1.6294">
        <ele>174</ele>
        <time>2018-05-26T10:02:58Z</time>
      </trkpt>
      <trkpt lat="43.46165" lon="1.62945">
        <ele>174</ele>
        <time>2018-05-26T10:02:58Z</time>
      </trkpt>
      <trkpt lat="43.46166" lon="1.62954">
        <ele>174</ele>
        <time>2018-05-26T10:03:14Z</time>
      </trkpt>
      <trkpt lat="43.46167" lon="1.62962">
        <ele>179</ele>
        <time>2018-05-26T10:03:14Z</time>
      </trkpt>
      <trkpt lat="43.46168" lon="1.62966">
        <ele>179</ele>
        <time>2018-05-26T10:03:14Z</time>
      </trkpt>
      <trkpt lat="43.46169" lon="1.62973">
        <ele>179</ele>
        <time>2018-05-26T10:03:14Z</time>
      </trkpt>
      <trkpt lat="43.46169" lon="1.6298">
        <ele>178</ele>
        <time>2018-05-26T10:03:30Z</time>
      </trkpt>
      <trkpt lat="43.46169" lon="1.62985">
        <ele>178</ele>
        <time>2018-05-26T10:03:30Z</time>
      </trkpt>
      <trkpt lat="43.46169" lon="1.62994">
        <ele>176</ele>
        <time>2018-05-26T10:03:30Z</time>
      </trkpt>
      <trkpt lat="43.46169" lon="1.63">
        <ele>176</ele>
        <time>2018-05-26T10:03:30Z</time>
      </trkpt>
      <trkpt lat="43.46171" lon="1.63008">
        <ele>177</ele>
        <time>2018-05-26T10:03:46Z</time>
      </trkpt>
      <trkpt lat="43.46172" lon="1.63017">
        <ele>179</ele>
        <time>2018-05-26T10:03:46Z</time>
      </trkpt>
      <trkpt lat="43.46172" lon="1.63021">
        <ele>179</ele>
        <time>2018-05-26T10:03:46Z</time>
      </trkpt>
      <trkpt lat="43.46172" lon="1.63028">
        <ele>180</ele>
        <time>2018-05-26T10:03:46Z</time>
      </trkpt>
      <trkpt lat="43.46172" lon="1.63035">
        <ele>180</ele>
        <time>2018-05-26T10:04:02Z</time>
      </trkpt>
      <trkpt lat="43.46172" lon="1.6304">
        <ele>180</ele>
        <time>2018-05-26T10:04:02Z</time>
      </trkpt>
      <trkpt lat="43.46172" lon="1.63047">
        <ele>180</ele>
        <time>2018-05-26T10:04:02Z</time>
      </trkpt>
      <trkpt lat="43.46174" lon="1.63055">
        <ele>180</ele>
        <time>2018-05-26T10:04:02Z</time>
      </trkpt>
      <trkpt lat="43.46176" lon="1.63061">
        <ele>180</ele>
        <time>2018-05-26T10:04:18Z</time>
      </trkpt>
      <trkpt lat="43.46177" lon="1.63068">
        <ele>179</ele>
        <time>2018-05-26T10:04:18Z</time>
      </trkpt>
      <trkpt lat="43.46178" lon="1.63076">
        <ele>179</ele>
        <time>2018-05-26T10:04:18Z</time>
      </trkpt>
      <trkpt lat="43.46179" lon="1.63085">
        <ele>179</ele>
        <time>2018-05-26T10:04:18Z</time>
      </trkpt>
      <trkpt lat="43.4618" lon="1.63096">
        <ele>179</ele>
        <time>2018-05-26T10:04:34Z</time>
      </trkpt>
      <trkpt lat="43.4618" lon="1.63102">
        <ele>180</ele>
        <time>2018-05-26T10:04:34Z</time>
      </trkpt>
      <trkpt lat="43.46181" lon="1.63108">
        <ele>180</ele>
        <time>2018-05-26T10:04:34Z</time>
      </trkpt>
      <trkpt lat="43.46181" lon="1.63114">
        <ele>181</ele>
        <time>2018-05-26T10:04:34Z</time>
      </trkpt>
      <trkpt lat="43.46181" lon="1.63119">
        <ele>181</ele>
        <time>2018-05-26T10:04:50Z</time>
      </trkpt>
      <trkpt lat="43.4618" lon="1.63124">
        <ele>181</ele>
        <time>2018-05-26T10:04:50Z</time>
      </trkpt>
      <trkpt lat="43.46182" lon="1.63131">
        <ele>181</ele>
        <time>2018-05-26T10:04:50Z</time>
      </trkpt>
      <trkpt lat="43.46184" lon="1.63139">
        <ele>181</ele>
        <time>2018-05-26T10:04:50Z</time>
      </trkpt>
      <trkpt lat="43.46183" lon="1.63147">
        <ele>180</ele>
        <time>2018-05-26T10:05:06Z</time>
      </trkpt>
      <trkpt lat="43.46184" lon="1.63151">
        <ele>180</ele>
        <time>2018-05-26T10:05:06Z</time>
      </trkpt>
      <trkpt lat="43.46184" lon="1.63157">
        <ele>179</ele>
        <time>2018-05-26T10:05:06Z</time>
      </trkpt>
      <trkpt lat="43.46185" lon="1.63164">
        <ele>179</ele>
        <time>2018-05-26T10:05:06Z</time>
      </trkpt>
      <trkpt lat="43.46186" lon="1.63172">
        <ele>178</ele>
        <time>2018-05-26T10:05:22Z</time>
      </trkpt>
      <trkpt lat="43.46187" lon="1.63179">
        <ele>178</ele>
        <time>2018-05-26T10:05:22Z</time>
      </trkpt>
      <trkpt lat="43.46188" lon="1.63186">
        <ele>179</ele>
        <time>2018-05-26T10:05:22Z</time>
      </trkpt>
      <trkpt lat="43.46189" lon="1.63194">
        <ele>179</ele>
        <time>2018-05-26T10:05:22Z</time>
      </trkpt>
      <trkpt lat="43.46192" lon="1.63204">
        <ele>179</ele>
        <time>2018-05-26T10:05:38Z</time>
      </trkpt>
      <trkpt lat="43.46192" lon="1.63209">
        <ele>179</ele>
        <time>2018-05-26T10:05:38Z</time>
      </trkpt>
      <trkpt lat="43.46192" lon="1.63213">
        <ele>179</ele>
        <time>2018-05-26T10:05:38Z</time>
      </trkpt>
      <trkpt lat="43.46192" lon="1.63219">
        <ele>179</ele>
        <time>2018-05-26T10:05:38Z</time>
      </trkpt>
      <trkpt lat="43.46193" lon="1.63225">
        <ele>179</ele>
        <time>2018-05-26T10:05:55Z</time>
      </trkpt>
      <trkpt lat="43.46194" lon="1.63233">
        <ele>179</ele>
        <time>2018-05-26T10:05:55Z</time>
      </trkpt>
      <trkpt lat="43.46195" lon="1.63241">
        <ele>179</ele>
        <time>2018-05-26T10:05:55Z</time>
      </trkpt>
      <trkpt lat="43.46197" lon="1.63253">
        <ele>177</ele>
        <time>2018-05-26T10:05:55Z</time>
      </trkpt>
      <trkpt lat="43.46197" lon="1.63258">
        <ele>177</ele>
        <time>2018-05-26T10:06:10Z</time>
      </trkpt>
      <trkpt lat="43.46199" lon="1.63263">
        <ele>177</ele>
        <time>2018-05-26T10:06:10Z</time>
      </trkpt>
      <trkpt lat="43.462" lon="1.63269">
        <ele>177</ele>
        <time>2018-05-26T10:06:10Z</time>
      </trkpt>
      <trkpt lat="43.462" lon="1.63275">
        <ele>177</ele>
        <time>2018-05-26T10:06:10Z</time>
      </trkpt>
      <trkpt lat="43.462" lon="1.63281">
        <ele>177</ele>
        <time>2018-05-26T10:06:26Z</time>
      </trkpt>
      <trkpt lat="43.462" lon="1.63286">
        <ele>177</ele>
        <time>2018-05-26T10:06:26Z</time>
      </trkpt>
      <trkpt lat="43.462" lon="1.63292">
        <ele>177</ele>
        <time>2018-05-26T10:06:26Z</time>
      </trkpt>
      <trkpt lat="43.46201" lon="1.63299">
        <ele>177</ele>
        <time>2018-05-26T10:06:26Z</time>
      </trkpt>
      <trkpt lat="43.46203" lon="1.63306">
        <ele>177</ele>
        <time>2018-05-26T10:06:42Z</time>
      </trkpt>
      <trkpt lat="43.46204" lon="1.63314">
        <ele>177</ele>
        <time>2018-05-26T10:06:42Z</time>
      </trkpt>
      <trkpt lat="43.46206" lon="1.63322">
        <ele>177</ele>
        <time>2018-05-26T10:06:42Z</time>
      </trkpt>
      <trkpt lat="43.46207" lon="1.63329">
        <ele>177</ele>
        <time>2018-05-26T10:06:42Z</time>
      </trkpt>
      <trkpt lat="43.46209" lon="1.63337">
        <ele>176</ele>
        <time>2018-05-26T10:06:58Z</time>
      </trkpt>
      <trkpt lat="43.46211" lon="1.63346">
        <ele>176</ele>
        <time>2018-05-26T10:06:58Z</time>
      </trkpt>
      <trkpt lat="43.46213" lon="1.63355">
        <ele>176</ele>
        <time>2018-05-26T10:06:58Z</time>
      </trkpt>
      <trkpt lat="43.46214" lon="1.63363">
        <ele>176</ele>
        <time>2018-05-26T10:06:58Z</time>
      </trkpt>
      <trkpt lat="43.46216" lon="1.63369">
        <ele>176</ele>
        <time>2018-05-26T10:07:15Z</time>
      </trkpt>
      <trkpt lat="43.46218" lon="1.63374">
        <ele>176</ele>
        <time>2018-05-26T10:07:15Z</time>
      </trkpt>
      <trkpt lat="43.46219" lon="1.63379">
        <ele>176</ele>
        <time>2018-05-26T10:07:15Z</time>
      </trkpt>
      <trkpt lat="43.46221" lon="1.63385">
        <ele>176</ele>
        <time>2018-05-26T10:07:15Z</time>
      </trkpt>
      <trkpt lat="43.46222" lon="1.63389">
        <ele>176</ele>
        <time>2018-05-26T10:07:30Z</time>
      </trkpt>
      <trkpt lat="43.46224" lon="1.63395">
        <ele>176</ele>
        <time>2018-05-26T10:07:30Z</time>
      </trkpt>
      <trkpt lat="43.46225" lon="1.63402">
        <ele>176</ele>
        <time>2018-05-26T10:07:30Z</time>
      </trkpt>
      <trkpt lat="43.46227" lon="1.6341">
        <ele>176</ele>
        <time>2018-05-26T10:07:30Z</time>
      </trkpt>
      <trkpt lat="43.46229" lon="1.63419">
        <ele>175</ele>
        <time>2018-05-26T10:07:46Z</time>
      </trkpt>
      <trkpt lat="43.46229" lon="1.63428">
        <ele>175</ele>
        <time>2018-05-26T10:07:46Z</time>
      </trkpt>
      <trkpt lat="43.46229" lon="1.63433">
        <ele>175</ele>
        <time>2018-05-26T10:07:46Z</time>
      </trkpt>
      <trkpt lat="43.46229" lon="1.63437">
        <ele>175</ele>
        <time>2018-05-26T10:07:46Z</time>
      </trkpt>
      <trkpt lat="43.4623" lon="1.63442">
        <ele>175</ele>
        <time>2018-05-26T10:08:02Z</time>
      </trkpt>
      <trkpt lat="43.46232" lon="1.63448">
        <ele>175</ele>
        <time>2018-05-26T10:08:02Z</time>
      </trkpt>
      <trkpt lat="43.46234" lon="1.63456">
        <ele>175</ele>
        <time>2018-05-26T10:08:02Z</time>
      </trkpt>
      <trkpt lat="43.46235" lon="1.63464">
        <ele>175</ele>
        <time>2018-05-26T10:08:02Z</time>
      </trkpt>
      <trkpt lat="43.46237" lon="1.63469">
        <ele>174</ele>
        <time>2018-05-26T10:08:18Z</time>
      </trkpt>
      <trkpt lat="43.46238" lon="1.63476">
        <ele>174</ele>
        <time>2018-05-26T10:08:18Z</time>
      </trkpt>
      <trkpt lat="43.4624" lon="1.63481">
        <ele>174</ele>
        <time>2018-05-26T10:08:18Z</time>
      </trkpt>
      <trkpt lat="43.46242" lon="1.63487">
        <ele>174</ele>
        <time>2018-05-26T10:08:18Z</time>
      </trkpt>
      <trkpt lat="43.46244" lon="1.63493">
        <ele>174</ele>
        <time>2018-05-26T10:08:34Z</time>
      </trkpt>
      <trkpt lat="43.46246" lon="1.63499">
        <ele>174</ele>
        <time>2018-05-26T10:08:34Z</time>
      </trkpt>
      <trkpt lat="43.4625" lon="1.63507">
        <ele>174</ele>
        <time>2018-05-26T10:08:34Z</time>
      </trkpt>
      <trkpt lat="43.46252" lon="1.63511">
        <ele>176</ele>
        <time>2018-05-26T10:08:34Z</time>
      </trkpt>
      <trkpt lat="43.46255" lon="1.63519">
        <ele>177</ele>
        <time>2018-05-26T10:08:51Z</time>
      </trkpt>
      <trkpt lat="43.46258" lon="1.63523">
        <ele>177</ele>
        <time>2018-05-26T10:08:51Z</time>
      </trkpt>
      <trkpt lat="43.46261" lon="1.63529">
        <ele>178</ele>
        <time>2018-05-26T10:08:51Z</time>
      </trkpt>
      <trkpt lat="43.46264" lon="1.63536">
        <ele>178</ele>
        <time>2018-05-26T10:08:51Z</time>
      </trkpt>
      <trkpt lat="43.46266" lon="1.6354">
        <ele>178</ele>
        <time>2018-05-26T10:09:06Z</time>
      </trkpt>
      <trkpt lat="43.46269" lon="1.63546">
        <ele>178</ele>
        <time>2018-05-26T10:09:06Z</time>
      </trkpt>
      <trkpt lat="43.46272" lon="1.63552">
        <ele>178</ele>
        <time>2018-05-26T10:09:06Z</time>
      </trkpt>
      <trkpt lat="43.46274" lon="1.63557">
        <ele>178</ele>
        <time>2018-05-26T10:09:06Z</time>
      </trkpt>
      <trkpt lat="43.46277" lon="1.63564">
        <ele>178</ele>
        <time>2018-05-26T10:09:22Z</time>
      </trkpt>
      <trkpt lat="43.4628" lon="1.6357">
        <ele>178</ele>
        <time>2018-05-26T10:09:23Z</time>
      </trkpt>
      <trkpt lat="43.46283" lon="1.63576">
        <ele>179</ele>
        <time>2018-05-26T10:09:23Z</time>
      </trkpt>
      <trkpt lat="43.46286" lon="1.63583">
        <ele>179</ele>
        <time>2018-05-26T10:09:23Z</time>
      </trkpt>
      <trkpt lat="43.46288" lon="1.63588">
        <ele>178</ele>
        <time>2018-05-26T10:09:38Z</time>
      </trkpt>
      <trkpt lat="43.46291" lon="1.63593">
        <ele>179</ele>
        <time>2018-05-26T10:09:38Z</time>
      </trkpt>
      <trkpt lat="43.46295" lon="1.63599">
        <ele>179</ele>
        <time>2018-05-26T10:09:38Z</time>
      </trkpt>
      <trkpt lat="43.46297" lon="1.63604">
        <ele>179</ele>
        <time>2018-05-26T10:09:38Z</time>
      </trkpt>
      <trkpt lat="43.46299" lon="1.6361">
        <ele>179</ele>
        <time>2018-05-26T10:09:54Z</time>
      </trkpt>
      <trkpt lat="43.46302" lon="1.63617">
        <ele>179</ele>
        <time>2018-05-26T10:09:54Z</time>
      </trkpt>
      <trkpt lat="43.46304" lon="1.63622">
        <ele>179</ele>
        <time>2018-05-26T10:09:54Z</time>
      </trkpt>
      <trkpt lat="43.46307" lon="1.63628">
        <ele>179</ele>
        <time>2018-05-26T10:09:54Z</time>
      </trkpt>
      <trkpt lat="43.46309" lon="1.63634">
        <ele>179</ele>
        <time>2018-05-26T10:10:10Z</time>
      </trkpt>
      <trkpt lat="43.46312" lon="1.63639">
        <ele>180</ele>
        <time>2018-05-26T10:10:10Z</time>
      </trkpt>
      <trkpt lat="43.46315" lon="1.63643">
        <ele>180</ele>
        <time>2018-05-26T10:10:10Z</time>
      </trkpt>
      <trkpt lat="43.46318" lon="1.63647">
        <ele>180</ele>
        <time>2018-05-26T10:10:10Z</time>
      </trkpt>
      <trkpt lat="43.4632" lon="1.63653">
        <ele>180</ele>
        <time>2018-05-26T10:10:26Z</time>
      </trkpt>
      <trkpt lat="43.46322" lon="1.63659">
        <ele>181</ele>
        <time>2018-05-26T10:10:26Z</time>
      </trkpt>
      <trkpt lat="43.46324" lon="1.63664">
        <ele>181</ele>
        <time>2018-05-26T10:10:26Z</time>
      </trkpt>
      <trkpt lat="43.46325" lon="1.63671">
        <ele>180</ele>
        <time>2018-05-26T10:10:26Z</time>
      </trkpt>
      <trkpt lat="43.46326" lon="1.63678">
        <ele>180</ele>
        <time>2018-05-26T10:10:42Z</time>
      </trkpt>
      <trkpt lat="43.46327" lon="1.63685">
        <ele>179</ele>
        <time>2018-05-26T10:10:42Z</time>
      </trkpt>
      <trkpt lat="43.46328" lon="1.63691">
        <ele>179</ele>
        <time>2018-05-26T10:10:42Z</time>
      </trkpt>
      <trkpt lat="43.46327" lon="1.63697">
        <ele>179</ele>
        <time>2018-05-26T10:10:42Z</time>
      </trkpt>
      <trkpt lat="43.46328" lon="1.63703">
        <ele>178</ele>
        <time>2018-05-26T10:10:58Z</time>
      </trkpt>
      <trkpt lat="43.46329" lon="1.63711">
        <ele>178</ele>
        <time>2018-05-26T10:10:58Z</time>
      </trkpt>
      <trkpt lat="43.46329" lon="1.63716">
        <ele>178</ele>
        <time>2018-05-26T10:10:58Z</time>
      </trkpt>
      <trkpt lat="43.4633" lon="1.63723">
        <ele>178</ele>
        <time>2018-05-26T10:10:58Z</time>
      </trkpt>
      <trkpt lat="43.46332" lon="1.63732">
        <ele>178</ele>
        <time>2018-05-26T10:11:15Z</time>
      </trkpt>
      <trkpt lat="43.46333" lon="1.63737">
        <ele>178</ele>
        <time>2018-05-26T10:11:15Z</time>
      </trkpt>
      <trkpt lat="43.46334" lon="1.63743">
        <ele>179</ele>
        <time>2018-05-26T10:11:15Z</time>
      </trkpt>
      <trkpt lat="43.46336" lon="1.63751">
        <ele>178</ele>
        <time>2018-05-26T10:11:15Z</time>
      </trkpt>
      <trkpt lat="43.46338" lon="1.63756">
        <ele>179</ele>
        <time>2018-05-26T10:11:30Z</time>
      </trkpt>
      <trkpt lat="43.4634" lon="1.63762">
        <ele>179</ele>
        <time>2018-05-26T10:11:30Z</time>
      </trkpt>
      <trkpt lat="43.46343" lon="1.63768">
        <ele>180</ele>
        <time>2018-05-26T10:11:30Z</time>
      </trkpt>
      <trkpt lat="43.46346" lon="1.63773">
        <ele>180</ele>
        <time>2018-05-26T10:11:30Z</time>
      </trkpt>
      <trkpt lat="43.4635" lon="1.63779">
        <ele>180</ele>
        <time>2018-05-26T10:11:47Z</time>
      </trkpt>
      <trkpt lat="43.46353" lon="1.63783">
        <ele>180</ele>
        <time>2018-05-26T10:11:47Z</time>
      </trkpt>
      <trkpt lat="43.46355" lon="1.63789">
        <ele>180</ele>
        <time>2018-05-26T10:11:47Z</time>
      </trkpt>
      <trkpt lat="43.46359" lon="1.63796">
        <ele>180</ele>
        <time>2018-05-26T10:11:47Z</time>
      </trkpt>
      <trkpt lat="43.46362" lon="1.638">
        <ele>180</ele>
        <time>2018-05-26T10:12:02Z</time>
      </trkpt>
      <trkpt lat="43.46365" lon="1.63804">
        <ele>180</ele>
        <time>2018-05-26T10:12:02Z</time>
      </trkpt>
      <trkpt lat="43.46367" lon="1.63811">
        <ele>180</ele>
        <time>2018-05-26T10:12:02Z</time>
      </trkpt>
      <trkpt lat="43.46369" lon="1.63817">
        <ele>181</ele>
        <time>2018-05-26T10:12:02Z</time>
      </trkpt>
      <trkpt lat="43.46372" lon="1.63824">
        <ele>181</ele>
        <time>2018-05-26T10:12:19Z</time>
      </trkpt>
      <trkpt lat="43.46374" lon="1.63829">
        <ele>181</ele>
        <time>2018-05-26T10:12:19Z</time>
      </trkpt>
      <trkpt lat="43.46376" lon="1.63836">
        <ele>180</ele>
        <time>2018-05-26T10:12:19Z</time>
      </trkpt>
      <trkpt lat="43.46379" lon="1.63843">
        <ele>180</ele>
        <time>2018-05-26T10:12:19Z</time>
      </trkpt>
      <trkpt lat="43.46382" lon="1.63848">
        <ele>180</ele>
        <time>2018-05-26T10:12:34Z</time>
      </trkpt>
      <trkpt lat="43.46385" lon="1.63853">
        <ele>180</ele>
        <time>2018-05-26T10:12:34Z</time>
      </trkpt>
      <trkpt lat="43.46388" lon="1.63858">
        <ele>180</ele>
        <time>2018-05-26T10:12:34Z</time>
      </trkpt>
      <trkpt lat="43.46391" lon="1.63864">
        <ele>180</ele>
        <time>2018-05-26T10:12:34Z</time>
      </trkpt>
      <trkpt lat="43.46393" lon="1.6387">
        <ele>180</ele>
        <time>2018-05-26T10:12:50Z</time>
      </trkpt>
      <trkpt lat="43.46397" lon="1.63877">
        <ele>180</ele>
        <time>2018-05-26T10:12:50Z</time>
      </trkpt>
      <trkpt lat="43.46399" lon="1.63881">
        <ele>180</ele>
        <time>2018-05-26T10:12:50Z</time>
      </trkpt>
      <trkpt lat="43.46402" lon="1.63886">
        <ele>180</ele>
        <time>2018-05-26T10:12:50Z</time>
      </trkpt>
      <trkpt lat="43.46405" lon="1.63892">
        <ele>180</ele>
        <time>2018-05-26T10:13:07Z</time>
      </trkpt>
      <trkpt lat="43.46408" lon="1.63897">
        <ele>180</ele>
        <time>2018-05-26T10:13:07Z</time>
      </trkpt>
      <trkpt lat="43.46411" lon="1.63902">
        <ele>180</ele>
        <time>2018-05-26T10:13:07Z</time>
      </trkpt>
      <trkpt lat="43.46414" lon="1.63909">
        <ele>180</ele>
        <time>2018-05-26T10:13:07Z</time>
      </trkpt>
      <trkpt lat="43.46416" lon="1.63914">
        <ele>180</ele>
        <time>2018-05-26T10:13:22Z</time>
      </trkpt>
      <trkpt lat="43.46419" lon="1.63921">
        <ele>181</ele>
        <time>2018-05-26T10:13:22Z</time>
      </trkpt>
      <trkpt lat="43.46421" lon="1.63928">
        <ele>182</ele>
        <time>2018-05-26T10:13:22Z</time>
      </trkpt>
      <trkpt lat="43.46424" lon="1.63933">
        <ele>183</ele>
        <time>2018-05-26T10:13:22Z</time>
      </trkpt>
      <trkpt lat="43.46427" lon="1.6394">
        <ele>184</ele>
        <time>2018-05-26T10:13:38Z</time>
      </trkpt>
      <trkpt lat="43.46429" lon="1.63945">
        <ele>184</ele>
        <time>2018-05-26T10:13:38Z</time>
      </trkpt>
      <trkpt lat="43.46432" lon="1.6395">
        <ele>184</ele>
        <time>2018-05-26T10:13:38Z</time>
      </trkpt>
      <trkpt lat="43.46435" lon="1.63957">
        <ele>184</ele>
        <time>2018-05-26T10:13:38Z</time>
      </trkpt>
      <trkpt lat="43.46437" lon="1.63963">
        <ele>184</ele>
        <time>2018-05-26T10:13:54Z</time>
      </trkpt>
      <trkpt lat="43.4644" lon="1.63969">
        <ele>184</ele>
        <time>2018-05-26T10:13:54Z</time>
      </trkpt>
      <trkpt lat="43.46443" lon="1.63978">
        <ele>184</ele>
        <time>2018-05-26T10:13:54Z</time>
      </trkpt>
      <trkpt lat="43.46445" lon="1.63982">
        <ele>184</ele>
        <time>2018-05-26T10:13:54Z</time>
      </trkpt>
      <trkpt lat="43.46447" lon="1.63988">
        <ele>184</ele>
        <time>2018-05-26T10:14:10Z</time>
      </trkpt>
      <trkpt lat="43.46449" lon="1.63993">
        <ele>184</ele>
        <time>2018-05-26T10:14:10Z</time>
      </trkpt>
      <trkpt lat="43.46451" lon="1.63999">
        <ele>184</ele>
        <time>2018-05-26T10:14:10Z</time>
      </trkpt>
      <trkpt lat="43.46453" lon="1.64005">
        <ele>182</ele>
        <time>2018-05-26T10:14:10Z</time>
      </trkpt>
      <trkpt lat="43.46455" lon="1.64013">
        <ele>182</ele>
        <time>2018-05-26T10:14:26Z</time>
      </trkpt>
      <trkpt lat="43.46457" lon="1.64021">
        <ele>182</ele>
        <time>2018-05-26T10:14:26Z</time>
      </trkpt>
      <trkpt lat="43.46458" lon="1.64028">
        <ele>182</ele>
        <time>2018-05-26T10:14:26Z</time>
      </trkpt>
      <trkpt lat="43.4646" lon="1.64035">
        <ele>182</ele>
        <time>2018-05-26T10:14:26Z</time>
      </trkpt>
      <trkpt lat="43.46461" lon="1.64041">
        <ele>182</ele>
        <time>2018-05-26T10:14:43Z</time>
      </trkpt>
      <trkpt lat="43.46462" lon="1.64045">
        <ele>182</ele>
        <time>2018-05-26T10:14:43Z</time>
      </trkpt>
      <trkpt lat="43.46462" lon="1.6405">
        <ele>182</ele>
        <time>2018-05-26T10:14:43Z</time>
      </trkpt>
      <trkpt lat="43.46463" lon="1.64057">
        <ele>182</ele>
        <time>2018-05-26T10:14:43Z</time>
      </trkpt>
      <trkpt lat="43.46464" lon="1.64063">
        <ele>182</ele>
        <time>2018-05-26T10:14:58Z</time>
      </trkpt>
      <trkpt lat="43.46465" lon="1.64071">
        <ele>182</ele>
        <time>2018-05-26T10:14:58Z</time>
      </trkpt>
      <trkpt lat="43.46466" lon="1.6408">
        <ele>182</ele>
        <time>2018-05-26T10:14:58Z</time>
      </trkpt>
      <trkpt lat="43.46467" lon="1.64087">
        <ele>181</ele>
        <time>2018-05-26T10:14:58Z</time>
      </trkpt>
      <trkpt lat="43.46468" lon="1.64093">
        <ele>181</ele>
        <time>2018-05-26T10:15:14Z</time>
      </trkpt>
      <trkpt lat="43.46469" lon="1.641">
        <ele>181</ele>
        <time>2018-05-26T10:15:14Z</time>
      </trkpt>
      <trkpt lat="43.4647" lon="1.64109">
        <ele>181</ele>
        <time>2018-05-26T10:15:14Z</time>
      </trkpt>
      <trkpt lat="43.4647" lon="1.64114">
        <ele>181</ele>
        <time>2018-05-26T10:15:14Z</time>
      </trkpt>
      <trkpt lat="43.4647" lon="1.64121">
        <ele>181</ele>
        <time>2018-05-26T10:15:30Z</time>
      </trkpt>
      <trkpt lat="43.46471" lon="1.64128">
        <ele>181</ele>
        <time>2018-05-26T10:15:30Z</time>
      </trkpt>
      <trkpt lat="43.46472" lon="1.64133">
        <ele>181</ele>
        <time>2018-05-26T10:15:30Z</time>
      </trkpt>
      <trkpt lat="43.46473" lon="1.64139">
        <ele>181</ele>
        <time>2018-05-26T10:15:30Z</time>
      </trkpt>
      <trkpt lat="43.46473" lon="1.64147">
        <ele>181</ele>
        <time>2018-05-26T10:15:46Z</time>
      </trkpt>
      <trkpt lat="43.46473" lon="1.64153">
        <ele>181</ele>
        <time>2018-05-26T10:15:46Z</time>
      </trkpt>
      <trkpt lat="43.46472" lon="1.64164">
        <ele>181</ele>
        <time>2018-05-26T10:15:46Z</time>
      </trkpt>
      <trkpt lat="43.46473" lon="1.64173">
        <ele>180</ele>
        <time>2018-05-26T10:15:46Z</time>
      </trkpt>
      <trkpt lat="43.46474" lon="1.6418">
        <ele>180</ele>
        <time>2018-05-26T10:16:02Z</time>
      </trkpt>
      <trkpt lat="43.46471" lon="1.64186">
        <ele>180</ele>
        <time>2018-05-26T10:16:02Z</time>
      </trkpt>
      <trkpt lat="43.46471" lon="1.6419">
        <ele>180</ele>
        <time>2018-05-26T10:16:02Z</time>
      </trkpt>
      <trkpt lat="43.46473" lon="1.64198">
        <ele>180</ele>
        <time>2018-05-26T10:16:02Z</time>
      </trkpt>
      <trkpt lat="43.46473" lon="1.64207">
        <ele>180</ele>
        <time>2018-05-26T10:16:18Z</time>
      </trkpt>
      <trkpt lat="43.46474" lon="1.64212">
        <ele>180</ele>
        <time>2018-05-26T10:16:18Z</time>
      </trkpt>
      <trkpt lat="43.46473" lon="1.64218">
        <ele>180</ele>
        <time>2018-05-26T10:16:18Z</time>
      </trkpt>
      <trkpt lat="43.46473" lon="1.64224">
        <ele>180</ele>
        <time>2018-05-26T10:16:18Z</time>
      </trkpt>
      <trkpt lat="43.46473" lon="1.64232">
        <ele>180</ele>
        <time>2018-05-26T10:16:35Z</time>
      </trkpt>
      <trkpt lat="43.46474" lon="1.6424">
        <ele>180</ele>
        <time>2018-05-26T10:16:35Z</time>
      </trkpt>
      <trkpt lat="43.46475" lon="1.64247">
        <ele>180</ele>
        <time>2018-05-26T10:16:35Z</time>
      </trkpt>
      <trkpt lat="43.46476" lon="1.64254">
        <ele>180</ele>
        <time>2018-05-26T10:16:35Z</time>
      </trkpt>
      <trkpt lat="43.46475" lon="1.64261">
        <ele>180</ele>
        <time>2018-05-26T10:20:34Z</time>
      </trkpt>
      <trkpt lat="43.46476" lon="1.64261">
        <ele>180</ele>
        <time>2018-05-26T10:20:34Z</time>
      </trkpt>
      <trkpt lat="43.46476" lon="1.64268">
        <ele>180</ele>
        <time>2018-05-26T10:20:34Z</time>
      </trkpt>
      <trkpt lat="43.46478" lon="1.64277">
        <ele>180</ele>
        <time>2018-05-26T10:20:34Z</time>
      </trkpt>
      <trkpt lat="43.46479" lon="1.64282">
        <ele>180</ele>
        <time>2018-05-26T10:20:34Z</time>
      </trkpt>
      <trkpt lat="43.4648" lon="1.6429">
        <ele>180</ele>
        <time>2018-05-26T10:20:50Z</time>
      </trkpt>
      <trkpt lat="43.46481" lon="1.64297">
        <ele>180</ele>
        <time>2018-05-26T10:20:50Z</time>
      </trkpt>
      <trkpt lat="43.46482" lon="1.64304">
        <ele>180</ele>
        <time>2018-05-26T10:20:50Z</time>
      </trkpt>
      <trkpt lat="43.46482" lon="1.6431">
        <ele>180</ele>
        <time>2018-05-26T10:20:50Z</time>
      </trkpt>
      <trkpt lat="43.46482" lon="1.64317">
        <ele>180</ele>
        <time>2018-05-26T10:21:07Z</time>
      </trkpt>
      <trkpt lat="43.46484" lon="1.6432">
        <ele>180</ele>
        <time>2018-05-26T10:21:07Z</time>
      </trkpt>
      <trkpt lat="43.46484" lon="1.64324">
        <ele>181</ele>
        <time>2018-05-26T10:21:07Z</time>
      </trkpt>
      <trkpt lat="43.46486" lon="1.64334">
        <ele>181</ele>
        <time>2018-05-26T10:21:07Z</time>
      </trkpt>
      <trkpt lat="43.46487" lon="1.6434">
        <ele>181</ele>
        <time>2018-05-26T10:21:22Z</time>
      </trkpt>
      <trkpt lat="43.46487" lon="1.64347">
        <ele>181</ele>
        <time>2018-05-26T10:21:22Z</time>
      </trkpt>
      <trkpt lat="43.46488" lon="1.64356">
        <ele>180</ele>
        <time>2018-05-26T10:21:22Z</time>
      </trkpt>
      <trkpt lat="43.46488" lon="1.64362">
        <ele>180</ele>
        <time>2018-05-26T10:21:22Z</time>
      </trkpt>
      <trkpt lat="43.46489" lon="1.64368">
        <ele>180</ele>
        <time>2018-05-26T10:21:39Z</time>
      </trkpt>
      <trkpt lat="43.46489" lon="1.64376">
        <ele>180</ele>
        <time>2018-05-26T10:21:39Z</time>
      </trkpt>
      <trkpt lat="43.4649" lon="1.64381">
        <ele>180</ele>
        <time>2018-05-26T10:21:39Z</time>
      </trkpt>
      <trkpt lat="43.4649" lon="1.6439">
        <ele>180</ele>
        <time>2018-05-26T10:21:39Z</time>
      </trkpt>
      <trkpt lat="43.46491" lon="1.64395">
        <ele>181</ele>
        <time>2018-05-26T10:21:54Z</time>
      </trkpt>
      <trkpt lat="43.46491" lon="1.64402">
        <ele>181</ele>
        <time>2018-05-26T10:21:54Z</time>
      </trkpt>
      <trkpt lat="43.46492" lon="1.64409">
        <ele>181</ele>
        <time>2018-05-26T10:21:54Z</time>
      </trkpt>
      <trkpt lat="43.46491" lon="1.64413">
        <ele>181</ele>
        <time>2018-05-26T10:21:54Z</time>
      </trkpt>
      <trkpt lat="43.46492" lon="1.64421">
        <ele>181</ele>
        <time>2018-05-26T10:22:10Z</time>
      </trkpt>
      <trkpt lat="43.46492" lon="1.64429">
        <ele>181</ele>
        <time>2018-05-26T10:22:10Z</time>
      </trkpt>
      <trkpt lat="43.46493" lon="1.64434">
        <ele>180</ele>
        <time>2018-05-26T10:22:10Z</time>
      </trkpt>
      <trkpt lat="43.46493" lon="1.64441">
        <ele>180</ele>
        <time>2018-05-26T10:22:10Z</time>
      </trkpt>
      <trkpt lat="43.46495" lon="1.6445">
        <ele>180</ele>
        <time>2018-05-26T10:22:26Z</time>
      </trkpt>
      <trkpt lat="43.46496" lon="1.64457">
        <ele>180</ele>
        <time>2018-05-26T10:22:26Z</time>
      </trkpt>
      <trkpt lat="43.46497" lon="1.64465">
        <ele>179</ele>
        <time>2018-05-26T10:22:26Z</time>
      </trkpt>
      <trkpt lat="43.46498" lon="1.6447">
        <ele>179</ele>
        <time>2018-05-26T10:22:26Z</time>
      </trkpt>
      <trkpt lat="43.46498" lon="1.64476">
        <ele>179</ele>
        <time>2018-05-26T10:22:42Z</time>
      </trkpt>
      <trkpt lat="43.46499" lon="1.64483">
        <ele>179</ele>
        <time>2018-05-26T10:22:42Z</time>
      </trkpt>
      <trkpt lat="43.46501" lon="1.6449">
        <ele>182</ele>
        <time>2018-05-26T10:22:42Z</time>
      </trkpt>
      <trkpt lat="43.46502" lon="1.64493">
        <ele>181</ele>
        <time>2018-05-26T10:22:42Z</time>
      </trkpt>
      <trkpt lat="43.46503" lon="1.64498">
        <ele>180</ele>
        <time>2018-05-26T10:22:58Z</time>
      </trkpt>
      <trkpt lat="43.46504" lon="1.64505">
        <ele>181</ele>
        <time>2018-05-26T10:22:58Z</time>
      </trkpt>
      <trkpt lat="43.46505" lon="1.64514">
        <ele>182</ele>
        <time>2018-05-26T10:22:58Z</time>
      </trkpt>
      <trkpt lat="43.46506" lon="1.64521">
        <ele>183</ele>
        <time>2018-05-26T10:22:58Z</time>
      </trkpt>
      <trkpt lat="43.46508" lon="1.64526">
        <ele>183</ele>
        <time>2018-05-26T10:23:15Z</time>
      </trkpt>
      <trkpt lat="43.4651" lon="1.6453">
        <ele>184</ele>
        <time>2018-05-26T10:23:15Z</time>
      </trkpt>
      <trkpt lat="43.46512" lon="1.64535">
        <ele>184</ele>
        <time>2018-05-26T10:23:15Z</time>
      </trkpt>
      <trkpt lat="43.46513" lon="1.6454">
        <ele>184</ele>
        <time>2018-05-26T10:23:15Z</time>
      </trkpt>
      <trkpt lat="43.46514" lon="1.64543">
        <ele>184</ele>
        <time>2018-05-26T10:23:30Z</time>
      </trkpt>
      <trkpt lat="43.46518" lon="1.64551">
        <ele>184</ele>
        <time>2018-05-26T10:23:30Z</time>
      </trkpt>
      <trkpt lat="43.4652" lon="1.64557">
        <ele>184</ele>
        <time>2018-05-26T10:23:30Z</time>
      </trkpt>
      <trkpt lat="43.46522" lon="1.64565">
        <ele>184</ele>
        <time>2018-05-26T10:23:30Z</time>
      </trkpt>
      <trkpt lat="43.46525" lon="1.64575">
        <ele>184</ele>
        <time>2018-05-26T10:23:46Z</time>
      </trkpt>
      <trkpt lat="43.46527" lon="1.64581">
        <ele>184</ele>
        <time>2018-05-26T10:23:46Z</time>
      </trkpt>
      <trkpt lat="43.46529" lon="1.64588">
        <ele>183</ele>
        <time>2018-05-26T10:23:46Z</time>
      </trkpt>
      <trkpt lat="43.46532" lon="1.64593">
        <ele>183</ele>
        <time>2018-05-26T10:23:46Z</time>
      </trkpt>
      <trkpt lat="43.46533" lon="1.64597">
        <ele>183</ele>
        <time>2018-05-26T10:24:02Z</time>
      </trkpt>
      <trkpt lat="43.46535" lon="1.64605">
        <ele>183</ele>
        <time>2018-05-26T10:24:02Z</time>
      </trkpt>
      <trkpt lat="43.46536" lon="1.64611">
        <ele>183</ele>
        <time>2018-05-26T10:24:02Z</time>
      </trkpt>
      <trkpt lat="43.46538" lon="1.64616">
        <ele>183</ele>
        <time>2018-05-26T10:24:02Z</time>
      </trkpt>
      <trkpt lat="43.4654" lon="1.64621">
        <ele>183</ele>
        <time>2018-05-26T10:24:18Z</time>
      </trkpt>
      <trkpt lat="43.46542" lon="1.64627">
        <ele>183</ele>
        <time>2018-05-26T10:24:18Z</time>
      </trkpt>
      <trkpt lat="43.46545" lon="1.64634">
        <ele>183</ele>
        <time>2018-05-26T10:24:18Z</time>
      </trkpt>
      <trkpt lat="43.46546" lon="1.64639">
        <ele>183</ele>
        <time>2018-05-26T10:24:18Z</time>
      </trkpt>
      <trkpt lat="43.46546" lon="1.64645">
        <ele>183</ele>
        <time>2018-05-26T10:24:34Z</time>
      </trkpt>
      <trkpt lat="43.46547" lon="1.64652">
        <ele>183</ele>
        <time>2018-05-26T10:24:34Z</time>
      </trkpt>
      <trkpt lat="43.46548" lon="1.6466">
        <ele>183</ele>
        <time>2018-05-26T10:24:34Z</time>
      </trkpt>
      <trkpt lat="43.4655" lon="1.64668">
        <ele>182</ele>
        <time>2018-05-26T10:24:34Z</time>
      </trkpt>
      <trkpt lat="43.46551" lon="1.64675">
        <ele>182</ele>
        <time>2018-05-26T10:24:50Z</time>
      </trkpt>
      <trkpt lat="43.46553" lon="1.64682">
        <ele>182</ele>
        <time>2018-05-26T10:24:50Z</time>
      </trkpt>
      <trkpt lat="43.46556" lon="1.64689">
        <ele>182</ele>
        <time>2018-05-26T10:24:50Z</time>
      </trkpt>
      <trkpt lat="43.46557" lon="1.64696">
        <ele>182</ele>
        <time>2018-05-26T10:24:50Z</time>
      </trkpt>
      <trkpt lat="43.46558" lon="1.64702">
        <ele>182</ele>
        <time>2018-05-26T10:25:06Z</time>
      </trkpt>
      <trkpt lat="43.46559" lon="1.64707">
        <ele>182</ele>
        <time>2018-05-26T10:25:06Z</time>
      </trkpt>
      <trkpt lat="43.46561" lon="1.64713">
        <ele>182</ele>
        <time>2018-05-26T10:25:06Z</time>
      </trkpt>
      <trkpt lat="43.46562" lon="1.64719">
        <ele>182</ele>
        <time>2018-05-26T10:25:06Z</time>
      </trkpt>
      <trkpt lat="43.46562" lon="1.64728">
        <ele>182</ele>
        <time>2018-05-26T10:25:22Z</time>
      </trkpt>
      <trkpt lat="43.46563" lon="1.64733">
        <ele>183</ele>
        <time>2018-05-26T10:25:22Z</time>
      </trkpt>
      <trkpt lat="43.46565" lon="1.64739">
        <ele>183</ele>
        <time>2018-05-26T10:25:22Z</time>
      </trkpt>
      <trkpt lat="43.46566" lon="1.64746">
        <ele>183</ele>
        <time>2018-05-26T10:25:22Z</time>
      </trkpt>
      <trkpt lat="43.46568" lon="1.64754">
        <ele>182</ele>
        <time>2018-05-26T10:25:39Z</time>
      </trkpt>
      <trkpt lat="43.46568" lon="1.64761">
        <ele>182</ele>
        <time>2018-05-26T10:25:39Z</time>
      </trkpt>
      <trkpt lat="43.46568" lon="1.64768">
        <ele>182</ele>
        <time>2018-05-26T10:25:39Z</time>
      </trkpt>
      <trkpt lat="43.4657" lon="1.64776">
        <ele>181</ele>
        <time>2018-05-26T10:25:39Z</time>
      </trkpt>
      <trkpt lat="43.46571" lon="1.64783">
        <ele>181</ele>
        <time>2018-05-26T10:25:54Z</time>
      </trkpt>
      <trkpt lat="43.46573" lon="1.6479">
        <ele>181</ele>
        <time>2018-05-26T10:25:54Z</time>
      </trkpt>
      <trkpt lat="43.46574" lon="1.64796">
        <ele>181</ele>
        <time>2018-05-26T10:25:54Z</time>
      </trkpt>
      <trkpt lat="43.46575" lon="1.648">
        <ele>181</ele>
        <time>2018-05-26T10:25:54Z</time>
      </trkpt>
      <trkpt lat="43.46576" lon="1.64805">
        <ele>180</ele>
        <time>2018-05-26T10:26:11Z</time>
      </trkpt>
      <trkpt lat="43.46577" lon="1.64813">
        <ele>180</ele>
        <time>2018-05-26T10:26:11Z</time>
      </trkpt>
      <trkpt lat="43.46578" lon="1.64816">
        <ele>180</ele>
        <time>2018-05-26T10:26:11Z</time>
      </trkpt>
      <trkpt lat="43.46581" lon="1.64818">
        <ele>180</ele>
        <time>2018-05-26T10:26:11Z</time>
      </trkpt>
      <trkpt lat="43.46583" lon="1.64822">
        <ele>180</ele>
        <time>2018-05-26T10:26:26Z</time>
      </trkpt>
      <trkpt lat="43.46586" lon="1.64828">
        <ele>182</ele>
        <time>2018-05-26T10:26:26Z</time>
      </trkpt>
      <trkpt lat="43.46589" lon="1.64833">
        <ele>182</ele>
        <time>2018-05-26T10:26:26Z</time>
      </trkpt>
      <trkpt lat="43.46592" lon="1.64839">
        <ele>182</ele>
        <time>2018-05-26T10:26:26Z</time>
      </trkpt>
      <trkpt lat="43.46595" lon="1.64846">
        <ele>183</ele>
        <time>2018-05-26T10:26:42Z</time>
      </trkpt>
      <trkpt lat="43.46598" lon="1.64852">
        <ele>183</ele>
        <time>2018-05-26T10:26:42Z</time>
      </trkpt>
      <trkpt lat="43.46601" lon="1.64856">
        <ele>184</ele>
        <time>2018-05-26T10:26:42Z</time>
      </trkpt>
      <trkpt lat="43.46603" lon="1.64861">
        <ele>184</ele>
        <time>2018-05-26T10:26:42Z</time>
      </trkpt>
      <trkpt lat="43.46606" lon="1.64864">
        <ele>184</ele>
        <time>2018-05-26T10:26:58Z</time>
      </trkpt>
      <trkpt lat="43.4661" lon="1.64867">
        <ele>184</ele>
        <time>2018-05-26T10:26:58Z</time>
      </trkpt>
      <trkpt lat="43.46612" lon="1.64871">
        <ele>184</ele>
        <time>2018-05-26T10:26:58Z</time>
      </trkpt>
      <trkpt lat="43.46615" lon="1.64876">
        <ele>185</ele>
        <time>2018-05-26T10:26:58Z</time>
      </trkpt>
      <trkpt lat="43.46618" lon="1.64879">
        <ele>185</ele>
        <time>2018-05-26T10:27:14Z</time>
      </trkpt>
      <trkpt lat="43.46623" lon="1.64882">
        <ele>185</ele>
        <time>2018-05-26T10:27:14Z</time>
      </trkpt>
      <trkpt lat="43.46625" lon="1.64889">
        <ele>185</ele>
        <time>2018-05-26T10:27:14Z</time>
      </trkpt>
      <trkpt lat="43.46628" lon="1.64893">
        <ele>185</ele>
        <time>2018-05-26T10:27:14Z</time>
      </trkpt>
      <trkpt lat="43.46631" lon="1.64899">
        <ele>185</ele>
        <time>2018-05-26T10:27:30Z</time>
      </trkpt>
      <trkpt lat="43.46635" lon="1.64907">
        <ele>186</ele>
        <time>2018-05-26T10:27:30Z</time>
      </trkpt>
      <trkpt lat="43.46637" lon="1.6491">
        <ele>186</ele>
        <time>2018-05-26T10:27:30Z</time>
      </trkpt>
      <trkpt lat="43.46639" lon="1.64917">
        <ele>186</ele>
        <time>2018-05-26T10:27:30Z</time>
      </trkpt>
      <trkpt lat="43.46642" lon="1.64924">
        <ele>184</ele>
        <time>2018-05-26T10:27:46Z</time>
      </trkpt>
      <trkpt lat="43.46645" lon="1.64928">
        <ele>184</ele>
        <time>2018-05-26T10:27:46Z</time>
      </trkpt>
      <trkpt lat="43.46648" lon="1.64933">
        <ele>184</ele>
        <time>2018-05-26T10:27:46Z</time>
      </trkpt>
      <trkpt lat="43.46652" lon="1.64937">
        <ele>184</ele>
        <time>2018-05-26T10:27:46Z</time>
      </trkpt>
      <trkpt lat="43.46655" lon="1.64943">
        <ele>184</ele>
        <time>2018-05-26T10:28:02Z</time>
      </trkpt>
      <trkpt lat="43.46659" lon="1.64949">
        <ele>184</ele>
        <time>2018-05-26T10:28:02Z</time>
      </trkpt>
      <trkpt lat="43.46662" lon="1.64953">
        <ele>184</ele>
        <time>2018-05-26T10:28:02Z</time>
      </trkpt>
      <trkpt lat="43.46666" lon="1.64958">
        <ele>183</ele>
        <time>2018-05-26T10:28:02Z</time>
      </trkpt>
      <trkpt lat="43.46671" lon="1.64964">
        <ele>191</ele>
        <time>2018-05-26T10:28:19Z</time>
      </trkpt>
      <trkpt lat="43.46673" lon="1.64969">
        <ele>191</ele>
        <time>2018-05-26T10:28:19Z</time>
      </trkpt>
      <trkpt lat="43.46677" lon="1.64975">
        <ele>190</ele>
        <time>2018-05-26T10:28:19Z</time>
      </trkpt>
      <trkpt lat="43.46681" lon="1.64982">
        <ele>190</ele>
        <time>2018-05-26T10:28:19Z</time>
      </trkpt>
      <trkpt lat="43.46683" lon="1.64987">
        <ele>190</ele>
        <time>2018-05-26T10:28:34Z</time>
      </trkpt>
      <trkpt lat="43.46685" lon="1.64993">
        <ele>189</ele>
        <time>2018-05-26T10:28:34Z</time>
      </trkpt>
      <trkpt lat="43.46688" lon="1.65003">
        <ele>187</ele>
        <time>2018-05-26T10:28:34Z</time>
      </trkpt>
      <trkpt lat="43.4669" lon="1.6501">
        <ele>187</ele>
        <time>2018-05-26T10:28:34Z</time>
      </trkpt>
      <trkpt lat="43.46692" lon="1.65021">
        <ele>188</ele>
        <time>2018-05-26T10:28:50Z</time>
      </trkpt>
      <trkpt lat="43.46693" lon="1.65028">
        <ele>188</ele>
        <time>2018-05-26T10:28:50Z</time>
      </trkpt>
      <trkpt lat="43.46693" lon="1.65034">
        <ele>188</ele>
        <time>2018-05-26T10:28:50Z</time>
      </trkpt>
      <trkpt lat="43.46695" lon="1.65039">
        <ele>188</ele>
        <time>2018-05-26T10:28:50Z</time>
      </trkpt>
      <trkpt lat="43.46697" lon="1.65045">
        <ele>188</ele>
        <time>2018-05-26T10:29:07Z</time>
      </trkpt>
      <trkpt lat="43.46696" lon="1.65053">
        <ele>188</ele>
        <time>2018-05-26T10:29:07Z</time>
      </trkpt>
      <trkpt lat="43.46696" lon="1.65059">
        <ele>187</ele>
        <time>2018-05-26T10:29:07Z</time>
      </trkpt>
      <trkpt lat="43.46697" lon="1.65067">
        <ele>187</ele>
        <time>2018-05-26T10:29:07Z</time>
      </trkpt>
      <trkpt lat="43.467" lon="1.65081">
        <ele>187</ele>
        <time>2018-05-26T10:29:27Z</time>
      </trkpt>
      <trkpt lat="43.467" lon="1.65086">
        <ele>185</ele>
        <time>2018-05-26T10:29:27Z</time>
      </trkpt>
      <trkpt lat="43.46704" lon="1.65092">
        <ele>186</ele>
        <time>2018-05-26T10:29:27Z</time>
      </trkpt>
      <trkpt lat="43.46706" lon="1.65099">
        <ele>186</ele>
        <time>2018-05-26T10:29:27Z</time>
      </trkpt>
      <trkpt lat="43.4671" lon="1.65104">
        <ele>186</ele>
        <time>2018-05-26T10:29:42Z</time>
      </trkpt>
      <trkpt lat="43.46713" lon="1.65109">
        <ele>187</ele>
        <time>2018-05-26T10:29:42Z</time>
      </trkpt>
      <trkpt lat="43.46715" lon="1.65115">
        <ele>187</ele>
        <time>2018-05-26T10:29:42Z</time>
      </trkpt>
      <trkpt lat="43.46717" lon="1.65122">
        <ele>187</ele>
        <time>2018-05-26T10:29:42Z</time>
      </trkpt>
      <trkpt lat="43.46718" lon="1.6513">
        <ele>187</ele>
        <time>2018-05-26T10:29:59Z</time>
      </trkpt>
      <trkpt lat="43.46719" lon="1.65138">
        <ele>187</ele>
        <time>2018-05-26T10:29:59Z</time>
      </trkpt>
      <trkpt lat="43.46721" lon="1.65147">
        <ele>187</ele>
        <time>2018-05-26T10:29:59Z</time>
      </trkpt>
      <trkpt lat="43.46722" lon="1.65153">
        <ele>187</ele>
        <time>2018-05-26T10:29:59Z</time>
      </trkpt>
      <trkpt lat="43.46722" lon="1.65156">
        <ele>187</ele>
        <time>2018-05-26T10:30:14Z</time>
      </trkpt>
      <trkpt lat="43.46721" lon="1.65164">
        <ele>187</ele>
        <time>2018-05-26T10:30:14Z</time>
      </trkpt>
      <trkpt lat="43.46723" lon="1.65174">
        <ele>186</ele>
        <time>2018-05-26T10:30:14Z</time>
      </trkpt>
      <trkpt lat="43.46724" lon="1.6518">
        <ele>186</ele>
        <time>2018-05-26T10:30:14Z</time>
      </trkpt>
      <trkpt lat="43.46725" lon="1.65184">
        <ele>186</ele>
        <time>2018-05-26T10:30:30Z</time>
      </trkpt>
      <trkpt lat="43.46723" lon="1.65189">
        <ele>186</ele>
        <time>2018-05-26T10:30:30Z</time>
      </trkpt>
      <trkpt lat="43.46728" lon="1.65198">
        <ele>186</ele>
        <time>2018-05-26T10:30:30Z</time>
      </trkpt>
      <trkpt lat="43.46732" lon="1.65207">
        <ele>186</ele>
        <time>2018-05-26T10:30:30Z</time>
      </trkpt>
      <trkpt lat="43.46732" lon="1.65215">
        <ele>186</ele>
        <time>2018-05-26T10:30:46Z</time>
      </trkpt>
      <trkpt lat="43.46731" lon="1.6522">
        <ele>186</ele>
        <time>2018-05-26T10:30:46Z</time>
      </trkpt>
      <trkpt lat="43.46737" lon="1.65227">
        <ele>186</ele>
        <time>2018-05-26T10:30:46Z</time>
      </trkpt>
      <trkpt lat="43.46741" lon="1.65231">
        <ele>186</ele>
        <time>2018-05-26T10:30:46Z</time>
      </trkpt>
      <trkpt lat="43.46741" lon="1.65237">
        <ele>186</ele>
        <time>2018-05-26T10:31:02Z</time>
      </trkpt>
      <trkpt lat="43.46741" lon="1.65244">
        <ele>187</ele>
        <time>2018-05-26T10:31:02Z</time>
      </trkpt>
      <trkpt lat="43.46741" lon="1.65252">
        <ele>187</ele>
        <time>2018-05-26T10:31:02Z</time>
      </trkpt>
      <trkpt lat="43.46742" lon="1.65256">
        <ele>186</ele>
        <time>2018-05-26T10:31:02Z</time>
      </trkpt>
      <trkpt lat="43.46739" lon="1.65263">
        <ele>186</ele>
        <time>2018-05-26T10:31:19Z</time>
      </trkpt>
      <trkpt lat="43.46739" lon="1.6527">
        <ele>185</ele>
        <time>2018-05-26T10:31:19Z</time>
      </trkpt>
      <trkpt lat="43.46738" lon="1.65274">
        <ele>185</ele>
        <time>2018-05-26T10:31:19Z</time>
      </trkpt>
      <trkpt lat="43.4674" lon="1.65286">
        <ele>185</ele>
        <time>2018-05-26T10:31:19Z</time>
      </trkpt>
      <trkpt lat="43.46738" lon="1.65292">
        <ele>184</ele>
        <time>2018-05-26T10:31:34Z</time>
      </trkpt>
      <trkpt lat="43.46735" lon="1.65295">
        <ele>184</ele>
        <time>2018-05-26T10:31:34Z</time>
      </trkpt>
      <trkpt lat="43.46736" lon="1.65302">
        <ele>184</ele>
        <time>2018-05-26T10:31:34Z</time>
      </trkpt>
      <trkpt lat="43.46735" lon="1.65306">
        <ele>184</ele>
        <time>2018-05-26T10:31:34Z</time>
      </trkpt>
      <trkpt lat="43.46741" lon="1.65332">
        <ele>185</ele>
        <time>2018-05-26T10:34:02Z</time>
      </trkpt>
      <trkpt lat="43.4674" lon="1.65336">
        <ele>184</ele>
        <time>2018-05-26T10:34:02Z</time>
      </trkpt>
      <trkpt lat="43.46741" lon="1.65338">
        <ele>184</ele>
        <time>2018-05-26T10:34:02Z</time>
      </trkpt>
      <trkpt lat="43.46765" lon="1.65429">
        <ele>186</ele>
        <time>2018-05-26T10:34:02Z</time>
      </trkpt>
      <trkpt lat="43.46764" lon="1.65427">
        <ele>186</ele>
        <time>2018-05-26T10:34:46Z</time>
      </trkpt>
      <trkpt lat="43.46764" lon="1.65427">
        <ele>186</ele>
        <time>2018-05-26T10:34:46Z</time>
      </trkpt>
      <trkpt lat="43.46763" lon="1.65428">
        <ele>186</ele>
        <time>2018-05-26T10:34:46Z</time>
      </trkpt>
      <trkpt lat="43.4676" lon="1.6543">
        <ele>186</ele>
        <time>2018-05-26T10:34:46Z</time>
      </trkpt>
      <trkpt lat="43.46755" lon="1.65433">
        <ele>186</ele>
        <time>2018-05-26T10:34:47Z</time>
      </trkpt>
      <trkpt lat="43.4675" lon="1.65433">
        <ele>186</ele>
        <time>2018-05-26T10:35:02Z</time>
      </trkpt>
      <trkpt lat="43.46745" lon="1.65437">
        <ele>183</ele>
        <time>2018-05-26T10:35:02Z</time>
      </trkpt>
      <trkpt lat="43.4674" lon="1.65443">
        <ele>183</ele>
        <time>2018-05-26T10:35:02Z</time>
      </trkpt>
      <trkpt lat="43.46738" lon="1.65448">
        <ele>183</ele>
        <time>2018-05-26T10:35:02Z</time>
      </trkpt>
      <trkpt lat="43.46738" lon="1.65454">
        <ele>183</ele>
        <time>2018-05-26T10:35:18Z</time>
      </trkpt>
      <trkpt lat="43.46739" lon="1.6546">
        <ele>183</ele>
        <time>2018-05-26T10:35:18Z</time>
      </trkpt>
      <trkpt lat="43.4674" lon="1.65465">
        <ele>183</ele>
        <time>2018-05-26T10:35:18Z</time>
      </trkpt>
      <trkpt lat="43.4674" lon="1.65469">
        <ele>184</ele>
        <time>2018-05-26T10:35:18Z</time>
      </trkpt>
      <trkpt lat="43.4674" lon="1.65474">
        <ele>184</ele>
        <time>2018-05-26T10:35:34Z</time>
      </trkpt>
      <trkpt lat="43.4674" lon="1.6548">
        <ele>184</ele>
        <time>2018-05-26T10:35:34Z</time>
      </trkpt>
      <trkpt lat="43.4674" lon="1.65487">
        <ele>184</ele>
        <time>2018-05-26T10:35:34Z</time>
      </trkpt>
      <trkpt lat="43.4674" lon="1.65495">
        <ele>184</ele>
        <time>2018-05-26T10:35:34Z</time>
      </trkpt>
      <trkpt lat="43.46741" lon="1.65501">
        <ele>185</ele>
        <time>2018-05-26T10:35:50Z</time>
      </trkpt>
      <trkpt lat="43.46741" lon="1.65507">
        <ele>184</ele>
        <time>2018-05-26T10:35:50Z</time>
      </trkpt>
      <trkpt lat="43.46741" lon="1.65511">
        <ele>184</ele>
        <time>2018-05-26T10:35:50Z</time>
      </trkpt>
      <trkpt lat="43.4674" lon="1.65517">
        <ele>184</ele>
        <time>2018-05-26T10:35:50Z</time>
      </trkpt>
      <trkpt lat="43.4674" lon="1.65523">
        <ele>184</ele>
        <time>2018-05-26T10:36:06Z</time>
      </trkpt>
      <trkpt lat="43.46739" lon="1.6553">
        <ele>184</ele>
        <time>2018-05-26T10:36:06Z</time>
      </trkpt>
      <trkpt lat="43.46739" lon="1.65536">
        <ele>184</ele>
        <time>2018-05-26T10:36:06Z</time>
      </trkpt>
      <trkpt lat="43.46738" lon="1.65542">
        <ele>184</ele>
        <time>2018-05-26T10:36:06Z</time>
      </trkpt>
      <trkpt lat="43.46738" lon="1.65548">
        <ele>184</ele>
        <time>2018-05-26T10:36:22Z</time>
      </trkpt>
      <trkpt lat="43.46737" lon="1.65555">
        <ele>184</ele>
        <time>2018-05-26T10:36:22Z</time>
      </trkpt>
      <trkpt lat="43.46739" lon="1.65564">
        <ele>184</ele>
        <time>2018-05-26T10:36:22Z</time>
      </trkpt>
      <trkpt lat="43.46739" lon="1.65569">
        <ele>184</ele>
        <time>2018-05-26T10:36:22Z</time>
      </trkpt>
      <trkpt lat="43.4674" lon="1.65577">
        <ele>184</ele>
        <time>2018-05-26T10:36:38Z</time>
      </trkpt>
      <trkpt lat="43.4674" lon="1.65584">
        <ele>184</ele>
        <time>2018-05-26T10:36:38Z</time>
      </trkpt>
      <trkpt lat="43.46741" lon="1.65591">
        <ele>184</ele>
        <time>2018-05-26T10:36:38Z</time>
      </trkpt>
      <trkpt lat="43.46741" lon="1.65599">
        <ele>184</ele>
        <time>2018-05-26T10:36:38Z</time>
      </trkpt>
      <trkpt lat="43.46742" lon="1.65607">
        <ele>184</ele>
        <time>2018-05-26T10:36:54Z</time>
      </trkpt>
      <trkpt lat="43.46742" lon="1.65615">
        <ele>184</ele>
        <time>2018-05-26T10:36:54Z</time>
      </trkpt>
      <trkpt lat="43.46741" lon="1.6562">
        <ele>184</ele>
        <time>2018-05-26T10:36:54Z</time>
      </trkpt>
      <trkpt lat="43.4674" lon="1.65626">
        <ele>183</ele>
        <time>2018-05-26T10:36:54Z</time>
      </trkpt>
      <trkpt lat="43.46741" lon="1.65633">
        <ele>183</ele>
        <time>2018-05-26T10:37:10Z</time>
      </trkpt>
      <trkpt lat="43.46741" lon="1.6564">
        <ele>183</ele>
        <time>2018-05-26T10:37:10Z</time>
      </trkpt>
      <trkpt lat="43.4674" lon="1.65648">
        <ele>183</ele>
        <time>2018-05-26T10:37:10Z</time>
      </trkpt>
      <trkpt lat="43.4674" lon="1.65656">
        <ele>183</ele>
        <time>2018-05-26T10:37:10Z</time>
      </trkpt>
      <trkpt lat="43.46741" lon="1.65664">
        <ele>183</ele>
        <time>2018-05-26T10:37:27Z</time>
      </trkpt>
      <trkpt lat="43.46741" lon="1.65672">
        <ele>183</ele>
        <time>2018-05-26T10:37:27Z</time>
      </trkpt>
      <trkpt lat="43.46741" lon="1.65678">
        <ele>183</ele>
        <time>2018-05-26T10:37:27Z</time>
      </trkpt>
      <trkpt lat="43.46741" lon="1.65687">
        <ele>183</ele>
        <time>2018-05-26T10:37:27Z</time>
      </trkpt>
      <trkpt lat="43.46741" lon="1.65693">
        <ele>183</ele>
        <time>2018-05-26T10:37:42Z</time>
      </trkpt>
      <trkpt lat="43.46741" lon="1.657">
        <ele>183</ele>
        <time>2018-05-26T10:37:42Z</time>
      </trkpt>
      <trkpt lat="43.46742" lon="1.65707">
        <ele>183</ele>
        <time>2018-05-26T10:37:42Z</time>
      </trkpt>
      <trkpt lat="43.46743" lon="1.65712">
        <ele>184</ele>
        <time>2018-05-26T10:37:42Z</time>
      </trkpt>
      <trkpt lat="43.46743" lon="1.6572">
        <ele>184</ele>
        <time>2018-05-26T10:37:59Z</time>
      </trkpt>
      <trkpt lat="43.46743" lon="1.65727">
        <ele>184</ele>
        <time>2018-05-26T10:37:59Z</time>
      </trkpt>
      <trkpt lat="43.46743" lon="1.65735">
        <ele>184</ele>
        <time>2018-05-26T10:37:59Z</time>
      </trkpt>
      <trkpt lat="43.4674" lon="1.65744">
        <ele>184</ele>
        <time>2018-05-26T10:37:59Z</time>
      </trkpt>
      <trkpt lat="43.46739" lon="1.6575">
        <ele>184</ele>
        <time>2018-05-26T10:38:14Z</time>
      </trkpt>
      <trkpt lat="43.46736" lon="1.65758">
        <ele>184</ele>
        <time>2018-05-26T10:38:14Z</time>
      </trkpt>
      <trkpt lat="43.46735" lon="1.65764">
        <ele>184</ele>
        <time>2018-05-26T10:38:14Z</time>
      </trkpt>
      <trkpt lat="43.46734" lon="1.65772">
        <ele>184</ele>
        <time>2018-05-26T10:38:14Z</time>
      </trkpt>
      <trkpt lat="43.46735" lon="1.65781">
        <ele>184</ele>
        <time>2018-05-26T10:38:42Z</time>
      </trkpt>
      <trkpt lat="43.46735" lon="1.65781">
        <ele>184</ele>
        <time>2018-05-26T10:38:42Z</time>
      </trkpt>
      <trkpt lat="43.46736" lon="1.65786">
        <ele>184</ele>
        <time>2018-05-26T10:38:42Z</time>
      </trkpt>
      <trkpt lat="43.46737" lon="1.65793">
        <ele>184</ele>
        <time>2018-05-26T10:38:42Z</time>
      </trkpt>
      <trkpt lat="43.46738" lon="1.658">
        <ele>184</ele>
        <time>2018-05-26T10:38:42Z</time>
      </trkpt>
      <trkpt lat="43.46741" lon="1.65807">
        <ele>184</ele>
        <time>2018-05-26T10:38:58Z</time>
      </trkpt>
      <trkpt lat="43.46744" lon="1.65813">
        <ele>184</ele>
        <time>2018-05-26T10:38:58Z</time>
      </trkpt>
      <trkpt lat="43.46749" lon="1.65818">
        <ele>184</ele>
        <time>2018-05-26T10:38:58Z</time>
      </trkpt>
      <trkpt lat="43.46753" lon="1.65822">
        <ele>185</ele>
        <time>2018-05-26T10:38:58Z</time>
      </trkpt>
      <trkpt lat="43.46756" lon="1.65826">
        <ele>185</ele>
        <time>2018-05-26T10:39:14Z</time>
      </trkpt>
      <trkpt lat="43.4676" lon="1.65832">
        <ele>185</ele>
        <time>2018-05-26T10:39:14Z</time>
      </trkpt>
      <trkpt lat="43.46763" lon="1.65837">
        <ele>185</ele>
        <time>2018-05-26T10:39:14Z</time>
      </trkpt>
      <trkpt lat="43.46766" lon="1.65843">
        <ele>185</ele>
        <time>2018-05-26T10:39:14Z</time>
      </trkpt>
      <trkpt lat="43.46768" lon="1.65849">
        <ele>185</ele>
        <time>2018-05-26T10:39:30Z</time>
      </trkpt>
      <trkpt lat="43.46772" lon="1.65855">
        <ele>186</ele>
        <time>2018-05-26T10:39:30Z</time>
      </trkpt>
      <trkpt lat="43.46775" lon="1.65862">
        <ele>186</ele>
        <time>2018-05-26T10:39:30Z</time>
      </trkpt>
      <trkpt lat="43.46778" lon="1.65866">
        <ele>186</ele>
        <time>2018-05-26T10:39:30Z</time>
      </trkpt>
      <trkpt lat="43.46781" lon="1.65872">
        <ele>186</ele>
        <time>2018-05-26T10:39:46Z</time>
      </trkpt>
      <trkpt lat="43.46783" lon="1.6588">
        <ele>186</ele>
        <time>2018-05-26T10:39:46Z</time>
      </trkpt>
      <trkpt lat="43.46785" lon="1.65884">
        <ele>186</ele>
        <time>2018-05-26T10:39:46Z</time>
      </trkpt>
      <trkpt lat="43.46788" lon="1.65891">
        <ele>186</ele>
        <time>2018-05-26T10:39:46Z</time>
      </trkpt>
      <trkpt lat="43.46792" lon="1.65898">
        <ele>186</ele>
        <time>2018-05-26T10:40:02Z</time>
      </trkpt>
      <trkpt lat="43.46795" lon="1.65902">
        <ele>186</ele>
        <time>2018-05-26T10:40:02Z</time>
      </trkpt>
      <trkpt lat="43.46798" lon="1.65908">
        <ele>186</ele>
        <time>2018-05-26T10:40:02Z</time>
      </trkpt>
      <trkpt lat="43.46802" lon="1.65915">
        <ele>186</ele>
        <time>2018-05-26T10:40:02Z</time>
      </trkpt>
      <trkpt lat="43.46805" lon="1.65921">
        <ele>186</ele>
        <time>2018-05-26T10:40:18Z</time>
      </trkpt>
      <trkpt lat="43.46809" lon="1.65927">
        <ele>186</ele>
        <time>2018-05-26T10:40:18Z</time>
      </trkpt>
      <trkpt lat="43.46812" lon="1.65932">
        <ele>186</ele>
        <time>2018-05-26T10:40:18Z</time>
      </trkpt>
      <trkpt lat="43.46816" lon="1.65938">
        <ele>186</ele>
        <time>2018-05-26T10:40:18Z</time>
      </trkpt>
      <trkpt lat="43.46819" lon="1.65944">
        <ele>186</ele>
        <time>2018-05-26T10:40:34Z</time>
      </trkpt>
      <trkpt lat="43.46823" lon="1.6595">
        <ele>186</ele>
        <time>2018-05-26T10:40:34Z</time>
      </trkpt>
      <trkpt lat="43.46827" lon="1.65956">
        <ele>186</ele>
        <time>2018-05-26T10:40:34Z</time>
      </trkpt>
      <trkpt lat="43.4683" lon="1.65963">
        <ele>185</ele>
        <time>2018-05-26T10:40:34Z</time>
      </trkpt>
      <trkpt lat="43.46833" lon="1.6597">
        <ele>185</ele>
        <time>2018-05-26T10:40:50Z</time>
      </trkpt>
      <trkpt lat="43.46835" lon="1.65978">
        <ele>188</ele>
        <time>2018-05-26T10:40:50Z</time>
      </trkpt>
      <trkpt lat="43.46837" lon="1.65983">
        <ele>188</ele>
        <time>2018-05-26T10:40:50Z</time>
      </trkpt>
      <trkpt lat="43.46839" lon="1.65989">
        <ele>187</ele>
        <time>2018-05-26T10:40:50Z</time>
      </trkpt>
      <trkpt lat="43.4684" lon="1.65996">
        <ele>187</ele>
        <time>2018-05-26T10:41:06Z</time>
      </trkpt>
      <trkpt lat="43.46841" lon="1.66002">
        <ele>186</ele>
        <time>2018-05-26T10:41:06Z</time>
      </trkpt>
      <trkpt lat="43.46843" lon="1.6601">
        <ele>187</ele>
        <time>2018-05-26T10:41:06Z</time>
      </trkpt>
      <trkpt lat="43.46844" lon="1.66014">
        <ele>187</ele>
        <time>2018-05-26T10:41:06Z</time>
      </trkpt>
      <trkpt lat="43.46846" lon="1.66019">
        <ele>187</ele>
        <time>2018-05-26T10:41:22Z</time>
      </trkpt>
      <trkpt lat="43.46849" lon="1.66027">
        <ele>188</ele>
        <time>2018-05-26T10:41:22Z</time>
      </trkpt>
      <trkpt lat="43.4685" lon="1.66032">
        <ele>188</ele>
        <time>2018-05-26T10:41:22Z</time>
      </trkpt>
      <trkpt lat="43.46852" lon="1.66037">
        <ele>188</ele>
        <time>2018-05-26T10:41:22Z</time>
      </trkpt>
      <trkpt lat="43.46855" lon="1.66044">
        <ele>188</ele>
        <time>2018-05-26T10:41:39Z</time>
      </trkpt>
      <trkpt lat="43.46856" lon="1.66049">
        <ele>188</ele>
        <time>2018-05-26T10:41:39Z</time>
      </trkpt>
      <trkpt lat="43.46858" lon="1.66056">
        <ele>188</ele>
        <time>2018-05-26T10:41:39Z</time>
      </trkpt>
      <trkpt lat="43.46859" lon="1.66065">
        <ele>188</ele>
        <time>2018-05-26T10:41:39Z</time>
      </trkpt>
      <trkpt lat="43.4686" lon="1.66069">
        <ele>188</ele>
        <time>2018-05-26T10:41:54Z</time>
      </trkpt>
      <trkpt lat="43.4686" lon="1.66075">
        <ele>188</ele>
        <time>2018-05-26T10:41:54Z</time>
      </trkpt>
      <trkpt lat="43.46858" lon="1.66081">
        <ele>188</ele>
        <time>2018-05-26T10:41:54Z</time>
      </trkpt>
      <trkpt lat="43.46857" lon="1.66089">
        <ele>188</ele>
        <time>2018-05-26T10:41:54Z</time>
      </trkpt>
      <trkpt lat="43.46858" lon="1.66099">
        <ele>188</ele>
        <time>2018-05-26T10:42:11Z</time>
      </trkpt>
      <trkpt lat="43.46861" lon="1.66105">
        <ele>188</ele>
        <time>2018-05-26T10:42:11Z</time>
      </trkpt>
      <trkpt lat="43.46867" lon="1.66108">
        <ele>188</ele>
        <time>2018-05-26T10:42:11Z</time>
      </trkpt>
      <trkpt lat="43.46874" lon="1.66108">
        <ele>188</ele>
        <time>2018-05-26T10:42:11Z</time>
      </trkpt>
      <trkpt lat="43.46878" lon="1.66109">
        <ele>188</ele>
        <time>2018-05-26T10:42:28Z</time>
      </trkpt>
      <trkpt lat="43.46884" lon="1.66107">
        <ele>188</ele>
        <time>2018-05-26T10:42:28Z</time>
      </trkpt>
      <trkpt lat="43.46888" lon="1.66109">
        <ele>188</ele>
        <time>2018-05-26T10:42:28Z</time>
      </trkpt>
      <trkpt lat="43.46894" lon="1.66107">
        <ele>188</ele>
        <time>2018-05-26T10:42:28Z</time>
      </trkpt>
      <trkpt lat="43.46896" lon="1.66107">
        <ele>188</ele>
        <time>2018-05-26T10:42:42Z</time>
      </trkpt>
      <trkpt lat="43.46901" lon="1.66105">
        <ele>188</ele>
        <time>2018-05-26T10:42:42Z</time>
      </trkpt>
      <trkpt lat="43.46906" lon="1.66104">
        <ele>188</ele>
        <time>2018-05-26T10:42:42Z</time>
      </trkpt>
      <trkpt lat="43.46911" lon="1.66103">
        <ele>188</ele>
        <time>2018-05-26T10:42:42Z</time>
      </trkpt>
      <trkpt lat="43.46917" lon="1.66102">
        <ele>192</ele>
        <time>2018-05-26T10:42:58Z</time>
      </trkpt>
      <trkpt lat="43.46921" lon="1.66101">
        <ele>192</ele>
        <time>2018-05-26T10:42:58Z</time>
      </trkpt>
      <trkpt lat="43.46926" lon="1.66098">
        <ele>192</ele>
        <time>2018-05-26T10:42:58Z</time>
      </trkpt>
      <trkpt lat="43.46931" lon="1.66095">
        <ele>193</ele>
        <time>2018-05-26T10:42:58Z</time>
      </trkpt>
      <trkpt lat="43.46935" lon="1.66093">
        <ele>193</ele>
        <time>2018-05-26T10:43:14Z</time>
      </trkpt>
      <trkpt lat="43.4694" lon="1.6609">
        <ele>193</ele>
        <time>2018-05-26T10:43:14Z</time>
      </trkpt>
      <trkpt lat="43.46945" lon="1.66087">
        <ele>194</ele>
        <time>2018-05-26T10:43:14Z</time>
      </trkpt>
      <trkpt lat="43.4695" lon="1.66085">
        <ele>195</ele>
        <time>2018-05-26T10:43:14Z</time>
      </trkpt>
      <trkpt lat="43.46955" lon="1.66083">
        <ele>195</ele>
        <time>2018-05-26T10:43:30Z</time>
      </trkpt>
      <trkpt lat="43.4696" lon="1.66081">
        <ele>196</ele>
        <time>2018-05-26T10:43:30Z</time>
      </trkpt>
      <trkpt lat="43.46964" lon="1.66078">
        <ele>196</ele>
        <time>2018-05-26T10:43:30Z</time>
      </trkpt>
      <trkpt lat="43.46968" lon="1.66074">
        <ele>197</ele>
        <time>2018-05-26T10:43:30Z</time>
      </trkpt>
      <trkpt lat="43.46973" lon="1.66073">
        <ele>197</ele>
        <time>2018-05-26T10:43:46Z</time>
      </trkpt>
      <trkpt lat="43.46976" lon="1.6607">
        <ele>197</ele>
        <time>2018-05-26T10:43:46Z</time>
      </trkpt>
      <trkpt lat="43.4698" lon="1.66067">
        <ele>198</ele>
        <time>2018-05-26T10:43:46Z</time>
      </trkpt>
      <trkpt lat="43.46981" lon="1.66065">
        <ele>198</ele>
        <time>2018-05-26T10:43:46Z</time>
      </trkpt>
      <trkpt lat="43.46986" lon="1.66061">
        <ele>198</ele>
        <time>2018-05-26T10:44:03Z</time>
      </trkpt>
      <trkpt lat="43.4699" lon="1.66059">
        <ele>198</ele>
        <time>2018-05-26T10:44:03Z</time>
      </trkpt>
      <trkpt lat="43.46994" lon="1.66056">
        <ele>198</ele>
        <time>2018-05-26T10:44:03Z</time>
      </trkpt>
      <trkpt lat="43.46998" lon="1.66053">
        <ele>198</ele>
        <time>2018-05-26T10:44:03Z</time>
      </trkpt>
      <trkpt lat="43.47002" lon="1.6605">
        <ele>206</ele>
        <time>2018-05-26T10:44:18Z</time>
      </trkpt>
      <trkpt lat="43.47007" lon="1.66046">
        <ele>206</ele>
        <time>2018-05-26T10:44:18Z</time>
      </trkpt>
      <trkpt lat="43.47011" lon="1.66043">
        <ele>207</ele>
        <time>2018-05-26T10:44:18Z</time>
      </trkpt>
      <trkpt lat="43.47015" lon="1.66043">
        <ele>207</ele>
        <time>2018-05-26T10:44:18Z</time>
      </trkpt>
      <trkpt lat="43.47017" lon="1.66038">
        <ele>207</ele>
        <time>2018-05-26T10:44:35Z</time>
      </trkpt>
      <trkpt lat="43.47021" lon="1.66038">
        <ele>207</ele>
        <time>2018-05-26T10:44:35Z</time>
      </trkpt>
      <trkpt lat="43.47025" lon="1.66036">
        <ele>208</ele>
        <time>2018-05-26T10:44:35Z</time>
      </trkpt>
      <trkpt lat="43.47029" lon="1.66034">
        <ele>208</ele>
        <time>2018-05-26T10:44:35Z</time>
      </trkpt>
      <trkpt lat="43.47033" lon="1.66032">
        <ele>208</ele>
        <time>2018-05-26T10:44:50Z</time>
      </trkpt>
      <trkpt lat="43.47036" lon="1.66031">
        <ele>209</ele>
        <time>2018-05-26T10:44:50Z</time>
      </trkpt>
      <trkpt lat="43.47041" lon="1.66028">
        <ele>209</ele>
        <time>2018-05-26T10:44:50Z</time>
      </trkpt>
      <trkpt lat="43.47045" lon="1.66025">
        <ele>209</ele>
        <time>2018-05-26T10:44:50Z</time>
      </trkpt>
      <trkpt lat="43.47049" lon="1.66021">
        <ele>210</ele>
        <time>2018-05-26T10:45:06Z</time>
      </trkpt>
      <trkpt lat="43.47053" lon="1.6602">
        <ele>210</ele>
        <time>2018-05-26T10:45:06Z</time>
      </trkpt>
      <trkpt lat="43.47057" lon="1.66017">
        <ele>210</ele>
        <time>2018-05-26T10:45:06Z</time>
      </trkpt>
      <trkpt lat="43.4706" lon="1.66014">
        <ele>211</ele>
        <time>2018-05-26T10:45:06Z</time>
      </trkpt>
      <trkpt lat="43.47065" lon="1.66008">
        <ele>211</ele>
        <time>2018-05-26T10:45:22Z</time>
      </trkpt>
      <trkpt lat="43.4707" lon="1.66003">
        <ele>212</ele>
        <time>2018-05-26T10:45:22Z</time>
      </trkpt>
      <trkpt lat="43.47074" lon="1.65999">
        <ele>212</ele>
        <time>2018-05-26T10:45:22Z</time>
      </trkpt>
      <trkpt lat="43.47078" lon="1.65995">
        <ele>212</ele>
        <time>2018-05-26T10:45:22Z</time>
      </trkpt>
      <trkpt lat="43.47083" lon="1.65992">
        <ele>212</ele>
        <time>2018-05-26T10:45:38Z</time>
      </trkpt>
      <trkpt lat="43.47086" lon="1.65989">
        <ele>217</ele>
        <time>2018-05-26T10:45:38Z</time>
      </trkpt>
      <trkpt lat="43.47091" lon="1.65985">
        <ele>217</ele>
        <time>2018-05-26T10:45:38Z</time>
      </trkpt>
      <trkpt lat="43.47095" lon="1.65983">
        <ele>218</ele>
        <time>2018-05-26T10:45:38Z</time>
      </trkpt>
      <trkpt lat="43.47099" lon="1.65982">
        <ele>218</ele>
        <time>2018-05-26T10:45:54Z</time>
      </trkpt>
      <trkpt lat="43.47103" lon="1.6598">
        <ele>219</ele>
        <time>2018-05-26T10:45:54Z</time>
      </trkpt>
      <trkpt lat="43.47107" lon="1.65977">
        <ele>219</ele>
        <time>2018-05-26T10:45:54Z</time>
      </trkpt>
      <trkpt lat="43.47111" lon="1.65975">
        <ele>220</ele>
        <time>2018-05-26T10:45:54Z</time>
      </trkpt>
      <trkpt lat="43.47115" lon="1.6597">
        <ele>220</ele>
        <time>2018-05-26T10:46:10Z</time>
      </trkpt>
      <trkpt lat="43.47118" lon="1.65967">
        <ele>220</ele>
        <time>2018-05-26T10:46:10Z</time>
      </trkpt>
      <trkpt lat="43.47121" lon="1.65964">
        <ele>221</ele>
        <time>2018-05-26T10:46:10Z</time>
      </trkpt>
      <trkpt lat="43.47126" lon="1.65961">
        <ele>221</ele>
        <time>2018-05-26T10:46:10Z</time>
      </trkpt>
      <trkpt lat="43.47131" lon="1.65958">
        <ele>222</ele>
        <time>2018-05-26T10:46:26Z</time>
      </trkpt>
      <trkpt lat="43.47136" lon="1.65957">
        <ele>222</ele>
        <time>2018-05-26T10:46:26Z</time>
      </trkpt>
      <trkpt lat="43.47141" lon="1.65953">
        <ele>222</ele>
        <time>2018-05-26T10:46:26Z</time>
      </trkpt>
      <trkpt lat="43.47145" lon="1.6595">
        <ele>223</ele>
        <time>2018-05-26T10:46:26Z</time>
      </trkpt>
      <trkpt lat="43.4715" lon="1.65947">
        <ele>223</ele>
        <time>2018-05-26T10:46:42Z</time>
      </trkpt>
      <trkpt lat="43.47154" lon="1.65944">
        <ele>223</ele>
        <time>2018-05-26T10:46:42Z</time>
      </trkpt>
      <trkpt lat="43.47158" lon="1.6594">
        <ele>224</ele>
        <time>2018-05-26T10:46:42Z</time>
      </trkpt>
      <trkpt lat="43.47162" lon="1.65936">
        <ele>224</ele>
        <time>2018-05-26T10:46:42Z</time>
      </trkpt>
      <trkpt lat="43.47167" lon="1.65934">
        <ele>230</ele>
        <time>2018-05-26T10:46:58Z</time>
      </trkpt>
      <trkpt lat="43.47173" lon="1.65932">
        <ele>230</ele>
        <time>2018-05-26T10:46:58Z</time>
      </trkpt>
      <trkpt lat="43.47178" lon="1.65932">
        <ele>230</ele>
        <time>2018-05-26T10:46:58Z</time>
      </trkpt>
      <trkpt lat="43.47183" lon="1.65932">
        <ele>230</ele>
        <time>2018-05-26T10:46:58Z</time>
      </trkpt>
      <trkpt lat="43.47187" lon="1.65932">
        <ele>231</ele>
        <time>2018-05-26T10:47:14Z</time>
      </trkpt>
      <trkpt lat="43.47192" lon="1.65934">
        <ele>231</ele>
        <time>2018-05-26T10:47:14Z</time>
      </trkpt>
      <trkpt lat="43.47196" lon="1.65932">
        <ele>231</ele>
        <time>2018-05-26T10:47:14Z</time>
      </trkpt>
      <trkpt lat="43.47201" lon="1.65931">
        <ele>232</ele>
        <time>2018-05-26T10:47:14Z</time>
      </trkpt>
      <trkpt lat="43.47206" lon="1.65929">
        <ele>232</ele>
        <time>2018-05-26T10:47:31Z</time>
      </trkpt>
      <trkpt lat="43.47211" lon="1.65926">
        <ele>232</ele>
        <time>2018-05-26T10:47:31Z</time>
      </trkpt>
      <trkpt lat="43.47216" lon="1.65926">
        <ele>233</ele>
        <time>2018-05-26T10:47:31Z</time>
      </trkpt>
      <trkpt lat="43.47221" lon="1.65924">
        <ele>233</ele>
        <time>2018-05-26T10:47:31Z</time>
      </trkpt>
      <trkpt lat="43.47233" lon="1.65921">
        <ele>234</ele>
        <time>2018-05-26T10:53:22Z</time>
      </trkpt>
      <trkpt lat="43.47233" lon="1.65921">
        <ele>234</ele>
        <time>2018-05-26T10:53:22Z</time>
      </trkpt>
      <trkpt lat="43.47233" lon="1.65921">
        <ele>234</ele>
        <time>2018-05-26T10:53:22Z</time>
      </trkpt>
      <trkpt lat="43.47233" lon="1.6592">
        <ele>234</ele>
        <time>2018-05-26T10:53:22Z</time>
      </trkpt>
      <trkpt lat="43.47236" lon="1.65918">
        <ele>234</ele>
        <time>2018-05-26T10:53:22Z</time>
      </trkpt>
      <trkpt lat="43.4724" lon="1.65915">
        <ele>234</ele>
        <time>2018-05-26T10:53:38Z</time>
      </trkpt>
      <trkpt lat="43.47243" lon="1.65912">
        <ele>234</ele>
        <time>2018-05-26T10:53:38Z</time>
      </trkpt>
      <trkpt lat="43.47246" lon="1.65909">
        <ele>234</ele>
        <time>2018-05-26T10:53:38Z</time>
      </trkpt>
      <trkpt lat="43.47248" lon="1.65904">
        <ele>233</ele>
        <time>2018-05-26T10:53:38Z</time>
      </trkpt>
      <trkpt lat="43.47251" lon="1.659">
        <ele>234</ele>
        <time>2018-05-26T10:53:54Z</time>
      </trkpt>
      <trkpt lat="43.47253" lon="1.65894">
        <ele>234</ele>
        <time>2018-05-26T10:53:54Z</time>
      </trkpt>
      <trkpt lat="43.47255" lon="1.6589">
        <ele>233</ele>
        <time>2018-05-26T10:53:54Z</time>
      </trkpt>
      <trkpt lat="43.47258" lon="1.65885">
        <ele>233</ele>
        <time>2018-05-26T10:53:54Z</time>
      </trkpt>
      <trkpt lat="43.47262" lon="1.6588">
        <ele>233</ele>
        <time>2018-05-26T10:54:10Z</time>
      </trkpt>
      <trkpt lat="43.47265" lon="1.65875">
        <ele>233</ele>
        <time>2018-05-26T10:54:10Z</time>
      </trkpt>
      <trkpt lat="43.47269" lon="1.6587">
        <ele>233</ele>
        <time>2018-05-26T10:54:10Z</time>
      </trkpt>
      <trkpt lat="43.47272" lon="1.65865">
        <ele>233</ele>
        <time>2018-05-26T10:54:10Z</time>
      </trkpt>
      <trkpt lat="43.47274" lon="1.65859">
        <ele>233</ele>
        <time>2018-05-26T10:54:26Z</time>
      </trkpt>
      <trkpt lat="43.47276" lon="1.65856">
        <ele>233</ele>
        <time>2018-05-26T10:54:26Z</time>
      </trkpt>
      <trkpt lat="43.4728" lon="1.65851">
        <ele>232</ele>
        <time>2018-05-26T10:54:26Z</time>
      </trkpt>
      <trkpt lat="43.47283" lon="1.65846">
        <ele>232</ele>
        <time>2018-05-26T10:54:26Z</time>
      </trkpt>
      <trkpt lat="43.47286" lon="1.65838">
        <ele>232</ele>
        <time>2018-05-26T10:54:42Z</time>
      </trkpt>
      <trkpt lat="43.47288" lon="1.65834">
        <ele>232</ele>
        <time>2018-05-26T10:54:42Z</time>
      </trkpt>
      <trkpt lat="43.4729" lon="1.6583">
        <ele>231</ele>
        <time>2018-05-26T10:54:42Z</time>
      </trkpt>
      <trkpt lat="43.47293" lon="1.65823">
        <ele>231</ele>
        <time>2018-05-26T10:54:43Z</time>
      </trkpt>
      <trkpt lat="43.47293" lon="1.65818">
        <ele>231</ele>
        <time>2018-05-26T10:54:58Z</time>
      </trkpt>
      <trkpt lat="43.47296" lon="1.65813">
        <ele>231</ele>
        <time>2018-05-26T10:54:58Z</time>
      </trkpt>
      <trkpt lat="43.47301" lon="1.65807">
        <ele>231</ele>
        <time>2018-05-26T10:54:58Z</time>
      </trkpt>
      <trkpt lat="43.47305" lon="1.65802">
        <ele>231</ele>
        <time>2018-05-26T10:54:58Z</time>
      </trkpt>
      <trkpt lat="43.47309" lon="1.65796">
        <ele>231</ele>
        <time>2018-05-26T10:55:14Z</time>
      </trkpt>
      <trkpt lat="43.47313" lon="1.6579">
        <ele>231</ele>
        <time>2018-05-26T10:55:14Z</time>
      </trkpt>
      <trkpt lat="43.47316" lon="1.65786">
        <ele>231</ele>
        <time>2018-05-26T10:55:14Z</time>
      </trkpt>
      <trkpt lat="43.47319" lon="1.65781">
        <ele>231</ele>
        <time>2018-05-26T10:55:14Z</time>
      </trkpt>
      <trkpt lat="43.47321" lon="1.65776">
        <ele>231</ele>
        <time>2018-05-26T10:55:30Z</time>
      </trkpt>
      <trkpt lat="43.47324" lon="1.65771">
        <ele>230</ele>
        <time>2018-05-26T10:55:30Z</time>
      </trkpt>
      <trkpt lat="43.47328" lon="1.65765">
        <ele>230</ele>
        <time>2018-05-26T10:55:30Z</time>
      </trkpt>
      <trkpt lat="43.4733" lon="1.65761">
        <ele>230</ele>
        <time>2018-05-26T10:55:30Z</time>
      </trkpt>
      <trkpt lat="43.47333" lon="1.65757">
        <ele>230</ele>
        <time>2018-05-26T10:55:46Z</time>
      </trkpt>
      <trkpt lat="43.47336" lon="1.65751">
        <ele>230</ele>
        <time>2018-05-26T10:55:46Z</time>
      </trkpt>
      <trkpt lat="43.47339" lon="1.65745">
        <ele>230</ele>
        <time>2018-05-26T10:55:46Z</time>
      </trkpt>
      <trkpt lat="43.47342" lon="1.65739">
        <ele>230</ele>
        <time>2018-05-26T10:55:46Z</time>
      </trkpt>
      <trkpt lat="43.47345" lon="1.65734">
        <ele>230</ele>
        <time>2018-05-26T10:56:02Z</time>
      </trkpt>
      <trkpt lat="43.47348" lon="1.65729">
        <ele>230</ele>
        <time>2018-05-26T10:56:02Z</time>
      </trkpt>
      <trkpt lat="43.47351" lon="1.65724">
        <ele>230</ele>
        <time>2018-05-26T10:56:02Z</time>
      </trkpt>
      <trkpt lat="43.47354" lon="1.65719">
        <ele>230</ele>
        <time>2018-05-26T10:56:02Z</time>
      </trkpt>
      <trkpt lat="43.47358" lon="1.65712">
        <ele>230</ele>
        <time>2018-05-26T10:56:19Z</time>
      </trkpt>
      <trkpt lat="43.4736" lon="1.65708">
        <ele>230</ele>
        <time>2018-05-26T10:56:19Z</time>
      </trkpt>
      <trkpt lat="43.47362" lon="1.65703">
        <ele>230</ele>
        <time>2018-05-26T10:56:19Z</time>
      </trkpt>
      <trkpt lat="43.47365" lon="1.65696">
        <ele>230</ele>
        <time>2018-05-26T10:56:19Z</time>
      </trkpt>
      <trkpt lat="43.47367" lon="1.65692">
        <ele>230</ele>
        <time>2018-05-26T10:56:34Z</time>
      </trkpt>
      <trkpt lat="43.4737" lon="1.65687">
        <ele>230</ele>
        <time>2018-05-26T10:56:34Z</time>
      </trkpt>
      <trkpt lat="43.47374" lon="1.65681">
        <ele>230</ele>
        <time>2018-05-26T10:56:34Z</time>
      </trkpt>
      <trkpt lat="43.47376" lon="1.65676">
        <ele>230</ele>
        <time>2018-05-26T10:56:34Z</time>
      </trkpt>
      <trkpt lat="43.4738" lon="1.65672">
        <ele>230</ele>
        <time>2018-05-26T10:56:51Z</time>
      </trkpt>
      <trkpt lat="43.47384" lon="1.65667">
        <ele>230</ele>
        <time>2018-05-26T10:56:51Z</time>
      </trkpt>
      <trkpt lat="43.47387" lon="1.65662">
        <ele>229</ele>
        <time>2018-05-26T10:56:51Z</time>
      </trkpt>
      <trkpt lat="43.47391" lon="1.65656">
        <ele>229</ele>
        <time>2018-05-26T10:56:51Z</time>
      </trkpt>
      <trkpt lat="43.47392" lon="1.65652">
        <ele>229</ele>
        <time>2018-05-26T10:57:06Z</time>
      </trkpt>
      <trkpt lat="43.47395" lon="1.65646">
        <ele>229</ele>
        <time>2018-05-26T10:57:06Z</time>
      </trkpt>
      <trkpt lat="43.47398" lon="1.65639">
        <ele>229</ele>
        <time>2018-05-26T10:57:06Z</time>
      </trkpt>
      <trkpt lat="43.47401" lon="1.65635">
        <ele>229</ele>
        <time>2018-05-26T10:57:06Z</time>
      </trkpt>
      <trkpt lat="43.47404" lon="1.6563">
        <ele>229</ele>
        <time>2018-05-26T10:57:22Z</time>
      </trkpt>
      <trkpt lat="43.47407" lon="1.65623">
        <ele>229</ele>
        <time>2018-05-26T10:57:22Z</time>
      </trkpt>
      <trkpt lat="43.4741" lon="1.65619">
        <ele>229</ele>
        <time>2018-05-26T10:57:22Z</time>
      </trkpt>
      <trkpt lat="43.47413" lon="1.65614">
        <ele>229</ele>
        <time>2018-05-26T10:57:22Z</time>
      </trkpt>
      <trkpt lat="43.47416" lon="1.65607">
        <ele>229</ele>
        <time>2018-05-26T10:57:38Z</time>
      </trkpt>
      <trkpt lat="43.47418" lon="1.65602">
        <ele>230</ele>
        <time>2018-05-26T10:57:38Z</time>
      </trkpt>
      <trkpt lat="43.47422" lon="1.65595">
        <ele>230</ele>
        <time>2018-05-26T10:57:38Z</time>
      </trkpt>
      <trkpt lat="43.47424" lon="1.65592">
        <ele>230</ele>
        <time>2018-05-26T10:57:38Z</time>
      </trkpt>
      <trkpt lat="43.47428" lon="1.65588">
        <ele>230</ele>
        <time>2018-05-26T10:57:54Z</time>
      </trkpt>
      <trkpt lat="43.47432" lon="1.65586">
        <ele>230</ele>
        <time>2018-05-26T10:57:54Z</time>
      </trkpt>
      <trkpt lat="43.47438" lon="1.65583">
        <ele>229</ele>
        <time>2018-05-26T10:57:54Z</time>
      </trkpt>
      <trkpt lat="43.47442" lon="1.65582">
        <ele>229</ele>
        <time>2018-05-26T10:57:54Z</time>
      </trkpt>
      <trkpt lat="43.47447" lon="1.65581">
        <ele>229</ele>
        <time>2018-05-26T10:58:10Z</time>
      </trkpt>
      <trkpt lat="43.47452" lon="1.65582">
        <ele>230</ele>
        <time>2018-05-26T10:58:10Z</time>
      </trkpt>
      <trkpt lat="43.47455" lon="1.65584">
        <ele>231</ele>
        <time>2018-05-26T10:58:10Z</time>
      </trkpt>
      <trkpt lat="43.4746" lon="1.65584">
        <ele>231</ele>
        <time>2018-05-26T10:58:10Z</time>
      </trkpt>
      <trkpt lat="43.47465" lon="1.65584">
        <ele>231</ele>
        <time>2018-05-26T10:58:27Z</time>
      </trkpt>
      <trkpt lat="43.47467" lon="1.65584">
        <ele>231</ele>
        <time>2018-05-26T10:58:27Z</time>
      </trkpt>
      <trkpt lat="43.47471" lon="1.65585">
        <ele>231</ele>
        <time>2018-05-26T10:58:27Z</time>
      </trkpt>
      <trkpt lat="43.47478" lon="1.65585">
        <ele>231</ele>
        <time>2018-05-26T10:58:27Z</time>
      </trkpt>
      <trkpt lat="43.47482" lon="1.65585">
        <ele>232</ele>
        <time>2018-05-26T10:58:42Z</time>
      </trkpt>
      <trkpt lat="43.47488" lon="1.65583">
        <ele>231</ele>
        <time>2018-05-26T10:58:42Z</time>
      </trkpt>
      <trkpt lat="43.47493" lon="1.65582">
        <ele>231</ele>
        <time>2018-05-26T10:58:42Z</time>
      </trkpt>
      <trkpt lat="43.47499" lon="1.65584">
        <ele>232</ele>
        <time>2018-05-26T10:58:42Z</time>
      </trkpt>
      <trkpt lat="43.47505" lon="1.65585">
        <ele>233</ele>
        <time>2018-05-26T10:58:59Z</time>
      </trkpt>
      <trkpt lat="43.47508" lon="1.65583">
        <ele>233</ele>
        <time>2018-05-26T10:58:59Z</time>
      </trkpt>
      <trkpt lat="43.47513" lon="1.65583">
        <ele>233</ele>
        <time>2018-05-26T10:58:59Z</time>
      </trkpt>
      <trkpt lat="43.47518" lon="1.65584">
        <ele>234</ele>
        <time>2018-05-26T10:58:59Z</time>
      </trkpt>
      <trkpt lat="43.47522" lon="1.65584">
        <ele>234</ele>
        <time>2018-05-26T10:59:14Z</time>
      </trkpt>
      <trkpt lat="43.47525" lon="1.6558">
        <ele>234</ele>
        <time>2018-05-26T10:59:14Z</time>
      </trkpt>
      <trkpt lat="43.4753" lon="1.65575">
        <ele>234</ele>
        <time>2018-05-26T10:59:14Z</time>
      </trkpt>
      <trkpt lat="43.47531" lon="1.65571">
        <ele>234</ele>
        <time>2018-05-26T10:59:14Z</time>
      </trkpt>
      <trkpt lat="43.47531" lon="1.65569">
        <ele>234</ele>
        <time>2018-05-26T10:59:31Z</time>
      </trkpt>
      <trkpt lat="43.47531" lon="1.65565">
        <ele>234</ele>
        <time>2018-05-26T10:59:31Z</time>
      </trkpt>
      <trkpt lat="43.47532" lon="1.65558">
        <ele>234</ele>
        <time>2018-05-26T10:59:31Z</time>
      </trkpt>
      <trkpt lat="43.47533" lon="1.6555">
        <ele>234</ele>
        <time>2018-05-26T10:59:31Z</time>
      </trkpt>
      <trkpt lat="43.47533" lon="1.65545">
        <ele>234</ele>
        <time>2018-05-26T10:59:46Z</time>
      </trkpt>
      <trkpt lat="43.47534" lon="1.65538">
        <ele>234</ele>
        <time>2018-05-26T10:59:46Z</time>
      </trkpt>
      <trkpt lat="43.47535" lon="1.65531">
        <ele>234</ele>
        <time>2018-05-26T10:59:46Z</time>
      </trkpt>
      <trkpt lat="43.47536" lon="1.65527">
        <ele>234</ele>
        <time>2018-05-26T10:59:46Z</time>
      </trkpt>
      <trkpt lat="43.47535" lon="1.65524">
        <ele>234</ele>
        <time>2018-05-26T11:00:02Z</time>
      </trkpt>
      <trkpt lat="43.47537" lon="1.65517">
        <ele>234</ele>
        <time>2018-05-26T11:00:02Z</time>
      </trkpt>
      <trkpt lat="43.47537" lon="1.65509">
        <ele>234</ele>
        <time>2018-05-26T11:00:02Z</time>
      </trkpt>
      <trkpt lat="43.47538" lon="1.65501">
        <ele>234</ele>
        <time>2018-05-26T11:00:02Z</time>
      </trkpt>
      <trkpt lat="43.47543" lon="1.65492">
        <ele>233</ele>
        <time>2018-05-26T11:00:19Z</time>
      </trkpt>
      <trkpt lat="43.47545" lon="1.65486">
        <ele>233</ele>
        <time>2018-05-26T11:00:19Z</time>
      </trkpt>
      <trkpt lat="43.47547" lon="1.65478">
        <ele>233</ele>
        <time>2018-05-26T11:00:19Z</time>
      </trkpt>
      <trkpt lat="43.47547" lon="1.6547">
        <ele>232</ele>
        <time>2018-05-26T11:00:19Z</time>
      </trkpt>
      <trkpt lat="43.47548" lon="1.65465">
        <ele>232</ele>
        <time>2018-05-26T11:00:34Z</time>
      </trkpt>
      <trkpt lat="43.47549" lon="1.65458">
        <ele>232</ele>
        <time>2018-05-26T11:00:34Z</time>
      </trkpt>
      <trkpt lat="43.47551" lon="1.65449">
        <ele>232</ele>
        <time>2018-05-26T11:00:34Z</time>
      </trkpt>
      <trkpt lat="43.47551" lon="1.65445">
        <ele>232</ele>
        <time>2018-05-26T11:00:34Z</time>
      </trkpt>
      <trkpt lat="43.47552" lon="1.65436">
        <ele>232</ele>
        <time>2018-05-26T11:00:51Z</time>
      </trkpt>
      <trkpt lat="43.47553" lon="1.65431">
        <ele>232</ele>
        <time>2018-05-26T11:00:51Z</time>
      </trkpt>
      <trkpt lat="43.47554" lon="1.65425">
        <ele>232</ele>
        <time>2018-05-26T11:00:51Z</time>
      </trkpt>
      <trkpt lat="43.47556" lon="1.65416">
        <ele>231</ele>
        <time>2018-05-26T11:00:51Z</time>
      </trkpt>
      <trkpt lat="43.47557" lon="1.65411">
        <ele>231</ele>
        <time>2018-05-26T11:01:06Z</time>
      </trkpt>
      <trkpt lat="43.47558" lon="1.65403">
        <ele>231</ele>
        <time>2018-05-26T11:01:06Z</time>
      </trkpt>
      <trkpt lat="43.47559" lon="1.65394">
        <ele>231</ele>
        <time>2018-05-26T11:01:06Z</time>
      </trkpt>
      <trkpt lat="43.47561" lon="1.6539">
        <ele>231</ele>
        <time>2018-05-26T11:01:06Z</time>
      </trkpt>
      <trkpt lat="43.47564" lon="1.65383">
        <ele>231</ele>
        <time>2018-05-26T11:01:22Z</time>
      </trkpt>
      <trkpt lat="43.47567" lon="1.65373">
        <ele>230</ele>
        <time>2018-05-26T11:01:22Z</time>
      </trkpt>
      <trkpt lat="43.47567" lon="1.65368">
        <ele>230</ele>
        <time>2018-05-26T11:01:22Z</time>
      </trkpt>
      <trkpt lat="43.47568" lon="1.6536">
        <ele>230</ele>
        <time>2018-05-26T11:01:22Z</time>
      </trkpt>
      <trkpt lat="43.4757" lon="1.65353">
        <ele>231</ele>
        <time>2018-05-26T11:01:38Z</time>
      </trkpt>
      <trkpt lat="43.47572" lon="1.65346">
        <ele>231</ele>
        <time>2018-05-26T11:01:38Z</time>
      </trkpt>
      <trkpt lat="43.47573" lon="1.65337">
        <ele>231</ele>
        <time>2018-05-26T11:01:38Z</time>
      </trkpt>
      <trkpt lat="43.47574" lon="1.65332">
        <ele>231</ele>
        <time>2018-05-26T11:01:38Z</time>
      </trkpt>
      <trkpt lat="43.47576" lon="1.65324">
        <ele>231</ele>
        <time>2018-05-26T11:01:54Z</time>
      </trkpt>
      <trkpt lat="43.47578" lon="1.65315">
        <ele>231</ele>
        <time>2018-05-26T11:01:54Z</time>
      </trkpt>
      <trkpt lat="43.47579" lon="1.6531">
        <ele>231</ele>
        <time>2018-05-26T11:01:54Z</time>
      </trkpt>
      <trkpt lat="43.4758" lon="1.65303">
        <ele>231</ele>
        <time>2018-05-26T11:01:54Z</time>
      </trkpt>
      <trkpt lat="43.47582" lon="1.65296">
        <ele>231</ele>
        <time>2018-05-26T11:02:10Z</time>
      </trkpt>
      <trkpt lat="43.47584" lon="1.65289">
        <ele>234</ele>
        <time>2018-05-26T11:02:10Z</time>
      </trkpt>
      <trkpt lat="43.47582" lon="1.65283">
        <ele>231</ele>
        <time>2018-05-26T11:02:10Z</time>
      </trkpt>
      <trkpt lat="43.4758" lon="1.65279">
        <ele>231</ele>
        <time>2018-05-26T11:02:10Z</time>
      </trkpt>
      <trkpt lat="43.4758" lon="1.65273">
        <ele>231</ele>
        <time>2018-05-26T11:02:26Z</time>
      </trkpt>
      <trkpt lat="43.4758" lon="1.65264">
        <ele>232</ele>
        <time>2018-05-26T11:02:26Z</time>
      </trkpt>
      <trkpt lat="43.47583" lon="1.65257">
        <ele>232</ele>
        <time>2018-05-26T11:02:26Z</time>
      </trkpt>
      <trkpt lat="43.47585" lon="1.6525">
        <ele>233</ele>
        <time>2018-05-26T11:02:26Z</time>
      </trkpt>
      <trkpt lat="43.47587" lon="1.65242">
        <ele>234</ele>
        <time>2018-05-26T11:02:43Z</time>
      </trkpt>
      <trkpt lat="43.47586" lon="1.65237">
        <ele>234</ele>
        <time>2018-05-26T11:02:43Z</time>
      </trkpt>
      <trkpt lat="43.47587" lon="1.65231">
        <ele>235</ele>
        <time>2018-05-26T11:02:43Z</time>
      </trkpt>
      <trkpt lat="43.47588" lon="1.65224">
        <ele>235</ele>
        <time>2018-05-26T11:02:43Z</time>
      </trkpt>
      <trkpt lat="43.47588" lon="1.65217">
        <ele>235</ele>
        <time>2018-05-26T11:02:58Z</time>
      </trkpt>
      <trkpt lat="43.47589" lon="1.6521">
        <ele>236</ele>
        <time>2018-05-26T11:02:58Z</time>
      </trkpt>
      <trkpt lat="43.47592" lon="1.65203">
        <ele>236</ele>
        <time>2018-05-26T11:02:58Z</time>
      </trkpt>
      <trkpt lat="43.47593" lon="1.65196">
        <ele>236</ele>
        <time>2018-05-26T11:02:58Z</time>
      </trkpt>
      <trkpt lat="43.47595" lon="1.65189">
        <ele>236</ele>
        <time>2018-05-26T11:03:14Z</time>
      </trkpt>
      <trkpt lat="43.47598" lon="1.65181">
        <ele>236</ele>
        <time>2018-05-26T11:03:14Z</time>
      </trkpt>
      <trkpt lat="43.47599" lon="1.65174">
        <ele>236</ele>
        <time>2018-05-26T11:03:14Z</time>
      </trkpt>
      <trkpt lat="43.47601" lon="1.65166">
        <ele>236</ele>
        <time>2018-05-26T11:03:14Z</time>
      </trkpt>
      <trkpt lat="43.47604" lon="1.65159">
        <ele>237</ele>
        <time>2018-05-26T11:03:30Z</time>
      </trkpt>
      <trkpt lat="43.47605" lon="1.65152">
        <ele>237</ele>
        <time>2018-05-26T11:03:30Z</time>
      </trkpt>
      <trkpt lat="43.47606" lon="1.65143">
        <ele>237</ele>
        <time>2018-05-26T11:03:30Z</time>
      </trkpt>
      <trkpt lat="43.47607" lon="1.65138">
        <ele>237</ele>
        <time>2018-05-26T11:03:30Z</time>
      </trkpt>
      <trkpt lat="43.47608" lon="1.6513">
        <ele>237</ele>
        <time>2018-05-26T11:03:46Z</time>
      </trkpt>
      <trkpt lat="43.47608" lon="1.65121">
        <ele>237</ele>
        <time>2018-05-26T11:03:46Z</time>
      </trkpt>
      <trkpt lat="43.47608" lon="1.65115">
        <ele>237</ele>
        <time>2018-05-26T11:03:46Z</time>
      </trkpt>
      <trkpt lat="43.4761" lon="1.65107">
        <ele>237</ele>
        <time>2018-05-26T11:03:46Z</time>
      </trkpt>
      <trkpt lat="43.4761" lon="1.65099">
        <ele>237</ele>
        <time>2018-05-26T11:04:02Z</time>
      </trkpt>
      <trkpt lat="43.4761" lon="1.65092">
        <ele>237</ele>
        <time>2018-05-26T11:04:02Z</time>
      </trkpt>
      <trkpt lat="43.4761" lon="1.65085">
        <ele>237</ele>
        <time>2018-05-26T11:04:02Z</time>
      </trkpt>
      <trkpt lat="43.4761" lon="1.65078">
        <ele>236</ele>
        <time>2018-05-26T11:04:02Z</time>
      </trkpt>
      <trkpt lat="43.47611" lon="1.65071">
        <ele>236</ele>
        <time>2018-05-26T11:04:18Z</time>
      </trkpt>
      <trkpt lat="43.47611" lon="1.65063">
        <ele>236</ele>
        <time>2018-05-26T11:04:18Z</time>
      </trkpt>
      <trkpt lat="43.47611" lon="1.65056">
        <ele>236</ele>
        <time>2018-05-26T11:04:18Z</time>
      </trkpt>
      <trkpt lat="43.47611" lon="1.65048">
        <ele>236</ele>
        <time>2018-05-26T11:04:18Z</time>
      </trkpt>
      <trkpt lat="43.47612" lon="1.65041">
        <ele>236</ele>
        <time>2018-05-26T11:04:34Z</time>
      </trkpt>
      <trkpt lat="43.47612" lon="1.65034">
        <ele>236</ele>
        <time>2018-05-26T11:04:34Z</time>
      </trkpt>
      <trkpt lat="43.47613" lon="1.65024">
        <ele>236</ele>
        <time>2018-05-26T11:04:34Z</time>
      </trkpt>
      <trkpt lat="43.47613" lon="1.65019">
        <ele>236</ele>
        <time>2018-05-26T11:04:34Z</time>
      </trkpt>
      <trkpt lat="43.47614" lon="1.65012">
        <ele>236</ele>
        <time>2018-05-26T11:04:50Z</time>
      </trkpt>
      <trkpt lat="43.47615" lon="1.65002">
        <ele>235</ele>
        <time>2018-05-26T11:04:50Z</time>
      </trkpt>
      <trkpt lat="43.47616" lon="1.64996">
        <ele>234</ele>
        <time>2018-05-26T11:04:50Z</time>
      </trkpt>
      <trkpt lat="43.47616" lon="1.64988">
        <ele>234</ele>
        <time>2018-05-26T11:04:50Z</time>
      </trkpt>
      <trkpt lat="43.47617" lon="1.64978">
        <ele>234</ele>
        <time>2018-05-26T11:05:06Z</time>
      </trkpt>
      <trkpt lat="43.47617" lon="1.64971">
        <ele>234</ele>
        <time>2018-05-26T11:05:06Z</time>
      </trkpt>
      <trkpt lat="43.47618" lon="1.64963">
        <ele>234</ele>
        <time>2018-05-26T11:05:06Z</time>
      </trkpt>
      <trkpt lat="43.47618" lon="1.64956">
        <ele>234</ele>
        <time>2018-05-26T11:05:06Z</time>
      </trkpt>
      <trkpt lat="43.47619" lon="1.64949">
        <ele>234</ele>
        <time>2018-05-26T11:05:26Z</time>
      </trkpt>
      <trkpt lat="43.4762" lon="1.64938">
        <ele>234</ele>
        <time>2018-05-26T11:05:26Z</time>
      </trkpt>
      <trkpt lat="43.4762" lon="1.64932">
        <ele>234</ele>
        <time>2018-05-26T11:05:26Z</time>
      </trkpt>
      <trkpt lat="43.47622" lon="1.64925">
        <ele>234</ele>
        <time>2018-05-26T11:05:26Z</time>
      </trkpt>
      <trkpt lat="43.47623" lon="1.64917">
        <ele>234</ele>
        <time>2018-05-26T11:05:43Z</time>
      </trkpt>
      <trkpt lat="43.47624" lon="1.64912">
        <ele>233</ele>
        <time>2018-05-26T11:05:43Z</time>
      </trkpt>
      <trkpt lat="43.47623" lon="1.64906">
        <ele>233</ele>
        <time>2018-05-26T11:05:43Z</time>
      </trkpt>
      <trkpt lat="43.47624" lon="1.64896">
        <ele>234</ele>
        <time>2018-05-26T11:05:43Z</time>
      </trkpt>
      <trkpt lat="43.47625" lon="1.6489">
        <ele>234</ele>
        <time>2018-05-26T11:05:58Z</time>
      </trkpt>
      <trkpt lat="43.47625" lon="1.64881">
        <ele>234</ele>
        <time>2018-05-26T11:05:58Z</time>
      </trkpt>
      <trkpt lat="43.47625" lon="1.64873">
        <ele>234</ele>
        <time>2018-05-26T11:05:58Z</time>
      </trkpt>
      <trkpt lat="43.47625" lon="1.64863">
        <ele>234</ele>
        <time>2018-05-26T11:05:58Z</time>
      </trkpt>
      <trkpt lat="43.47626" lon="1.64856">
        <ele>234</ele>
        <time>2018-05-26T11:06:14Z</time>
      </trkpt>
      <trkpt lat="43.47626" lon="1.64848">
        <ele>234</ele>
        <time>2018-05-26T11:06:14Z</time>
      </trkpt>
      <trkpt lat="43.47626" lon="1.64843">
        <ele>234</ele>
        <time>2018-05-26T11:06:14Z</time>
      </trkpt>
      <trkpt lat="43.47627" lon="1.64837">
        <ele>234</ele>
        <time>2018-05-26T11:06:14Z</time>
      </trkpt>
      <trkpt lat="43.47627" lon="1.64832">
        <ele>236</ele>
        <time>2018-05-26T11:06:30Z</time>
      </trkpt>
      <trkpt lat="43.47629" lon="1.64823">
        <ele>236</ele>
        <time>2018-05-26T11:06:30Z</time>
      </trkpt>
      <trkpt lat="43.4763" lon="1.64817">
        <ele>236</ele>
        <time>2018-05-26T11:06:30Z</time>
      </trkpt>
      <trkpt lat="43.4763" lon="1.64812">
        <ele>236</ele>
        <time>2018-05-26T11:06:30Z</time>
      </trkpt>
      <trkpt lat="43.4763" lon="1.64807">
        <ele>236</ele>
        <time>2018-05-26T11:06:47Z</time>
      </trkpt>
      <trkpt lat="43.47628" lon="1.64802">
        <ele>236</ele>
        <time>2018-05-26T11:06:47Z</time>
      </trkpt>
      <trkpt lat="43.47628" lon="1.64795">
        <ele>236</ele>
        <time>2018-05-26T11:06:47Z</time>
      </trkpt>
      <trkpt lat="43.47629" lon="1.64787">
        <ele>236</ele>
        <time>2018-05-26T11:06:47Z</time>
      </trkpt>
      <trkpt lat="43.47631" lon="1.64784">
        <ele>237</ele>
        <time>2018-05-26T11:07:02Z</time>
      </trkpt>
      <trkpt lat="43.47631" lon="1.64777">
        <ele>237</ele>
        <time>2018-05-26T11:07:02Z</time>
      </trkpt>
      <trkpt lat="43.47632" lon="1.6477">
        <ele>237</ele>
        <time>2018-05-26T11:07:02Z</time>
      </trkpt>
      <trkpt lat="43.47632" lon="1.64764">
        <ele>237</ele>
        <time>2018-05-26T11:07:02Z</time>
      </trkpt>
      <trkpt lat="43.47633" lon="1.64758">
        <ele>237</ele>
        <time>2018-05-26T11:07:18Z</time>
      </trkpt>
      <trkpt lat="43.47634" lon="1.64751">
        <ele>237</ele>
        <time>2018-05-26T11:07:18Z</time>
      </trkpt>
      <trkpt lat="43.47634" lon="1.64746">
        <ele>239</ele>
        <time>2018-05-26T11:07:18Z</time>
      </trkpt>
      <trkpt lat="43.47635" lon="1.6474">
        <ele>239</ele>
        <time>2018-05-26T11:07:18Z</time>
      </trkpt>
      <trkpt lat="43.47635" lon="1.64731">
        <ele>239</ele>
        <time>2018-05-26T11:07:34Z</time>
      </trkpt>
      <trkpt lat="43.47636" lon="1.64725">
        <ele>239</ele>
        <time>2018-05-26T11:07:34Z</time>
      </trkpt>
      <trkpt lat="43.47638" lon="1.64716">
        <ele>239</ele>
        <time>2018-05-26T11:07:34Z</time>
      </trkpt>
      <trkpt lat="43.47639" lon="1.6471">
        <ele>239</ele>
        <time>2018-05-26T11:07:34Z</time>
      </trkpt>
      <trkpt lat="43.4764" lon="1.64704">
        <ele>239</ele>
        <time>2018-05-26T11:07:50Z</time>
      </trkpt>
      <trkpt lat="43.47639" lon="1.64697">
        <ele>239</ele>
        <time>2018-05-26T11:07:50Z</time>
      </trkpt>
      <trkpt lat="43.47639" lon="1.64693">
        <ele>239</ele>
        <time>2018-05-26T11:07:50Z</time>
      </trkpt>
      <trkpt lat="43.47638" lon="1.64689">
        <ele>239</ele>
        <time>2018-05-26T11:07:50Z</time>
      </trkpt>
      <trkpt lat="43.47638" lon="1.64682">
        <ele>239</ele>
        <time>2018-05-26T11:08:06Z</time>
      </trkpt>
      <trkpt lat="43.47639" lon="1.64676">
        <ele>239</ele>
        <time>2018-05-26T11:08:06Z</time>
      </trkpt>
      <trkpt lat="43.47642" lon="1.64668">
        <ele>240</ele>
        <time>2018-05-26T11:08:06Z</time>
      </trkpt>
      <trkpt lat="43.47643" lon="1.64659">
        <ele>240</ele>
        <time>2018-05-26T11:08:06Z</time>
      </trkpt>
      <trkpt lat="43.47642" lon="1.64651">
        <ele>240</ele>
        <time>2018-05-26T11:08:22Z</time>
      </trkpt>
      <trkpt lat="43.47642" lon="1.64644">
        <ele>240</ele>
        <time>2018-05-26T11:08:22Z</time>
      </trkpt>
      <trkpt lat="43.47642" lon="1.64635">
        <ele>239</ele>
        <time>2018-05-26T11:08:22Z</time>
      </trkpt>
      <trkpt lat="43.47642" lon="1.64627">
        <ele>239</ele>
        <time>2018-05-26T11:08:22Z</time>
      </trkpt>
      <trkpt lat="43.47642" lon="1.64615">
        <ele>239</ele>
        <time>2018-05-26T11:08:39Z</time>
      </trkpt>
      <trkpt lat="43.47643" lon="1.64609">
        <ele>239</ele>
        <time>2018-05-26T11:08:39Z</time>
      </trkpt>
      <trkpt lat="43.47643" lon="1.64602">
        <ele>239</ele>
        <time>2018-05-26T11:08:39Z</time>
      </trkpt>
      <trkpt lat="43.47644" lon="1.64594">
        <ele>240</ele>
        <time>2018-05-26T11:08:39Z</time>
      </trkpt>
      <trkpt lat="43.47645" lon="1.64588">
        <ele>240</ele>
        <time>2018-05-26T11:08:54Z</time>
      </trkpt>
      <trkpt lat="43.47646" lon="1.64583">
        <ele>239</ele>
        <time>2018-05-26T11:08:54Z</time>
      </trkpt>
      <trkpt lat="43.47647" lon="1.64577">
        <ele>239</ele>
        <time>2018-05-26T11:08:54Z</time>
      </trkpt>
      <trkpt lat="43.47646" lon="1.64574">
        <ele>239</ele>
        <time>2018-05-26T11:08:54Z</time>
      </trkpt>
      <trkpt lat="43.47647" lon="1.64569">
        <ele>239</ele>
        <time>2018-05-26T11:09:11Z</time>
      </trkpt>
      <trkpt lat="43.47647" lon="1.64564">
        <ele>239</ele>
        <time>2018-05-26T11:09:11Z</time>
      </trkpt>
      <trkpt lat="43.47647" lon="1.64557">
        <ele>239</ele>
        <time>2018-05-26T11:09:11Z</time>
      </trkpt>
      <trkpt lat="43.47648" lon="1.64551">
        <ele>239</ele>
        <time>2018-05-26T11:09:11Z</time>
      </trkpt>
      <trkpt lat="43.47649" lon="1.64544">
        <ele>239</ele>
        <time>2018-05-26T11:09:26Z</time>
      </trkpt>
      <trkpt lat="43.47651" lon="1.64537">
        <ele>239</ele>
        <time>2018-05-26T11:09:26Z</time>
      </trkpt>
      <trkpt lat="43.47652" lon="1.64527">
        <ele>239</ele>
        <time>2018-05-26T11:09:26Z</time>
      </trkpt>
      <trkpt lat="43.47652" lon="1.6452">
        <ele>239</ele>
        <time>2018-05-26T11:09:26Z</time>
      </trkpt>
      <trkpt lat="43.47652" lon="1.64512">
        <ele>239</ele>
        <time>2018-05-26T11:09:42Z</time>
      </trkpt>
      <trkpt lat="43.47652" lon="1.64503">
        <ele>240</ele>
        <time>2018-05-26T11:09:42Z</time>
      </trkpt>
      <trkpt lat="43.47653" lon="1.64497">
        <ele>240</ele>
        <time>2018-05-26T11:09:42Z</time>
      </trkpt>
      <trkpt lat="43.47653" lon="1.6449">
        <ele>240</ele>
        <time>2018-05-26T11:09:42Z</time>
      </trkpt>
      <trkpt lat="43.47655" lon="1.64481">
        <ele>240</ele>
        <time>2018-05-26T11:09:58Z</time>
      </trkpt>
      <trkpt lat="43.47656" lon="1.64475">
        <ele>240</ele>
        <time>2018-05-26T11:09:58Z</time>
      </trkpt>
      <trkpt lat="43.47657" lon="1.64467">
        <ele>240</ele>
        <time>2018-05-26T11:09:58Z</time>
      </trkpt>
      <trkpt lat="43.47658" lon="1.64457">
        <ele>240</ele>
        <time>2018-05-26T11:09:58Z</time>
      </trkpt>
      <trkpt lat="43.47659" lon="1.64446">
        <ele>240</ele>
        <time>2018-05-26T11:10:14Z</time>
      </trkpt>
      <trkpt lat="43.4766" lon="1.6444">
        <ele>240</ele>
        <time>2018-05-26T11:10:14Z</time>
      </trkpt>
      <trkpt lat="43.4766" lon="1.64431">
        <ele>241</ele>
        <time>2018-05-26T11:10:14Z</time>
      </trkpt>
      <trkpt lat="43.4766" lon="1.64427">
        <ele>241</ele>
        <time>2018-05-26T11:10:14Z</time>
      </trkpt>
      <trkpt lat="43.47661" lon="1.64421">
        <ele>242</ele>
        <time>2018-05-26T11:10:30Z</time>
      </trkpt>
      <trkpt lat="43.47662" lon="1.64416">
        <ele>242</ele>
        <time>2018-05-26T11:10:30Z</time>
      </trkpt>
      <trkpt lat="43.47662" lon="1.6441">
        <ele>242</ele>
        <time>2018-05-26T11:10:30Z</time>
      </trkpt>
      <trkpt lat="43.47663" lon="1.64403">
        <ele>242</ele>
        <time>2018-05-26T11:10:30Z</time>
      </trkpt>
      <trkpt lat="43.47664" lon="1.64397">
        <ele>241</ele>
        <time>2018-05-26T11:10:46Z</time>
      </trkpt>
      <trkpt lat="43.47664" lon="1.64389">
        <ele>241</ele>
        <time>2018-05-26T11:10:46Z</time>
      </trkpt>
      <trkpt lat="43.47666" lon="1.64379">
        <ele>241</ele>
        <time>2018-05-26T11:10:46Z</time>
      </trkpt>
      <trkpt lat="43.47666" lon="1.6437">
        <ele>241</ele>
        <time>2018-05-26T11:10:46Z</time>
      </trkpt>
      <trkpt lat="43.47666" lon="1.64365">
        <ele>241</ele>
        <time>2018-05-26T11:11:02Z</time>
      </trkpt>
      <trkpt lat="43.47666" lon="1.64357">
        <ele>242</ele>
        <time>2018-05-26T11:11:02Z</time>
      </trkpt>
      <trkpt lat="43.47665" lon="1.6435">
        <ele>242</ele>
        <time>2018-05-26T11:11:02Z</time>
      </trkpt>
      <trkpt lat="43.47665" lon="1.64343">
        <ele>243</ele>
        <time>2018-05-26T11:11:02Z</time>
      </trkpt>
      <trkpt lat="43.47665" lon="1.64333">
        <ele>244</ele>
        <time>2018-05-26T11:11:19Z</time>
      </trkpt>
      <trkpt lat="43.47665" lon="1.64328">
        <ele>243</ele>
        <time>2018-05-26T11:11:19Z</time>
      </trkpt>
      <trkpt lat="43.47665" lon="1.64319">
        <ele>243</ele>
        <time>2018-05-26T11:11:19Z</time>
      </trkpt>
      <trkpt lat="43.47665" lon="1.64309">
        <ele>242</ele>
        <time>2018-05-26T11:11:19Z</time>
      </trkpt>
      <trkpt lat="43.47665" lon="1.64303">
        <ele>242</ele>
        <time>2018-05-26T11:11:34Z</time>
      </trkpt>
      <trkpt lat="43.47666" lon="1.64294">
        <ele>242</ele>
        <time>2018-05-26T11:11:34Z</time>
      </trkpt>
      <trkpt lat="43.47666" lon="1.6429">
        <ele>242</ele>
        <time>2018-05-26T11:11:34Z</time>
      </trkpt>
      <trkpt lat="43.47666" lon="1.64285">
        <ele>242</ele>
        <time>2018-05-26T11:11:34Z</time>
      </trkpt>
      <trkpt lat="43.47666" lon="1.64277">
        <ele>243</ele>
        <time>2018-05-26T11:11:51Z</time>
      </trkpt>
      <trkpt lat="43.47667" lon="1.64272">
        <ele>243</ele>
        <time>2018-05-26T11:11:51Z</time>
      </trkpt>
      <trkpt lat="43.47667" lon="1.64263">
        <ele>243</ele>
        <time>2018-05-26T11:11:51Z</time>
      </trkpt>
      <trkpt lat="43.47665" lon="1.64251">
        <ele>245</ele>
        <time>2018-05-26T11:11:51Z</time>
      </trkpt>
      <trkpt lat="43.47666" lon="1.64243">
        <ele>244</ele>
        <time>2018-05-26T11:12:06Z</time>
      </trkpt>
      <trkpt lat="43.47666" lon="1.64233">
        <ele>243</ele>
        <time>2018-05-26T11:12:06Z</time>
      </trkpt>
      <trkpt lat="43.47666" lon="1.64225">
        <ele>243</ele>
        <time>2018-05-26T11:12:06Z</time>
      </trkpt>
      <trkpt lat="43.47666" lon="1.64218">
        <ele>243</ele>
        <time>2018-05-26T11:12:06Z</time>
      </trkpt>
      <trkpt lat="43.47666" lon="1.64211">
        <ele>243</ele>
        <time>2018-05-26T11:12:22Z</time>
      </trkpt>
      <trkpt lat="43.47667" lon="1.64206">
        <ele>243</ele>
        <time>2018-05-26T11:12:22Z</time>
      </trkpt>
      <trkpt lat="43.47667" lon="1.64198">
        <ele>243</ele>
        <time>2018-05-26T11:12:22Z</time>
      </trkpt>
      <trkpt lat="43.47668" lon="1.64193">
        <ele>243</ele>
        <time>2018-05-26T11:12:22Z</time>
      </trkpt>
      <trkpt lat="43.47668" lon="1.64189">
        <ele>244</ele>
        <time>2018-05-26T11:12:38Z</time>
      </trkpt>
      <trkpt lat="43.47667" lon="1.64184">
        <ele>244</ele>
        <time>2018-05-26T11:12:38Z</time>
      </trkpt>
      <trkpt lat="43.47668" lon="1.64177">
        <ele>244</ele>
        <time>2018-05-26T11:12:38Z</time>
      </trkpt>
      <trkpt lat="43.47668" lon="1.6417">
        <ele>245</ele>
        <time>2018-05-26T11:12:38Z</time>
      </trkpt>
      <trkpt lat="43.47668" lon="1.64161">
        <ele>245</ele>
        <time>2018-05-26T11:12:54Z</time>
      </trkpt>
      <trkpt lat="43.47668" lon="1.64152">
        <ele>244</ele>
        <time>2018-05-26T11:12:54Z</time>
      </trkpt>
      <trkpt lat="43.47669" lon="1.64143">
        <ele>244</ele>
        <time>2018-05-26T11:12:54Z</time>
      </trkpt>
      <trkpt lat="43.47668" lon="1.64135">
        <ele>244</ele>
        <time>2018-05-26T11:12:54Z</time>
      </trkpt>
      <trkpt lat="43.47668" lon="1.64126">
        <ele>244</ele>
        <time>2018-05-26T11:13:10Z</time>
      </trkpt>
      <trkpt lat="43.47669" lon="1.64117">
        <ele>244</ele>
        <time>2018-05-26T11:13:10Z</time>
      </trkpt>
      <trkpt lat="43.47668" lon="1.64105">
        <ele>245</ele>
        <time>2018-05-26T11:13:10Z</time>
      </trkpt>
      <trkpt lat="43.47669" lon="1.64098">
        <ele>245</ele>
        <time>2018-05-26T11:13:10Z</time>
      </trkpt>
      <trkpt lat="43.47668" lon="1.64089">
        <ele>246</ele>
        <time>2018-05-26T11:13:26Z</time>
      </trkpt>
      <trkpt lat="43.47669" lon="1.64082">
        <ele>247</ele>
        <time>2018-05-26T11:13:26Z</time>
      </trkpt>
      <trkpt lat="43.4767" lon="1.64074">
        <ele>246</ele>
        <time>2018-05-26T11:13:26Z</time>
      </trkpt>
      <trkpt lat="43.47671" lon="1.64067">
        <ele>246</ele>
        <time>2018-05-26T11:13:26Z</time>
      </trkpt>
      <trkpt lat="43.47671" lon="1.64061">
        <ele>246</ele>
        <time>2018-05-26T11:13:42Z</time>
      </trkpt>
      <trkpt lat="43.47672" lon="1.64054">
        <ele>246</ele>
        <time>2018-05-26T11:13:42Z</time>
      </trkpt>
      <trkpt lat="43.47672" lon="1.64046">
        <ele>246</ele>
        <time>2018-05-26T11:13:42Z</time>
      </trkpt>
      <trkpt lat="43.47672" lon="1.64042">
        <ele>246</ele>
        <time>2018-05-26T11:13:42Z</time>
      </trkpt>
      <trkpt lat="43.47672" lon="1.64035">
        <ele>246</ele>
        <time>2018-05-26T11:13:58Z</time>
      </trkpt>
      <trkpt lat="43.47672" lon="1.64026">
        <ele>246</ele>
        <time>2018-05-26T11:13:58Z</time>
      </trkpt>
      <trkpt lat="43.47673" lon="1.6402">
        <ele>246</ele>
        <time>2018-05-26T11:13:58Z</time>
      </trkpt>
      <trkpt lat="43.47675" lon="1.64013">
        <ele>246</ele>
        <time>2018-05-26T11:13:58Z</time>
      </trkpt>
      <trkpt lat="43.47677" lon="1.64007">
        <ele>246</ele>
        <time>2018-05-26T11:14:14Z</time>
      </trkpt>
      <trkpt lat="43.47678" lon="1.64003">
        <ele>246</ele>
        <time>2018-05-26T11:14:14Z</time>
      </trkpt>
      <trkpt lat="43.47672" lon="1.64013">
        <ele>246</ele>
        <time>2018-05-26T11:14:14Z</time>
      </trkpt>
      <trkpt lat="43.47676" lon="1.63995">
        <ele>247</ele>
        <time>2018-05-26T11:14:14Z</time>
      </trkpt>
      <trkpt lat="43.47679" lon="1.63985">
        <ele>246</ele>
        <time>2018-05-26T11:14:30Z</time>
      </trkpt>
      <trkpt lat="43.4768" lon="1.6398">
        <ele>246</ele>
        <time>2018-05-26T11:14:30Z</time>
      </trkpt>
      <trkpt lat="43.47682" lon="1.6397">
        <ele>246</ele>
        <time>2018-05-26T11:14:30Z</time>
      </trkpt>
      <trkpt lat="43.47684" lon="1.63964">
        <ele>246</ele>
        <time>2018-05-26T11:14:30Z</time>
      </trkpt>
      <trkpt lat="43.47685" lon="1.63957">
        <ele>246</ele>
        <time>2018-05-26T11:14:46Z</time>
      </trkpt>
      <trkpt lat="43.47687" lon="1.63949">
        <ele>246</ele>
        <time>2018-05-26T11:14:46Z</time>
      </trkpt>
      <trkpt lat="43.47688" lon="1.63944">
        <ele>246</ele>
        <time>2018-05-26T11:14:46Z</time>
      </trkpt>
      <trkpt lat="43.47689" lon="1.63937">
        <ele>246</ele>
        <time>2018-05-26T11:14:46Z</time>
      </trkpt>
      <trkpt lat="43.47691" lon="1.63927">
        <ele>246</ele>
        <time>2018-05-26T11:15:02Z</time>
      </trkpt>
      <trkpt lat="43.47692" lon="1.63922">
        <ele>246</ele>
        <time>2018-05-26T11:15:02Z</time>
      </trkpt>
      <trkpt lat="43.47693" lon="1.63915">
        <ele>246</ele>
        <time>2018-05-26T11:15:02Z</time>
      </trkpt>
      <trkpt lat="43.47694" lon="1.63907">
        <ele>246</ele>
        <time>2018-05-26T11:15:02Z</time>
      </trkpt>
      <trkpt lat="43.47695" lon="1.639">
        <ele>246</ele>
        <time>2018-05-26T11:15:18Z</time>
      </trkpt>
      <trkpt lat="43.47695" lon="1.63893">
        <ele>246</ele>
        <time>2018-05-26T11:15:18Z</time>
      </trkpt>
      <trkpt lat="43.47696" lon="1.63886">
        <ele>246</ele>
        <time>2018-05-26T11:15:18Z</time>
      </trkpt>
      <trkpt lat="43.47697" lon="1.63879">
        <ele>246</ele>
        <time>2018-05-26T11:15:18Z</time>
      </trkpt>
      <trkpt lat="43.47697" lon="1.63871">
        <ele>246</ele>
        <time>2018-05-26T11:15:35Z</time>
      </trkpt>
      <trkpt lat="43.47697" lon="1.63866">
        <ele>246</ele>
        <time>2018-05-26T11:15:35Z</time>
      </trkpt>
      <trkpt lat="43.47697" lon="1.63859">
        <ele>246</ele>
        <time>2018-05-26T11:15:35Z</time>
      </trkpt>
      <trkpt lat="43.47697" lon="1.63851">
        <ele>245</ele>
        <time>2018-05-26T11:15:35Z</time>
      </trkpt>
      <trkpt lat="43.47697" lon="1.63846">
        <ele>245</ele>
        <time>2018-05-26T11:15:50Z</time>
      </trkpt>
      <trkpt lat="43.47697" lon="1.63839">
        <ele>245</ele>
        <time>2018-05-26T11:15:50Z</time>
      </trkpt>
      <trkpt lat="43.47696" lon="1.6383">
        <ele>245</ele>
        <time>2018-05-26T11:15:50Z</time>
      </trkpt>
      <trkpt lat="43.47694" lon="1.63826">
        <ele>245</ele>
        <time>2018-05-26T11:15:50Z</time>
      </trkpt>
      <trkpt lat="43.47694" lon="1.63818">
        <ele>245</ele>
        <time>2018-05-26T11:16:06Z</time>
      </trkpt>
      <trkpt lat="43.47695" lon="1.63812">
        <ele>245</ele>
        <time>2018-05-26T11:16:06Z</time>
      </trkpt>
      <trkpt lat="43.47695" lon="1.63805">
        <ele>245</ele>
        <time>2018-05-26T11:16:06Z</time>
      </trkpt>
      <trkpt lat="43.47696" lon="1.63798">
        <ele>245</ele>
        <time>2018-05-26T11:16:06Z</time>
      </trkpt>
      <trkpt lat="43.47696" lon="1.63787">
        <ele>245</ele>
        <time>2018-05-26T11:16:23Z</time>
      </trkpt>
      <trkpt lat="43.47695" lon="1.63782">
        <ele>245</ele>
        <time>2018-05-26T11:16:23Z</time>
      </trkpt>
      <trkpt lat="43.47695" lon="1.63774">
        <ele>245</ele>
        <time>2018-05-26T11:16:23Z</time>
      </trkpt>
      <trkpt lat="43.47694" lon="1.63764">
        <ele>245</ele>
        <time>2018-05-26T11:16:23Z</time>
      </trkpt>
      <trkpt lat="43.47694" lon="1.63759">
        <ele>245</ele>
        <time>2018-05-26T11:16:38Z</time>
      </trkpt>
      <trkpt lat="43.47692" lon="1.63754">
        <ele>245</ele>
        <time>2018-05-26T11:16:38Z</time>
      </trkpt>
      <trkpt lat="43.47693" lon="1.63749">
        <ele>245</ele>
        <time>2018-05-26T11:16:38Z</time>
      </trkpt>
      <trkpt lat="43.47694" lon="1.63742">
        <ele>245</ele>
        <time>2018-05-26T11:16:38Z</time>
      </trkpt>
      <trkpt lat="43.47695" lon="1.63735">
        <ele>245</ele>
        <time>2018-05-26T11:16:55Z</time>
      </trkpt>
      <trkpt lat="43.47697" lon="1.63727">
        <ele>245</ele>
        <time>2018-05-26T11:16:55Z</time>
      </trkpt>
      <trkpt lat="43.47697" lon="1.6372">
        <ele>245</ele>
        <time>2018-05-26T11:16:55Z</time>
      </trkpt>
      <trkpt lat="43.47699" lon="1.63713">
        <ele>245</ele>
        <time>2018-05-26T11:16:55Z</time>
      </trkpt>
      <trkpt lat="43.47699" lon="1.6371">
        <ele>245</ele>
        <time>2018-05-26T11:17:10Z</time>
      </trkpt>
      <trkpt lat="43.477" lon="1.63703">
        <ele>245</ele>
        <time>2018-05-26T11:17:10Z</time>
      </trkpt>
      <trkpt lat="43.477" lon="1.63694">
        <ele>245</ele>
        <time>2018-05-26T11:17:10Z</time>
      </trkpt>
      <trkpt lat="43.47701" lon="1.63688">
        <ele>245</ele>
        <time>2018-05-26T11:17:10Z</time>
      </trkpt>
      <trkpt lat="43.47702" lon="1.63678">
        <ele>245</ele>
        <time>2018-05-26T11:17:26Z</time>
      </trkpt>
      <trkpt lat="43.47705" lon="1.63668">
        <ele>245</ele>
        <time>2018-05-26T11:17:26Z</time>
      </trkpt>
      <trkpt lat="43.47706" lon="1.63661">
        <ele>243</ele>
        <time>2018-05-26T11:17:26Z</time>
      </trkpt>
      <trkpt lat="43.47708" lon="1.63653">
        <ele>243</ele>
        <time>2018-05-26T11:17:26Z</time>
      </trkpt>
      <trkpt lat="43.4771" lon="1.63644">
        <ele>243</ele>
        <time>2018-05-26T11:17:42Z</time>
      </trkpt>
      <trkpt lat="43.47712" lon="1.63635">
        <ele>243</ele>
        <time>2018-05-26T11:17:42Z</time>
      </trkpt>
      <trkpt lat="43.47713" lon="1.63628">
        <ele>243</ele>
        <time>2018-05-26T11:17:42Z</time>
      </trkpt>
      <trkpt lat="43.47715" lon="1.63621">
        <ele>243</ele>
        <time>2018-05-26T11:17:42Z</time>
      </trkpt>
      <trkpt lat="43.47716" lon="1.63616">
        <ele>243</ele>
        <time>2018-05-26T11:17:58Z</time>
      </trkpt>
      <trkpt lat="43.47718" lon="1.63611">
        <ele>243</ele>
        <time>2018-05-26T11:17:58Z</time>
      </trkpt>
      <trkpt lat="43.4772" lon="1.63604">
        <ele>243</ele>
        <time>2018-05-26T11:17:58Z</time>
      </trkpt>
      <trkpt lat="43.4772" lon="1.636">
        <ele>243</ele>
        <time>2018-05-26T11:17:58Z</time>
      </trkpt>
      <trkpt lat="43.47727" lon="1.6358">
        <ele>241</ele>
        <time>2018-05-26T11:18:30Z</time>
      </trkpt>
      <trkpt lat="43.47728" lon="1.63577">
        <ele>241</ele>
        <time>2018-05-26T11:18:30Z</time>
      </trkpt>
      <trkpt lat="43.47729" lon="1.63572">
        <ele>241</ele>
        <time>2018-05-26T11:18:30Z</time>
      </trkpt>
      <trkpt lat="43.47731" lon="1.63563">
        <ele>240</ele>
        <time>2018-05-26T11:18:30Z</time>
      </trkpt>
      <trkpt lat="43.47732" lon="1.63558">
        <ele>240</ele>
        <time>2018-05-26T11:18:30Z</time>
      </trkpt>
      <trkpt lat="43.47735" lon="1.63552">
        <ele>240</ele>
        <time>2018-05-26T11:18:46Z</time>
      </trkpt>
      <trkpt lat="43.47737" lon="1.63545">
        <ele>239</ele>
        <time>2018-05-26T11:18:47Z</time>
      </trkpt>
      <trkpt lat="43.47738" lon="1.63539">
        <ele>239</ele>
        <time>2018-05-26T11:18:47Z</time>
      </trkpt>
      <trkpt lat="43.4774" lon="1.63531">
        <ele>239</ele>
        <time>2018-05-26T11:18:47Z</time>
      </trkpt>
      <trkpt lat="43.47742" lon="1.63524">
        <ele>239</ele>
        <time>2018-05-26T11:19:02Z</time>
      </trkpt>
      <trkpt lat="43.47743" lon="1.63519">
        <ele>239</ele>
        <time>2018-05-26T11:19:02Z</time>
      </trkpt>
      <trkpt lat="43.47746" lon="1.63511">
        <ele>240</ele>
        <time>2018-05-26T11:19:02Z</time>
      </trkpt>
      <trkpt lat="43.47748" lon="1.63506">
        <ele>240</ele>
        <time>2018-05-26T11:19:02Z</time>
      </trkpt>
      <trkpt lat="43.4775" lon="1.63498">
        <ele>240</ele>
        <time>2018-05-26T11:19:19Z</time>
      </trkpt>
      <trkpt lat="43.47751" lon="1.63492">
        <ele>241</ele>
        <time>2018-05-26T11:19:19Z</time>
      </trkpt>
      <trkpt lat="43.47754" lon="1.63485">
        <ele>241</ele>
        <time>2018-05-26T11:19:19Z</time>
      </trkpt>
      <trkpt lat="43.47756" lon="1.63477">
        <ele>241</ele>
        <time>2018-05-26T11:19:19Z</time>
      </trkpt>
      <trkpt lat="43.47758" lon="1.63471">
        <ele>241</ele>
        <time>2018-05-26T11:19:34Z</time>
      </trkpt>
      <trkpt lat="43.4776" lon="1.63466">
        <ele>241</ele>
        <time>2018-05-26T11:19:34Z</time>
      </trkpt>
      <trkpt lat="43.47761" lon="1.63458">
        <ele>241</ele>
        <time>2018-05-26T11:19:34Z</time>
      </trkpt>
      <trkpt lat="43.47763" lon="1.63453">
        <ele>240</ele>
        <time>2018-05-26T11:19:34Z</time>
      </trkpt>
      <trkpt lat="43.47764" lon="1.63446">
        <ele>240</ele>
        <time>2018-05-26T11:19:51Z</time>
      </trkpt>
      <trkpt lat="43.47767" lon="1.63437">
        <ele>240</ele>
        <time>2018-05-26T11:19:51Z</time>
      </trkpt>
      <trkpt lat="43.47768" lon="1.63431">
        <ele>239</ele>
        <time>2018-05-26T11:19:51Z</time>
      </trkpt>
      <trkpt lat="43.47771" lon="1.6342">
        <ele>239</ele>
        <time>2018-05-26T11:19:51Z</time>
      </trkpt>
      <trkpt lat="43.47772" lon="1.63415">
        <ele>237</ele>
        <time>2018-05-26T11:20:06Z</time>
      </trkpt>
      <trkpt lat="43.47774" lon="1.63409">
        <ele>237</ele>
        <time>2018-05-26T11:20:06Z</time>
      </trkpt>
      <trkpt lat="43.47776" lon="1.63401">
        <ele>238</ele>
        <time>2018-05-26T11:20:07Z</time>
      </trkpt>
      <trkpt lat="43.47777" lon="1.63394">
        <ele>238</ele>
        <time>2018-05-26T11:20:07Z</time>
      </trkpt>
      <trkpt lat="43.47779" lon="1.63386">
        <ele>238</ele>
        <time>2018-05-26T11:20:22Z</time>
      </trkpt>
      <trkpt lat="43.47781" lon="1.63379">
        <ele>238</ele>
        <time>2018-05-26T11:20:22Z</time>
      </trkpt>
      <trkpt lat="43.47782" lon="1.63373">
        <ele>238</ele>
        <time>2018-05-26T11:20:22Z</time>
      </trkpt>
      <trkpt lat="43.47784" lon="1.63366">
        <ele>238</ele>
        <time>2018-05-26T11:20:22Z</time>
      </trkpt>
      <trkpt lat="43.47785" lon="1.63357">
        <ele>237</ele>
        <time>2018-05-26T11:20:39Z</time>
      </trkpt>
      <trkpt lat="43.47786" lon="1.63352">
        <ele>237</ele>
        <time>2018-05-26T11:20:39Z</time>
      </trkpt>
      <trkpt lat="43.47787" lon="1.63345">
        <ele>237</ele>
        <time>2018-05-26T11:20:39Z</time>
      </trkpt>
      <trkpt lat="43.47789" lon="1.63336">
        <ele>237</ele>
        <time>2018-05-26T11:20:39Z</time>
      </trkpt>
      <trkpt lat="43.47789" lon="1.6333">
        <ele>236</ele>
        <time>2018-05-26T11:20:54Z</time>
      </trkpt>
      <trkpt lat="43.4779" lon="1.63323">
        <ele>236</ele>
        <time>2018-05-26T11:20:54Z</time>
      </trkpt>
      <trkpt lat="43.47791" lon="1.63312">
        <ele>236</ele>
        <time>2018-05-26T11:20:54Z</time>
      </trkpt>
      <trkpt lat="43.47792" lon="1.63306">
        <ele>236</ele>
        <time>2018-05-26T11:20:54Z</time>
      </trkpt>
      <trkpt lat="43.47793" lon="1.63298">
        <ele>236</ele>
        <time>2018-05-26T11:21:11Z</time>
      </trkpt>
      <trkpt lat="43.47795" lon="1.63289">
        <ele>236</ele>
        <time>2018-05-26T11:21:11Z</time>
      </trkpt>
      <trkpt lat="43.47796" lon="1.63284">
        <ele>236</ele>
        <time>2018-05-26T11:21:11Z</time>
      </trkpt>
      <trkpt lat="43.47797" lon="1.63275">
        <ele>237</ele>
        <time>2018-05-26T11:21:11Z</time>
      </trkpt>
      <trkpt lat="43.47798" lon="1.63269">
        <ele>237</ele>
        <time>2018-05-26T11:21:26Z</time>
      </trkpt>
      <trkpt lat="43.47798" lon="1.63261">
        <ele>237</ele>
        <time>2018-05-26T11:21:26Z</time>
      </trkpt>
      <trkpt lat="43.47799" lon="1.63252">
        <ele>237</ele>
        <time>2018-05-26T11:21:26Z</time>
      </trkpt>
      <trkpt lat="43.478" lon="1.63244">
        <ele>238</ele>
        <time>2018-05-26T11:21:26Z</time>
      </trkpt>
      <trkpt lat="43.47801" lon="1.63238">
        <ele>238</ele>
        <time>2018-05-26T11:21:42Z</time>
      </trkpt>
      <trkpt lat="43.47802" lon="1.63232">
        <ele>238</ele>
        <time>2018-05-26T11:21:42Z</time>
      </trkpt>
      <trkpt lat="43.47803" lon="1.63225">
        <ele>238</ele>
        <time>2018-05-26T11:21:42Z</time>
      </trkpt>
      <trkpt lat="43.47803" lon="1.63219">
        <ele>238</ele>
        <time>2018-05-26T11:21:42Z</time>
      </trkpt>
      <trkpt lat="43.47803" lon="1.63212">
        <ele>238</ele>
        <time>2018-05-26T11:21:58Z</time>
      </trkpt>
      <trkpt lat="43.47804" lon="1.63205">
        <ele>238</ele>
        <time>2018-05-26T11:21:58Z</time>
      </trkpt>
      <trkpt lat="43.47803" lon="1.63198">
        <ele>238</ele>
        <time>2018-05-26T11:21:58Z</time>
      </trkpt>
      <trkpt lat="43.47803" lon="1.63191">
        <ele>238</ele>
        <time>2018-05-26T11:21:58Z</time>
      </trkpt>
      <trkpt lat="43.478" lon="1.63184">
        <ele>238</ele>
        <time>2018-05-26T11:24:43Z</time>
      </trkpt>
      <trkpt lat="43.47801" lon="1.63182">
        <ele>239</ele>
        <time>2018-05-26T11:24:43Z</time>
      </trkpt>
      <trkpt lat="43.47802" lon="1.63172">
        <ele>239</ele>
        <time>2018-05-26T11:24:43Z</time>
      </trkpt>
      <trkpt lat="43.478" lon="1.63164">
        <ele>240</ele>
        <time>2018-05-26T11:24:43Z</time>
      </trkpt>
      <trkpt lat="43.47797" lon="1.63156">
        <ele>240</ele>
        <time>2018-05-26T11:24:43Z</time>
      </trkpt>
      <trkpt lat="43.47796" lon="1.63151">
        <ele>240</ele>
        <time>2018-05-26T11:24:58Z</time>
      </trkpt>
      <trkpt lat="43.47794" lon="1.63144">
        <ele>240</ele>
        <time>2018-05-26T11:24:58Z</time>
      </trkpt>
      <trkpt lat="43.47793" lon="1.63139">
        <ele>240</ele>
        <time>2018-05-26T11:24:58Z</time>
      </trkpt>
      <trkpt lat="43.47793" lon="1.63133">
        <ele>240</ele>
        <time>2018-05-26T11:24:58Z</time>
      </trkpt>
      <trkpt lat="43.47792" lon="1.63125">
        <ele>240</ele>
        <time>2018-05-26T11:25:15Z</time>
      </trkpt>
      <trkpt lat="43.47792" lon="1.63121">
        <ele>241</ele>
        <time>2018-05-26T11:25:15Z</time>
      </trkpt>
      <trkpt lat="43.4779" lon="1.63114">
        <ele>241</ele>
        <time>2018-05-26T11:25:15Z</time>
      </trkpt>
      <trkpt lat="43.47788" lon="1.63106">
        <ele>241</ele>
        <time>2018-05-26T11:25:15Z</time>
      </trkpt>
      <trkpt lat="43.47786" lon="1.63101">
        <ele>241</ele>
        <time>2018-05-26T11:25:30Z</time>
      </trkpt>
      <trkpt lat="43.47784" lon="1.63094">
        <ele>241</ele>
        <time>2018-05-26T11:25:30Z</time>
      </trkpt>
      <trkpt lat="43.47782" lon="1.63086">
        <ele>241</ele>
        <time>2018-05-26T11:25:30Z</time>
      </trkpt>
      <trkpt lat="43.4778" lon="1.63081">
        <ele>242</ele>
        <time>2018-05-26T11:25:30Z</time>
      </trkpt>
      <trkpt lat="43.47779" lon="1.63075">
        <ele>242</ele>
        <time>2018-05-26T11:25:46Z</time>
      </trkpt>
      <trkpt lat="43.47777" lon="1.63068">
        <ele>242</ele>
        <time>2018-05-26T11:25:46Z</time>
      </trkpt>
      <trkpt lat="43.47775" lon="1.63061">
        <ele>242</ele>
        <time>2018-05-26T11:25:46Z</time>
      </trkpt>
      <trkpt lat="43.47774" lon="1.63054">
        <ele>242</ele>
        <time>2018-05-26T11:25:46Z</time>
      </trkpt>
      <trkpt lat="43.47771" lon="1.63047">
        <ele>242</ele>
        <time>2018-05-26T11:26:02Z</time>
      </trkpt>
      <trkpt lat="43.4777" lon="1.6304">
        <ele>242</ele>
        <time>2018-05-26T11:26:02Z</time>
      </trkpt>
      <trkpt lat="43.47768" lon="1.63033">
        <ele>242</ele>
        <time>2018-05-26T11:26:02Z</time>
      </trkpt>
      <trkpt lat="43.47767" lon="1.63026">
        <ele>242</ele>
        <time>2018-05-26T11:26:02Z</time>
      </trkpt>
      <trkpt lat="43.47765" lon="1.63018">
        <ele>242</ele>
        <time>2018-05-26T11:26:18Z</time>
      </trkpt>
      <trkpt lat="43.47764" lon="1.63013">
        <ele>243</ele>
        <time>2018-05-26T11:26:18Z</time>
      </trkpt>
      <trkpt lat="43.47762" lon="1.63005">
        <ele>243</ele>
        <time>2018-05-26T11:26:18Z</time>
      </trkpt>
      <trkpt lat="43.47761" lon="1.62999">
        <ele>243</ele>
        <time>2018-05-26T11:26:18Z</time>
      </trkpt>
      <trkpt lat="43.4776" lon="1.62992">
        <ele>243</ele>
        <time>2018-05-26T11:26:34Z</time>
      </trkpt>
      <trkpt lat="43.4776" lon="1.62984">
        <ele>243</ele>
        <time>2018-05-26T11:26:34Z</time>
      </trkpt>
      <trkpt lat="43.47758" lon="1.62975">
        <ele>243</ele>
        <time>2018-05-26T11:26:34Z</time>
      </trkpt>
      <trkpt lat="43.47757" lon="1.6297">
        <ele>243</ele>
        <time>2018-05-26T11:26:34Z</time>
      </trkpt>
      <trkpt lat="43.47755" lon="1.62963">
        <ele>243</ele>
        <time>2018-05-26T11:26:50Z</time>
      </trkpt>
      <trkpt lat="43.47754" lon="1.62954">
        <ele>243</ele>
        <time>2018-05-26T11:26:50Z</time>
      </trkpt>
      <trkpt lat="43.47753" lon="1.62949">
        <ele>243</ele>
        <time>2018-05-26T11:26:50Z</time>
      </trkpt>
      <trkpt lat="43.47751" lon="1.62942">
        <ele>243</ele>
        <time>2018-05-26T11:26:50Z</time>
      </trkpt>
      <trkpt lat="43.47749" lon="1.62935">
        <ele>243</ele>
        <time>2018-05-26T11:27:06Z</time>
      </trkpt>
      <trkpt lat="43.47748" lon="1.62928">
        <ele>243</ele>
        <time>2018-05-26T11:27:06Z</time>
      </trkpt>
      <trkpt lat="43.47746" lon="1.62919">
        <ele>244</ele>
        <time>2018-05-26T11:27:06Z</time>
      </trkpt>
      <trkpt lat="43.47746" lon="1.62914">
        <ele>243</ele>
        <time>2018-05-26T11:27:06Z</time>
      </trkpt>
      <trkpt lat="43.47744" lon="1.62907">
        <ele>243</ele>
        <time>2018-05-26T11:27:22Z</time>
      </trkpt>
      <trkpt lat="43.47743" lon="1.62899">
        <ele>242</ele>
        <time>2018-05-26T11:27:22Z</time>
      </trkpt>
      <trkpt lat="43.47741" lon="1.62894">
        <ele>242</ele>
        <time>2018-05-26T11:27:22Z</time>
      </trkpt>
      <trkpt lat="43.47738" lon="1.62889">
        <ele>242</ele>
        <time>2018-05-26T11:27:22Z</time>
      </trkpt>
      <trkpt lat="43.47738" lon="1.6289">
        <ele>242</ele>
        <time>2018-05-26T11:27:47Z</time>
      </trkpt>
      <trkpt lat="43.47738" lon="1.6289">
        <ele>242</ele>
        <time>2018-05-26T11:27:47Z</time>
      </trkpt>
      <trkpt lat="43.47733" lon="1.62889">
        <ele>242</ele>
        <time>2018-05-26T11:27:47Z</time>
      </trkpt>
      <trkpt lat="43.4773" lon="1.62888">
        <ele>242</ele>
        <time>2018-05-26T11:27:47Z</time>
      </trkpt>
      <trkpt lat="43.47724" lon="1.62884">
        <ele>241</ele>
        <time>2018-05-26T11:27:47Z</time>
      </trkpt>
      <trkpt lat="43.47718" lon="1.62879">
        <ele>241</ele>
        <time>2018-05-26T11:29:51Z</time>
      </trkpt>
      <trkpt lat="43.47717" lon="1.62879">
        <ele>241</ele>
        <time>2018-05-26T11:29:51Z</time>
      </trkpt>
      <trkpt lat="43.47717" lon="1.62879">
        <ele>241</ele>
        <time>2018-05-26T11:29:51Z</time>
      </trkpt>
      <trkpt lat="43.47716" lon="1.62879">
        <ele>241</ele>
        <time>2018-05-26T11:29:51Z</time>
      </trkpt>
      <trkpt lat="43.47713" lon="1.62877">
        <ele>241</ele>
        <time>2018-05-26T11:29:51Z</time>
      </trkpt>
      <trkpt lat="43.4771" lon="1.62874">
        <ele>241</ele>
        <time>2018-05-26T11:30:06Z</time>
      </trkpt>
      <trkpt lat="43.47706" lon="1.62871">
        <ele>241</ele>
        <time>2018-05-26T11:30:06Z</time>
      </trkpt>
      <trkpt lat="43.47701" lon="1.62867">
        <ele>240</ele>
        <time>2018-05-26T11:30:06Z</time>
      </trkpt>
      <trkpt lat="43.47695" lon="1.62863">
        <ele>240</ele>
        <time>2018-05-26T11:30:06Z</time>
      </trkpt>
      <trkpt lat="43.47692" lon="1.6286">
        <ele>240</ele>
        <time>2018-05-26T11:30:22Z</time>
      </trkpt>
      <trkpt lat="43.47689" lon="1.62856">
        <ele>240</ele>
        <time>2018-05-26T11:30:22Z</time>
      </trkpt>
      <trkpt lat="43.47686" lon="1.62853">
        <ele>239</ele>
        <time>2018-05-26T11:30:22Z</time>
      </trkpt>
      <trkpt lat="43.47684" lon="1.62851">
        <ele>239</ele>
        <time>2018-05-26T11:30:22Z</time>
      </trkpt>
      <trkpt lat="43.47681" lon="1.62847">
        <ele>239</ele>
        <time>2018-05-26T11:30:38Z</time>
      </trkpt>
      <trkpt lat="43.47676" lon="1.62843">
        <ele>238</ele>
        <time>2018-05-26T11:30:38Z</time>
      </trkpt>
      <trkpt lat="43.47673" lon="1.62841">
        <ele>238</ele>
        <time>2018-05-26T11:30:38Z</time>
      </trkpt>
      <trkpt lat="43.47669" lon="1.62839">
        <ele>237</ele>
        <time>2018-05-26T11:30:38Z</time>
      </trkpt>
      <trkpt lat="43.47665" lon="1.62838">
        <ele>235</ele>
        <time>2018-05-26T11:30:54Z</time>
      </trkpt>
      <trkpt lat="43.47661" lon="1.62837">
        <ele>235</ele>
        <time>2018-05-26T11:30:54Z</time>
      </trkpt>
      <trkpt lat="43.47656" lon="1.62835">
        <ele>235</ele>
        <time>2018-05-26T11:30:54Z</time>
      </trkpt>
      <trkpt lat="43.47651" lon="1.62835">
        <ele>234</ele>
        <time>2018-05-26T11:30:54Z</time>
      </trkpt>
      <trkpt lat="43.47646" lon="1.62833">
        <ele>232</ele>
        <time>2018-05-26T11:31:10Z</time>
      </trkpt>
      <trkpt lat="43.4764" lon="1.6283">
        <ele>231</ele>
        <time>2018-05-26T11:31:10Z</time>
      </trkpt>
      <trkpt lat="43.47637" lon="1.62828">
        <ele>230</ele>
        <time>2018-05-26T11:31:10Z</time>
      </trkpt>
      <trkpt lat="43.47633" lon="1.62827">
        <ele>230</ele>
        <time>2018-05-26T11:31:10Z</time>
      </trkpt>
      <trkpt lat="43.47627" lon="1.62824">
        <ele>229</ele>
        <time>2018-05-26T11:31:27Z</time>
      </trkpt>
      <trkpt lat="43.47624" lon="1.62822">
        <ele>229</ele>
        <time>2018-05-26T11:31:27Z</time>
      </trkpt>
      <trkpt lat="43.47619" lon="1.6282">
        <ele>228</ele>
        <time>2018-05-26T11:31:27Z</time>
      </trkpt>
      <trkpt lat="43.47614" lon="1.62819">
        <ele>228</ele>
        <time>2018-05-26T11:31:27Z</time>
      </trkpt>
      <trkpt lat="43.47611" lon="1.62818">
        <ele>228</ele>
        <time>2018-05-26T11:31:42Z</time>
      </trkpt>
      <trkpt lat="43.47606" lon="1.62816">
        <ele>227</ele>
        <time>2018-05-26T11:31:42Z</time>
      </trkpt>
      <trkpt lat="43.476" lon="1.62813">
        <ele>227</ele>
        <time>2018-05-26T11:31:42Z</time>
      </trkpt>
      <trkpt lat="43.47597" lon="1.62811">
        <ele>227</ele>
        <time>2018-05-26T11:31:42Z</time>
      </trkpt>
      <trkpt lat="43.47591" lon="1.62809">
        <ele>227</ele>
        <time>2018-05-26T11:31:58Z</time>
      </trkpt>
      <trkpt lat="43.47587" lon="1.62808">
        <ele>226</ele>
        <time>2018-05-26T11:31:58Z</time>
      </trkpt>
      <trkpt lat="43.47581" lon="1.62805">
        <ele>220</ele>
        <time>2018-05-26T11:31:58Z</time>
      </trkpt>
      <trkpt lat="43.47576" lon="1.62803">
        <ele>219</ele>
        <time>2018-05-26T11:31:58Z</time>
      </trkpt>
      <trkpt lat="43.47571" lon="1.628">
        <ele>219</ele>
        <time>2018-05-26T11:32:14Z</time>
      </trkpt>
      <trkpt lat="43.47567" lon="1.62796">
        <ele>219</ele>
        <time>2018-05-26T11:32:15Z</time>
      </trkpt>
      <trkpt lat="43.47563" lon="1.62794">
        <ele>219</ele>
        <time>2018-05-26T11:32:15Z</time>
      </trkpt>
      <trkpt lat="43.47558" lon="1.6279">
        <ele>218</ele>
        <time>2018-05-26T11:32:15Z</time>
      </trkpt>
      <trkpt lat="43.47553" lon="1.62785">
        <ele>218</ele>
        <time>2018-05-26T11:32:30Z</time>
      </trkpt>
      <trkpt lat="43.4755" lon="1.6278">
        <ele>218</ele>
        <time>2018-05-26T11:32:30Z</time>
      </trkpt>
      <trkpt lat="43.47547" lon="1.62773">
        <ele>217</ele>
        <time>2018-05-26T11:32:30Z</time>
      </trkpt>
      <trkpt lat="43.47545" lon="1.62767">
        <ele>217</ele>
        <time>2018-05-26T11:32:30Z</time>
      </trkpt>
      <trkpt lat="43.47543" lon="1.6276">
        <ele>217</ele>
        <time>2018-05-26T11:32:46Z</time>
      </trkpt>
      <trkpt lat="43.47541" lon="1.62752">
        <ele>217</ele>
        <time>2018-05-26T11:32:46Z</time>
      </trkpt>
      <trkpt lat="43.47538" lon="1.62747">
        <ele>216</ele>
        <time>2018-05-26T11:32:46Z</time>
      </trkpt>
      <trkpt lat="43.47536" lon="1.62743">
        <ele>216</ele>
        <time>2018-05-26T11:32:46Z</time>
      </trkpt>
      <trkpt lat="43.47527" lon="1.62732">
        <ele>216</ele>
        <time>2018-05-26T11:33:18Z</time>
      </trkpt>
      <trkpt lat="43.47526" lon="1.62732">
        <ele>215</ele>
        <time>2018-05-26T11:33:18Z</time>
      </trkpt>
      <trkpt lat="43.47526" lon="1.62731">
        <ele>215</ele>
        <time>2018-05-26T11:33:18Z</time>
      </trkpt>
      <trkpt lat="43.47526" lon="1.62729">
        <ele>216</ele>
        <time>2018-05-26T11:33:18Z</time>
      </trkpt>
      <trkpt lat="43.47524" lon="1.62726">
        <ele>215</ele>
        <time>2018-05-26T11:33:18Z</time>
      </trkpt>
      <trkpt lat="43.47521" lon="1.62723">
        <ele>215</ele>
        <time>2018-05-26T11:33:34Z</time>
      </trkpt>
      <trkpt lat="43.47518" lon="1.62721">
        <ele>215</ele>
        <time>2018-05-26T11:33:34Z</time>
      </trkpt>
      <trkpt lat="43.47515" lon="1.62719">
        <ele>215</ele>
        <time>2018-05-26T11:33:34Z</time>
      </trkpt>
      <trkpt lat="43.47511" lon="1.62717">
        <ele>215</ele>
        <time>2018-05-26T11:33:34Z</time>
      </trkpt>
      <trkpt lat="43.47507" lon="1.62714">
        <ele>215</ele>
        <time>2018-05-26T11:33:50Z</time>
      </trkpt>
      <trkpt lat="43.47501" lon="1.6271">
        <ele>215</ele>
        <time>2018-05-26T11:33:50Z</time>
      </trkpt>
      <trkpt lat="43.47497" lon="1.62707">
        <ele>209</ele>
        <time>2018-05-26T11:33:50Z</time>
      </trkpt>
      <trkpt lat="43.47493" lon="1.62703">
        <ele>209</ele>
        <time>2018-05-26T11:33:50Z</time>
      </trkpt>
      <trkpt lat="43.4749" lon="1.62698">
        <ele>209</ele>
        <time>2018-05-26T11:34:06Z</time>
      </trkpt>
      <trkpt lat="43.47487" lon="1.62694">
        <ele>209</ele>
        <time>2018-05-26T11:34:06Z</time>
      </trkpt>
      <trkpt lat="43.47484" lon="1.62692">
        <ele>209</ele>
        <time>2018-05-26T11:34:06Z</time>
      </trkpt>
      <trkpt lat="43.47481" lon="1.62689">
        <ele>209</ele>
        <time>2018-05-26T11:34:06Z</time>
      </trkpt>
      <trkpt lat="43.47478" lon="1.62685">
        <ele>209</ele>
        <time>2018-05-26T11:34:22Z</time>
      </trkpt>
      <trkpt lat="43.47474" lon="1.62681">
        <ele>208</ele>
        <time>2018-05-26T11:34:22Z</time>
      </trkpt>
      <trkpt lat="43.4747" lon="1.62677">
        <ele>208</ele>
        <time>2018-05-26T11:34:22Z</time>
      </trkpt>
      <trkpt lat="43.47465" lon="1.62675">
        <ele>207</ele>
        <time>2018-05-26T11:34:22Z</time>
      </trkpt>
      <trkpt lat="43.47461" lon="1.62672">
        <ele>207</ele>
        <time>2018-05-26T11:34:38Z</time>
      </trkpt>
      <trkpt lat="43.47457" lon="1.62669">
        <ele>207</ele>
        <time>2018-05-26T11:34:38Z</time>
      </trkpt>
      <trkpt lat="43.47453" lon="1.62667">
        <ele>204</ele>
        <time>2018-05-26T11:34:38Z</time>
      </trkpt>
      <trkpt lat="43.47448" lon="1.62663">
        <ele>204</ele>
        <time>2018-05-26T11:34:38Z</time>
      </trkpt>
      <trkpt lat="43.47442" lon="1.62661">
        <ele>203</ele>
        <time>2018-05-26T11:34:54Z</time>
      </trkpt>
      <trkpt lat="43.47436" lon="1.62659">
        <ele>203</ele>
        <time>2018-05-26T11:34:54Z</time>
      </trkpt>
      <trkpt lat="43.47432" lon="1.62657">
        <ele>202</ele>
        <time>2018-05-26T11:34:54Z</time>
      </trkpt>
      <trkpt lat="43.47427" lon="1.62656">
        <ele>202</ele>
        <time>2018-05-26T11:34:54Z</time>
      </trkpt>
      <trkpt lat="43.47423" lon="1.62654">
        <ele>202</ele>
        <time>2018-05-26T11:35:11Z</time>
      </trkpt>
      <trkpt lat="43.47418" lon="1.62653">
        <ele>202</ele>
        <time>2018-05-26T11:35:11Z</time>
      </trkpt>
      <trkpt lat="43.47415" lon="1.62651">
        <ele>197</ele>
        <time>2018-05-26T11:35:11Z</time>
      </trkpt>
      <trkpt lat="43.47412" lon="1.62651">
        <ele>197</ele>
        <time>2018-05-26T11:35:11Z</time>
      </trkpt>
      <trkpt lat="43.47409" lon="1.62652">
        <ele>197</ele>
        <time>2018-05-26T11:35:26Z</time>
      </trkpt>
      <trkpt lat="43.47405" lon="1.62652">
        <ele>197</ele>
        <time>2018-05-26T11:35:26Z</time>
      </trkpt>
      <trkpt lat="43.47401" lon="1.62652">
        <ele>196</ele>
        <time>2018-05-26T11:35:26Z</time>
      </trkpt>
      <trkpt lat="43.47395" lon="1.62651">
        <ele>196</ele>
        <time>2018-05-26T11:35:26Z</time>
      </trkpt>
      <trkpt lat="43.47389" lon="1.6265">
        <ele>195</ele>
        <time>2018-05-26T11:35:43Z</time>
      </trkpt>
      <trkpt lat="43.47385" lon="1.62648">
        <ele>195</ele>
        <time>2018-05-26T11:35:43Z</time>
      </trkpt>
      <trkpt lat="43.4738" lon="1.62647">
        <ele>194</ele>
        <time>2018-05-26T11:35:43Z</time>
      </trkpt>
      <trkpt lat="43.47376" lon="1.62648">
        <ele>194</ele>
        <time>2018-05-26T11:35:43Z</time>
      </trkpt>
      <trkpt lat="43.47371" lon="1.62647">
        <ele>193</ele>
        <time>2018-05-26T11:35:58Z</time>
      </trkpt>
      <trkpt lat="43.47365" lon="1.62646">
        <ele>193</ele>
        <time>2018-05-26T11:35:58Z</time>
      </trkpt>
      <trkpt lat="43.4736" lon="1.62645">
        <ele>193</ele>
        <time>2018-05-26T11:35:58Z</time>
      </trkpt>
      <trkpt lat="43.47355" lon="1.62644">
        <ele>192</ele>
        <time>2018-05-26T11:35:58Z</time>
      </trkpt>
      <trkpt lat="43.4735" lon="1.62642">
        <ele>192</ele>
        <time>2018-05-26T11:36:14Z</time>
      </trkpt>
      <trkpt lat="43.47345" lon="1.62639">
        <ele>192</ele>
        <time>2018-05-26T11:36:14Z</time>
      </trkpt>
      <trkpt lat="43.4734" lon="1.62637">
        <ele>192</ele>
        <time>2018-05-26T11:36:14Z</time>
      </trkpt>
      <trkpt lat="43.47335" lon="1.62636">
        <ele>191</ele>
        <time>2018-05-26T11:36:14Z</time>
      </trkpt>
      <trkpt lat="43.4733" lon="1.62633">
        <ele>189</ele>
        <time>2018-05-26T11:36:30Z</time>
      </trkpt>
      <trkpt lat="43.47325" lon="1.62632">
        <ele>189</ele>
        <time>2018-05-26T11:36:30Z</time>
      </trkpt>
      <trkpt lat="43.47322" lon="1.62631">
        <ele>189</ele>
        <time>2018-05-26T11:36:30Z</time>
      </trkpt>
      <trkpt lat="43.47319" lon="1.62631">
        <ele>189</ele>
        <time>2018-05-26T11:36:30Z</time>
      </trkpt>
      <trkpt lat="43.47314" lon="1.6263">
        <ele>189</ele>
        <time>2018-05-26T11:36:46Z</time>
      </trkpt>
      <trkpt lat="43.47307" lon="1.6263">
        <ele>189</ele>
        <time>2018-05-26T11:36:46Z</time>
      </trkpt>
      <trkpt lat="43.47304" lon="1.62631">
        <ele>189</ele>
        <time>2018-05-26T11:36:46Z</time>
      </trkpt>
      <trkpt lat="43.47301" lon="1.62631">
        <ele>189</ele>
        <time>2018-05-26T11:36:46Z</time>
      </trkpt>
      <trkpt lat="43.47296" lon="1.62632">
        <ele>189</ele>
        <time>2018-05-26T11:37:06Z</time>
      </trkpt>
      <trkpt lat="43.47293" lon="1.62633">
        <ele>189</ele>
        <time>2018-05-26T11:37:06Z</time>
      </trkpt>
      <trkpt lat="43.47289" lon="1.62632">
        <ele>190</ele>
        <time>2018-05-26T11:37:06Z</time>
      </trkpt>
      <trkpt lat="43.47287" lon="1.62629">
        <ele>190</ele>
        <time>2018-05-26T11:37:06Z</time>
      </trkpt>
      <trkpt lat="43.47287" lon="1.62626">
        <ele>190</ele>
        <time>2018-05-26T11:37:06Z</time>
      </trkpt>
      <trkpt lat="43.47289" lon="1.62616">
        <ele>190</ele>
        <time>2018-05-26T11:38:02Z</time>
      </trkpt>
      <trkpt lat="43.4729" lon="1.62616">
        <ele>190</ele>
        <time>2018-05-26T11:38:02Z</time>
      </trkpt>
      <trkpt lat="43.4729" lon="1.62614">
        <ele>190</ele>
        <time>2018-05-26T11:38:02Z</time>
      </trkpt>
      <trkpt lat="43.47289" lon="1.62607">
        <ele>190</ele>
        <time>2018-05-26T11:38:02Z</time>
      </trkpt>
      <trkpt lat="43.47289" lon="1.62599">
        <ele>190</ele>
        <time>2018-05-26T11:38:02Z</time>
      </trkpt>
      <trkpt lat="43.47289" lon="1.62593">
        <ele>190</ele>
        <time>2018-05-26T11:38:18Z</time>
      </trkpt>
      <trkpt lat="43.47289" lon="1.62586">
        <ele>190</ele>
        <time>2018-05-26T11:38:18Z</time>
      </trkpt>
      <trkpt lat="43.4729" lon="1.62581">
        <ele>190</ele>
        <time>2018-05-26T11:38:18Z</time>
      </trkpt>
      <trkpt lat="43.47291" lon="1.62575">
        <ele>190</ele>
        <time>2018-05-26T11:38:18Z</time>
      </trkpt>
      <trkpt lat="43.47293" lon="1.62569">
        <ele>190</ele>
        <time>2018-05-26T11:38:34Z</time>
      </trkpt>
      <trkpt lat="43.47294" lon="1.62562">
        <ele>190</ele>
        <time>2018-05-26T11:38:34Z</time>
      </trkpt>
      <trkpt lat="43.47294" lon="1.62552">
        <ele>190</ele>
        <time>2018-05-26T11:38:34Z</time>
      </trkpt>
      <trkpt lat="43.47295" lon="1.62547">
        <ele>190</ele>
        <time>2018-05-26T11:38:34Z</time>
      </trkpt>
      <trkpt lat="43.47296" lon="1.62537">
        <ele>190</ele>
        <time>2018-05-26T11:38:51Z</time>
      </trkpt>
      <trkpt lat="43.47296" lon="1.62531">
        <ele>190</ele>
        <time>2018-05-26T11:38:51Z</time>
      </trkpt>
      <trkpt lat="43.47297" lon="1.62527">
        <ele>190</ele>
        <time>2018-05-26T11:38:51Z</time>
      </trkpt>
      <trkpt lat="43.47296" lon="1.62519">
        <ele>190</ele>
        <time>2018-05-26T11:38:51Z</time>
      </trkpt>
      <trkpt lat="43.47294" lon="1.62511">
        <ele>190</ele>
        <time>2018-05-26T11:39:06Z</time>
      </trkpt>
      <trkpt lat="43.47293" lon="1.62503">
        <ele>190</ele>
        <time>2018-05-26T11:39:06Z</time>
      </trkpt>
      <trkpt lat="43.47293" lon="1.62495">
        <ele>190</ele>
        <time>2018-05-26T11:39:06Z</time>
      </trkpt>
      <trkpt lat="43.47292" lon="1.62489">
        <ele>189</ele>
        <time>2018-05-26T11:39:06Z</time>
      </trkpt>
      <trkpt lat="43.47291" lon="1.62482">
        <ele>189</ele>
        <time>2018-05-26T11:39:22Z</time>
      </trkpt>
      <trkpt lat="43.47291" lon="1.62476">
        <ele>189</ele>
        <time>2018-05-26T11:39:22Z</time>
      </trkpt>
      <trkpt lat="43.4729" lon="1.62468">
        <ele>189</ele>
        <time>2018-05-26T11:39:22Z</time>
      </trkpt>
      <trkpt lat="43.4729" lon="1.62461">
        <ele>189</ele>
        <time>2018-05-26T11:39:22Z</time>
      </trkpt>
      <trkpt lat="43.4729" lon="1.62453">
        <ele>189</ele>
        <time>2018-05-26T11:39:38Z</time>
      </trkpt>
      <trkpt lat="43.4729" lon="1.62445">
        <ele>189</ele>
        <time>2018-05-26T11:39:38Z</time>
      </trkpt>
      <trkpt lat="43.47291" lon="1.62437">
        <ele>189</ele>
        <time>2018-05-26T11:39:38Z</time>
      </trkpt>
      <trkpt lat="43.47292" lon="1.6243">
        <ele>189</ele>
        <time>2018-05-26T11:39:38Z</time>
      </trkpt>
      <trkpt lat="43.47293" lon="1.62423">
        <ele>189</ele>
        <time>2018-05-26T11:39:54Z</time>
      </trkpt>
      <trkpt lat="43.47293" lon="1.62416">
        <ele>188</ele>
        <time>2018-05-26T11:39:54Z</time>
      </trkpt>
      <trkpt lat="43.47293" lon="1.62409">
        <ele>188</ele>
        <time>2018-05-26T11:39:54Z</time>
      </trkpt>
      <trkpt lat="43.47293" lon="1.62404">
        <ele>188</ele>
        <time>2018-05-26T11:39:54Z</time>
      </trkpt>
      <trkpt lat="43.47293" lon="1.62397">
        <ele>188</ele>
        <time>2018-05-26T11:40:10Z</time>
      </trkpt>
      <trkpt lat="43.47293" lon="1.6239">
        <ele>188</ele>
        <time>2018-05-26T11:40:10Z</time>
      </trkpt>
      <trkpt lat="43.47293" lon="1.62383">
        <ele>188</ele>
        <time>2018-05-26T11:40:10Z</time>
      </trkpt>
      <trkpt lat="43.47294" lon="1.62375">
        <ele>188</ele>
        <time>2018-05-26T11:40:10Z</time>
      </trkpt>
      <trkpt lat="43.47294" lon="1.62368">
        <ele>188</ele>
        <time>2018-05-26T11:40:27Z</time>
      </trkpt>
      <trkpt lat="43.47293" lon="1.6236">
        <ele>188</ele>
        <time>2018-05-26T11:40:27Z</time>
      </trkpt>
      <trkpt lat="43.47293" lon="1.62352">
        <ele>188</ele>
        <time>2018-05-26T11:40:27Z</time>
      </trkpt>
      <trkpt lat="43.47292" lon="1.62346">
        <ele>188</ele>
        <time>2018-05-26T11:40:27Z</time>
      </trkpt>
      <trkpt lat="43.47292" lon="1.6234">
        <ele>187</ele>
        <time>2018-05-26T11:40:42Z</time>
      </trkpt>
      <trkpt lat="43.47293" lon="1.62333">
        <ele>187</ele>
        <time>2018-05-26T11:40:42Z</time>
      </trkpt>
      <trkpt lat="43.47295" lon="1.62327">
        <ele>187</ele>
        <time>2018-05-26T11:40:42Z</time>
      </trkpt>
      <trkpt lat="43.47296" lon="1.62322">
        <ele>186</ele>
        <time>2018-05-26T11:40:42Z</time>
      </trkpt>
      <trkpt lat="43.47296" lon="1.62314">
        <ele>186</ele>
        <time>2018-05-26T11:40:58Z</time>
      </trkpt>
      <trkpt lat="43.47295" lon="1.62306">
        <ele>186</ele>
        <time>2018-05-26T11:40:58Z</time>
      </trkpt>
      <trkpt lat="43.47292" lon="1.62297">
        <ele>186</ele>
        <time>2018-05-26T11:40:58Z</time>
      </trkpt>
      <trkpt lat="43.4729" lon="1.62292">
        <ele>186</ele>
        <time>2018-05-26T11:40:58Z</time>
      </trkpt>
      <trkpt lat="43.47288" lon="1.62285">
        <ele>186</ele>
        <time>2018-05-26T11:41:14Z</time>
      </trkpt>
      <trkpt lat="43.47285" lon="1.62279">
        <ele>186</ele>
        <time>2018-05-26T11:41:14Z</time>
      </trkpt>
      <trkpt lat="43.47282" lon="1.62273">
        <ele>186</ele>
        <time>2018-05-26T11:41:14Z</time>
      </trkpt>
      <trkpt lat="43.47279" lon="1.62269">
        <ele>186</ele>
        <time>2018-05-26T11:41:14Z</time>
      </trkpt>
      <trkpt lat="43.47276" lon="1.62264">
        <ele>186</ele>
        <time>2018-05-26T11:41:30Z</time>
      </trkpt>
      <trkpt lat="43.47274" lon="1.62258">
        <ele>186</ele>
        <time>2018-05-26T11:41:30Z</time>
      </trkpt>
      <trkpt lat="43.47271" lon="1.62253">
        <ele>186</ele>
        <time>2018-05-26T11:41:30Z</time>
      </trkpt>
      <trkpt lat="43.47268" lon="1.62249">
        <ele>185</ele>
        <time>2018-05-26T11:41:31Z</time>
      </trkpt>
      <trkpt lat="43.47264" lon="1.62245">
        <ele>185</ele>
        <time>2018-05-26T11:41:46Z</time>
      </trkpt>
      <trkpt lat="43.4726" lon="1.6224">
        <ele>185</ele>
        <time>2018-05-26T11:41:46Z</time>
      </trkpt>
      <trkpt lat="43.47256" lon="1.62237">
        <ele>185</ele>
        <time>2018-05-26T11:41:46Z</time>
      </trkpt>
      <trkpt lat="43.47252" lon="1.62232">
        <ele>185</ele>
        <time>2018-05-26T11:41:46Z</time>
      </trkpt>
      <trkpt lat="43.47247" lon="1.62228">
        <ele>186</ele>
        <time>2018-05-26T11:42:02Z</time>
      </trkpt>
      <trkpt lat="43.47242" lon="1.62223">
        <ele>186</ele>
        <time>2018-05-26T11:42:02Z</time>
      </trkpt>
      <trkpt lat="43.47239" lon="1.62221">
        <ele>186</ele>
        <time>2018-05-26T11:42:02Z</time>
      </trkpt>
      <trkpt lat="43.47233" lon="1.62216">
        <ele>186</ele>
        <time>2018-05-26T11:42:02Z</time>
      </trkpt>
      <trkpt lat="43.47229" lon="1.62213">
        <ele>186</ele>
        <time>2018-05-26T11:42:18Z</time>
      </trkpt>
      <trkpt lat="43.47223" lon="1.62209">
        <ele>186</ele>
        <time>2018-05-26T11:42:18Z</time>
      </trkpt>
      <trkpt lat="43.4722" lon="1.62208">
        <ele>186</ele>
        <time>2018-05-26T11:42:18Z</time>
      </trkpt>
      <trkpt lat="43.47216" lon="1.62206">
        <ele>186</ele>
        <time>2018-05-26T11:42:18Z</time>
      </trkpt>
      <trkpt lat="43.47212" lon="1.62201">
        <ele>186</ele>
        <time>2018-05-26T11:42:35Z</time>
      </trkpt>
      <trkpt lat="43.4721" lon="1.62198">
        <ele>186</ele>
        <time>2018-05-26T11:42:35Z</time>
      </trkpt>
      <trkpt lat="43.47207" lon="1.62193">
        <ele>186</ele>
        <time>2018-05-26T11:42:35Z</time>
      </trkpt>
      <trkpt lat="43.47204" lon="1.62187">
        <ele>187</ele>
        <time>2018-05-26T11:42:35Z</time>
      </trkpt>
      <trkpt lat="43.47201" lon="1.62185">
        <ele>187</ele>
        <time>2018-05-26T11:42:50Z</time>
      </trkpt>
      <trkpt lat="43.47197" lon="1.62182">
        <ele>187</ele>
        <time>2018-05-26T11:42:50Z</time>
      </trkpt>
      <trkpt lat="43.47191" lon="1.62179">
        <ele>187</ele>
        <time>2018-05-26T11:42:50Z</time>
      </trkpt>
      <trkpt lat="43.47188" lon="1.62176">
        <ele>187</ele>
        <time>2018-05-26T11:42:50Z</time>
      </trkpt>
      <trkpt lat="43.47185" lon="1.6217">
        <ele>187</ele>
        <time>2018-05-26T11:43:06Z</time>
      </trkpt>
      <trkpt lat="43.47181" lon="1.62165">
        <ele>187</ele>
        <time>2018-05-26T11:43:06Z</time>
      </trkpt>
      <trkpt lat="43.47176" lon="1.6216">
        <ele>187</ele>
        <time>2018-05-26T11:43:06Z</time>
      </trkpt>
      <trkpt lat="43.47172" lon="1.62155">
        <ele>187</ele>
        <time>2018-05-26T11:43:06Z</time>
      </trkpt>
      <trkpt lat="43.47169" lon="1.6215">
        <ele>187</ele>
        <time>2018-05-26T11:43:22Z</time>
      </trkpt>
      <trkpt lat="43.47165" lon="1.62146">
        <ele>188</ele>
        <time>2018-05-26T11:43:22Z</time>
      </trkpt>
      <trkpt lat="43.47159" lon="1.62144">
        <ele>188</ele>
        <time>2018-05-26T11:43:22Z</time>
      </trkpt>
      <trkpt lat="43.47154" lon="1.62146">
        <ele>188</ele>
        <time>2018-05-26T11:43:22Z</time>
      </trkpt>
      <trkpt lat="43.47147" lon="1.62147">
        <ele>188</ele>
        <time>2018-05-26T11:43:39Z</time>
      </trkpt>
      <trkpt lat="43.47143" lon="1.62143">
        <ele>188</ele>
        <time>2018-05-26T11:43:39Z</time>
      </trkpt>
      <trkpt lat="43.47138" lon="1.6214">
        <ele>188</ele>
        <time>2018-05-26T11:43:39Z</time>
      </trkpt>
      <trkpt lat="43.47133" lon="1.62135">
        <ele>188</ele>
        <time>2018-05-26T11:43:39Z</time>
      </trkpt>
      <trkpt lat="43.47129" lon="1.62133">
        <ele>188</ele>
        <time>2018-05-26T11:43:54Z</time>
      </trkpt>
      <trkpt lat="43.47125" lon="1.62129">
        <ele>188</ele>
        <time>2018-05-26T11:43:54Z</time>
      </trkpt>
      <trkpt lat="43.4712" lon="1.62126">
        <ele>188</ele>
        <time>2018-05-26T11:43:54Z</time>
      </trkpt>
      <trkpt lat="43.47116" lon="1.62123">
        <ele>188</ele>
        <time>2018-05-26T11:43:54Z</time>
      </trkpt>
      <trkpt lat="43.47111" lon="1.6212">
        <ele>188</ele>
        <time>2018-05-26T11:44:10Z</time>
      </trkpt>
      <trkpt lat="43.47106" lon="1.62119">
        <ele>188</ele>
        <time>2018-05-26T11:44:10Z</time>
      </trkpt>
      <trkpt lat="43.47102" lon="1.62117">
        <ele>188</ele>
        <time>2018-05-26T11:44:10Z</time>
      </trkpt>
      <trkpt lat="43.47099" lon="1.62115">
        <ele>188</ele>
        <time>2018-05-26T11:44:10Z</time>
      </trkpt>
      <trkpt lat="43.47094" lon="1.62113">
        <ele>188</ele>
        <time>2018-05-26T11:44:26Z</time>
      </trkpt>
      <trkpt lat="43.4709" lon="1.62108">
        <ele>187</ele>
        <time>2018-05-26T11:44:26Z</time>
      </trkpt>
      <trkpt lat="43.47085" lon="1.62105">
        <ele>187</ele>
        <time>2018-05-26T11:44:26Z</time>
      </trkpt>
      <trkpt lat="43.47078" lon="1.62101">
        <ele>190</ele>
        <time>2018-05-26T11:44:26Z</time>
      </trkpt>
      <trkpt lat="43.4707" lon="1.62099">
        <ele>190</ele>
        <time>2018-05-26T11:44:42Z</time>
      </trkpt>
      <trkpt lat="43.47065" lon="1.62096">
        <ele>190</ele>
        <time>2018-05-26T11:44:42Z</time>
      </trkpt>
      <trkpt lat="43.47064" lon="1.62092">
        <ele>190</ele>
        <time>2018-05-26T11:44:42Z</time>
      </trkpt>
      <trkpt lat="43.47058" lon="1.62092">
        <ele>191</ele>
        <time>2018-05-26T11:44:42Z</time>
      </trkpt>
      <trkpt lat="43.47055" lon="1.62093">
        <ele>191</ele>
        <time>2018-05-26T11:44:58Z</time>
      </trkpt>
      <trkpt lat="43.47048" lon="1.62093">
        <ele>191</ele>
        <time>2018-05-26T11:44:58Z</time>
      </trkpt>
      <trkpt lat="43.47044" lon="1.62091">
        <ele>192</ele>
        <time>2018-05-26T11:44:58Z</time>
      </trkpt>
      <trkpt lat="43.47038" lon="1.62088">
        <ele>192</ele>
        <time>2018-05-26T11:44:58Z</time>
      </trkpt>
      <trkpt lat="43.47032" lon="1.62086">
        <ele>193</ele>
        <time>2018-05-26T11:45:14Z</time>
      </trkpt>
      <trkpt lat="43.47029" lon="1.62082">
        <ele>194</ele>
        <time>2018-05-26T11:45:14Z</time>
      </trkpt>
      <trkpt lat="43.47022" lon="1.62077">
        <ele>194</ele>
        <time>2018-05-26T11:45:14Z</time>
      </trkpt>
      <trkpt lat="43.47019" lon="1.62075">
        <ele>194</ele>
        <time>2018-05-26T11:45:14Z</time>
      </trkpt>
      <trkpt lat="43.47014" lon="1.62073">
        <ele>195</ele>
        <time>2018-05-26T11:45:30Z</time>
      </trkpt>
      <trkpt lat="43.47007" lon="1.62068">
        <ele>195</ele>
        <time>2018-05-26T11:45:30Z</time>
      </trkpt>
      <trkpt lat="43.47003" lon="1.62065">
        <ele>195</ele>
        <time>2018-05-26T11:45:30Z</time>
      </trkpt>
      <trkpt lat="43.46995" lon="1.62065">
        <ele>199</ele>
        <time>2018-05-26T11:45:30Z</time>
      </trkpt>
      <trkpt lat="43.46989" lon="1.62062">
        <ele>200</ele>
        <time>2018-05-26T11:45:46Z</time>
      </trkpt>
      <trkpt lat="43.46983" lon="1.62056">
        <ele>200</ele>
        <time>2018-05-26T11:45:46Z</time>
      </trkpt>
      <trkpt lat="43.4698" lon="1.62056">
        <ele>200</ele>
        <time>2018-05-26T11:45:46Z</time>
      </trkpt>
      <trkpt lat="43.46975" lon="1.62056">
        <ele>200</ele>
        <time>2018-05-26T11:45:46Z</time>
      </trkpt>
      <trkpt lat="43.46974" lon="1.62055">
        <ele>200</ele>
        <time>2018-05-26T11:46:02Z</time>
      </trkpt>
      <trkpt lat="43.46969" lon="1.62053">
        <ele>201</ele>
        <time>2018-05-26T11:46:02Z</time>
      </trkpt>
      <trkpt lat="43.46964" lon="1.62048">
        <ele>201</ele>
        <time>2018-05-26T11:46:02Z</time>
      </trkpt>
      <trkpt lat="43.46958" lon="1.62044">
        <ele>201</ele>
        <time>2018-05-26T11:46:02Z</time>
      </trkpt>
      <trkpt lat="43.46953" lon="1.62042">
        <ele>202</ele>
        <time>2018-05-26T11:46:18Z</time>
      </trkpt>
      <trkpt lat="43.46948" lon="1.62038">
        <ele>202</ele>
        <time>2018-05-26T11:46:18Z</time>
      </trkpt>
      <trkpt lat="43.46942" lon="1.62035">
        <ele>202</ele>
        <time>2018-05-26T11:46:18Z</time>
      </trkpt>
      <trkpt lat="43.46936" lon="1.62033">
        <ele>202</ele>
        <time>2018-05-26T11:46:18Z</time>
      </trkpt>
      <trkpt lat="43.4693" lon="1.62031">
        <ele>202</ele>
        <time>2018-05-26T11:46:34Z</time>
      </trkpt>
      <trkpt lat="43.46926" lon="1.62031">
        <ele>202</ele>
        <time>2018-05-26T11:46:34Z</time>
      </trkpt>
      <trkpt lat="43.46919" lon="1.62032">
        <ele>203</ele>
        <time>2018-05-26T11:46:34Z</time>
      </trkpt>
      <trkpt lat="43.46918" lon="1.62033">
        <ele>203</ele>
        <time>2018-05-26T11:46:34Z</time>
      </trkpt>
      <trkpt lat="43.46917" lon="1.62033">
        <ele>203</ele>
        <time>2018-05-26T11:46:50Z</time>
      </trkpt>
      <trkpt lat="43.46913" lon="1.62036">
        <ele>205</ele>
        <time>2018-05-26T11:46:50Z</time>
      </trkpt>
      <trkpt lat="43.46911" lon="1.62037">
        <ele>205</ele>
        <time>2018-05-26T11:46:50Z</time>
      </trkpt>
      <trkpt lat="43.46907" lon="1.62041">
        <ele>205</ele>
        <time>2018-05-26T11:46:50Z</time>
      </trkpt>
      <trkpt lat="43.46903" lon="1.62047">
        <ele>205</ele>
        <time>2018-05-26T11:47:06Z</time>
      </trkpt>
      <trkpt lat="43.469" lon="1.6205">
        <ele>205</ele>
        <time>2018-05-26T11:47:06Z</time>
      </trkpt>
      <trkpt lat="43.46895" lon="1.62054">
        <ele>205</ele>
        <time>2018-05-26T11:47:06Z</time>
      </trkpt>
      <trkpt lat="43.46892" lon="1.62056">
        <ele>205</ele>
        <time>2018-05-26T11:47:06Z</time>
      </trkpt>
      <trkpt lat="43.46888" lon="1.6206">
        <ele>205</ele>
        <time>2018-05-26T11:47:22Z</time>
      </trkpt>
      <trkpt lat="43.46882" lon="1.62067">
        <ele>205</ele>
        <time>2018-05-26T11:47:22Z</time>
      </trkpt>
      <trkpt lat="43.46879" lon="1.62073">
        <ele>205</ele>
        <time>2018-05-26T11:47:22Z</time>
      </trkpt>
      <trkpt lat="43.46876" lon="1.62077">
        <ele>206</ele>
        <time>2018-05-26T11:47:22Z</time>
      </trkpt>
      <trkpt lat="43.46871" lon="1.62082">
        <ele>206</ele>
        <time>2018-05-26T11:47:39Z</time>
      </trkpt>
      <trkpt lat="43.46868" lon="1.62086">
        <ele>207</ele>
        <time>2018-05-26T11:47:39Z</time>
      </trkpt>
      <trkpt lat="43.46864" lon="1.6209">
        <ele>207</ele>
        <time>2018-05-26T11:47:39Z</time>
      </trkpt>
      <trkpt lat="43.46861" lon="1.62093">
        <ele>207</ele>
        <time>2018-05-26T11:47:39Z</time>
      </trkpt>
      <trkpt lat="43.46859" lon="1.62096">
        <ele>207</ele>
        <time>2018-05-26T11:47:54Z</time>
      </trkpt>
      <trkpt lat="43.46856" lon="1.62101">
        <ele>207</ele>
        <time>2018-05-26T11:47:54Z</time>
      </trkpt>
      <trkpt lat="43.46854" lon="1.62104">
        <ele>207</ele>
        <time>2018-05-26T11:47:54Z</time>
      </trkpt>
      <trkpt lat="43.46851" lon="1.62111">
        <ele>207</ele>
        <time>2018-05-26T11:47:54Z</time>
      </trkpt>
      <trkpt lat="43.46846" lon="1.62117">
        <ele>207</ele>
        <time>2018-05-26T11:48:10Z</time>
      </trkpt>
      <trkpt lat="43.46842" lon="1.62122">
        <ele>207</ele>
        <time>2018-05-26T11:48:10Z</time>
      </trkpt>
      <trkpt lat="43.46838" lon="1.62127">
        <ele>207</ele>
        <time>2018-05-26T11:48:10Z</time>
      </trkpt>
      <trkpt lat="43.46834" lon="1.62131">
        <ele>207</ele>
        <time>2018-05-26T11:48:10Z</time>
      </trkpt>
      <trkpt lat="43.46829" lon="1.62135">
        <ele>208</ele>
        <time>2018-05-26T11:48:26Z</time>
      </trkpt>
      <trkpt lat="43.46823" lon="1.62136">
        <ele>208</ele>
        <time>2018-05-26T11:48:26Z</time>
      </trkpt>
      <trkpt lat="43.46819" lon="1.6214">
        <ele>208</ele>
        <time>2018-05-26T11:48:26Z</time>
      </trkpt>
      <trkpt lat="43.46816" lon="1.62142">
        <ele>208</ele>
        <time>2018-05-26T11:48:26Z</time>
      </trkpt>
      <trkpt lat="43.4681" lon="1.62145">
        <ele>208</ele>
        <time>2018-05-26T11:48:42Z</time>
      </trkpt>
      <trkpt lat="43.46804" lon="1.62149">
        <ele>208</ele>
        <time>2018-05-26T11:48:42Z</time>
      </trkpt>
      <trkpt lat="43.468" lon="1.62152">
        <ele>208</ele>
        <time>2018-05-26T11:48:42Z</time>
      </trkpt>
      <trkpt lat="43.46795" lon="1.62157">
        <ele>208</ele>
        <time>2018-05-26T11:48:42Z</time>
      </trkpt>
      <trkpt lat="43.4679" lon="1.62163">
        <ele>208</ele>
        <time>2018-05-26T11:48:58Z</time>
      </trkpt>
      <trkpt lat="43.46786" lon="1.62167">
        <ele>208</ele>
        <time>2018-05-26T11:48:58Z</time>
      </trkpt>
      <trkpt lat="43.46781" lon="1.62173">
        <ele>208</ele>
        <time>2018-05-26T11:48:58Z</time>
      </trkpt>
      <trkpt lat="43.46778" lon="1.62176">
        <ele>208</ele>
        <time>2018-05-26T11:48:58Z</time>
      </trkpt>
      <trkpt lat="43.46774" lon="1.62181">
        <ele>207</ele>
        <time>2018-05-26T11:49:14Z</time>
      </trkpt>
      <trkpt lat="43.46771" lon="1.62187">
        <ele>207</ele>
        <time>2018-05-26T11:49:14Z</time>
      </trkpt>
      <trkpt lat="43.46766" lon="1.62191">
        <ele>207</ele>
        <time>2018-05-26T11:49:14Z</time>
      </trkpt>
      <trkpt lat="43.4676" lon="1.62192">
        <ele>207</ele>
        <time>2018-05-26T11:49:14Z</time>
      </trkpt>
      <trkpt lat="43.46756" lon="1.62193">
        <ele>207</ele>
        <time>2018-05-26T11:49:31Z</time>
      </trkpt>
      <trkpt lat="43.46751" lon="1.62194">
        <ele>207</ele>
        <time>2018-05-26T11:49:31Z</time>
      </trkpt>
      <trkpt lat="43.46746" lon="1.62196">
        <ele>208</ele>
        <time>2018-05-26T11:49:31Z</time>
      </trkpt>
      <trkpt lat="43.4674" lon="1.62199">
        <ele>208</ele>
        <time>2018-05-26T11:49:31Z</time>
      </trkpt>
      <trkpt lat="43.46737" lon="1.62201">
        <ele>208</ele>
        <time>2018-05-26T11:49:46Z</time>
      </trkpt>
      <trkpt lat="43.46731" lon="1.62204">
        <ele>208</ele>
        <time>2018-05-26T11:49:46Z</time>
      </trkpt>
      <trkpt lat="43.46728" lon="1.62206">
        <ele>208</ele>
        <time>2018-05-26T11:49:46Z</time>
      </trkpt>
      <trkpt lat="43.46723" lon="1.62208">
        <ele>208</ele>
        <time>2018-05-26T11:49:46Z</time>
      </trkpt>
      <trkpt lat="43.46715" lon="1.62207">
        <ele>209</ele>
        <time>2018-05-26T11:50:02Z</time>
      </trkpt>
      <trkpt lat="43.46711" lon="1.62208">
        <ele>209</ele>
        <time>2018-05-26T11:50:02Z</time>
      </trkpt>
      <trkpt lat="43.46705" lon="1.62209">
        <ele>209</ele>
        <time>2018-05-26T11:50:02Z</time>
      </trkpt>
      <trkpt lat="43.46699" lon="1.62208">
        <ele>209</ele>
        <time>2018-05-26T11:50:02Z</time>
      </trkpt>
      <trkpt lat="43.46694" lon="1.62207">
        <ele>209</ele>
        <time>2018-05-26T11:50:18Z</time>
      </trkpt>
      <trkpt lat="43.46688" lon="1.62205">
        <ele>209</ele>
        <time>2018-05-26T11:50:18Z</time>
      </trkpt>
      <trkpt lat="43.46684" lon="1.62206">
        <ele>209</ele>
        <time>2018-05-26T11:50:18Z</time>
      </trkpt>
      <trkpt lat="43.46679" lon="1.62206">
        <ele>209</ele>
        <time>2018-05-26T11:50:18Z</time>
      </trkpt>
      <trkpt lat="43.46674" lon="1.62205">
        <ele>209</ele>
        <time>2018-05-26T11:50:35Z</time>
      </trkpt>
      <trkpt lat="43.46669" lon="1.62204">
        <ele>209</ele>
        <time>2018-05-26T11:50:35Z</time>
      </trkpt>
      <trkpt lat="43.46664" lon="1.62201">
        <ele>212</ele>
        <time>2018-05-26T11:50:35Z</time>
      </trkpt>
      <trkpt lat="43.46658" lon="1.62198">
        <ele>212</ele>
        <time>2018-05-26T11:50:35Z</time>
      </trkpt>
      <trkpt lat="43.46654" lon="1.62197">
        <ele>212</ele>
        <time>2018-05-26T11:50:50Z</time>
      </trkpt>
      <trkpt lat="43.46649" lon="1.62192">
        <ele>212</ele>
        <time>2018-05-26T11:50:50Z</time>
      </trkpt>
      <trkpt lat="43.46644" lon="1.62187">
        <ele>212</ele>
        <time>2018-05-26T11:50:50Z</time>
      </trkpt>
      <trkpt lat="43.46641" lon="1.62184">
        <ele>212</ele>
        <time>2018-05-26T11:50:50Z</time>
      </trkpt>
      <trkpt lat="43.46642" lon="1.62184">
        <ele>212</ele>
        <time>2018-05-26T11:52:46Z</time>
      </trkpt>
      <trkpt lat="43.4664" lon="1.6218">
        <ele>212</ele>
        <time>2018-05-26T11:52:46Z</time>
      </trkpt>
      <trkpt lat="43.4664" lon="1.62179">
        <ele>212</ele>
        <time>2018-05-26T11:52:46Z</time>
      </trkpt>
      <trkpt lat="43.46637" lon="1.62177">
        <ele>212</ele>
        <time>2018-05-26T11:52:46Z</time>
      </trkpt>
      <trkpt lat="43.46634" lon="1.62174">
        <ele>212</ele>
        <time>2018-05-26T11:52:46Z</time>
      </trkpt>
      <trkpt lat="43.4663" lon="1.62171">
        <ele>212</ele>
        <time>2018-05-26T11:53:02Z</time>
      </trkpt>
      <trkpt lat="43.46625" lon="1.62167">
        <ele>212</ele>
        <time>2018-05-26T11:53:02Z</time>
      </trkpt>
      <trkpt lat="43.46622" lon="1.62164">
        <ele>212</ele>
        <time>2018-05-26T11:53:02Z</time>
      </trkpt>
      <trkpt lat="43.46618" lon="1.62161">
        <ele>212</ele>
        <time>2018-05-26T11:53:02Z</time>
      </trkpt>
      <trkpt lat="43.46613" lon="1.62159">
        <ele>212</ele>
        <time>2018-05-26T11:53:18Z</time>
      </trkpt>
      <trkpt lat="43.46608" lon="1.62157">
        <ele>213</ele>
        <time>2018-05-26T11:53:18Z</time>
      </trkpt>
      <trkpt lat="43.46602" lon="1.62154">
        <ele>213</ele>
        <time>2018-05-26T11:53:18Z</time>
      </trkpt>
      <trkpt lat="43.46597" lon="1.62152">
        <ele>213</ele>
        <time>2018-05-26T11:53:18Z</time>
      </trkpt>
      <trkpt lat="43.46593" lon="1.6215">
        <ele>213</ele>
        <time>2018-05-26T11:53:34Z</time>
      </trkpt>
      <trkpt lat="43.4659" lon="1.62149">
        <ele>213</ele>
        <time>2018-05-26T11:53:34Z</time>
      </trkpt>
      <trkpt lat="43.46587" lon="1.62147">
        <ele>213</ele>
        <time>2018-05-26T11:53:34Z</time>
      </trkpt>
      <trkpt lat="43.46582" lon="1.62144">
        <ele>215</ele>
        <time>2018-05-26T11:53:34Z</time>
      </trkpt>
      <trkpt lat="43.46576" lon="1.6214">
        <ele>215</ele>
        <time>2018-05-26T11:53:51Z</time>
      </trkpt>
      <trkpt lat="43.46572" lon="1.62138">
        <ele>215</ele>
        <time>2018-05-26T11:53:51Z</time>
      </trkpt>
      <trkpt lat="43.46567" lon="1.62135">
        <ele>215</ele>
        <time>2018-05-26T11:53:51Z</time>
      </trkpt>
      <trkpt lat="43.4656" lon="1.6213">
        <ele>215</ele>
        <time>2018-05-26T11:53:51Z</time>
      </trkpt>
      <trkpt lat="43.46555" lon="1.62127">
        <ele>215</ele>
        <time>2018-05-26T11:54:06Z</time>
      </trkpt>
      <trkpt lat="43.46549" lon="1.62123">
        <ele>215</ele>
        <time>2018-05-26T11:54:06Z</time>
      </trkpt>
      <trkpt lat="43.46544" lon="1.6212">
        <ele>215</ele>
        <time>2018-05-26T11:54:06Z</time>
      </trkpt>
      <trkpt lat="43.46538" lon="1.62117">
        <ele>215</ele>
        <time>2018-05-26T11:54:06Z</time>
      </trkpt>
      <trkpt lat="43.46534" lon="1.62111">
        <ele>215</ele>
        <time>2018-05-26T11:54:35Z</time>
      </trkpt>
      <trkpt lat="43.46532" lon="1.62107">
        <ele>215</ele>
        <time>2018-05-26T11:54:35Z</time>
      </trkpt>
      <trkpt lat="43.46529" lon="1.62104">
        <ele>215</ele>
        <time>2018-05-26T11:54:35Z</time>
      </trkpt>
      <trkpt lat="43.46524" lon="1.62101">
        <ele>215</ele>
        <time>2018-05-26T11:54:35Z</time>
      </trkpt>
      <trkpt lat="43.46519" lon="1.62095">
        <ele>215</ele>
        <time>2018-05-26T11:54:35Z</time>
      </trkpt>
      <trkpt lat="43.46516" lon="1.62092">
        <ele>215</ele>
        <time>2018-05-26T11:54:50Z</time>
      </trkpt>
      <trkpt lat="43.46511" lon="1.62088">
        <ele>215</ele>
        <time>2018-05-26T11:54:50Z</time>
      </trkpt>
      <trkpt lat="43.46506" lon="1.62084">
        <ele>215</ele>
        <time>2018-05-26T11:54:50Z</time>
      </trkpt>
      <trkpt lat="43.465" lon="1.62079">
        <ele>215</ele>
        <time>2018-05-26T11:54:50Z</time>
      </trkpt>
      <trkpt lat="43.46495" lon="1.62075">
        <ele>215</ele>
        <time>2018-05-26T11:55:06Z</time>
      </trkpt>
      <trkpt lat="43.4649" lon="1.62072">
        <ele>215</ele>
        <time>2018-05-26T11:55:06Z</time>
      </trkpt>
      <trkpt lat="43.46486" lon="1.62069">
        <ele>215</ele>
        <time>2018-05-26T11:55:06Z</time>
      </trkpt>
      <trkpt lat="43.46482" lon="1.62066">
        <ele>216</ele>
        <time>2018-05-26T11:55:06Z</time>
      </trkpt>
      <trkpt lat="43.46478" lon="1.62063">
        <ele>216</ele>
        <time>2018-05-26T11:55:22Z</time>
      </trkpt>
      <trkpt lat="43.46472" lon="1.62058">
        <ele>216</ele>
        <time>2018-05-26T11:55:22Z</time>
      </trkpt>
      <trkpt lat="43.4647" lon="1.62055">
        <ele>216</ele>
        <time>2018-05-26T11:55:22Z</time>
      </trkpt>
      <trkpt lat="43.46465" lon="1.6205">
        <ele>216</ele>
        <time>2018-05-26T11:55:22Z</time>
      </trkpt>
      <trkpt lat="43.46458" lon="1.62043">
        <ele>216</ele>
        <time>2018-05-26T11:55:39Z</time>
      </trkpt>
      <trkpt lat="43.46455" lon="1.62041">
        <ele>216</ele>
        <time>2018-05-26T11:55:39Z</time>
      </trkpt>
      <trkpt lat="43.46451" lon="1.62037">
        <ele>216</ele>
        <time>2018-05-26T11:55:39Z</time>
      </trkpt>
      <trkpt lat="43.46445" lon="1.62031">
        <ele>216</ele>
        <time>2018-05-26T11:55:39Z</time>
      </trkpt>
      <trkpt lat="43.46441" lon="1.62028">
        <ele>216</ele>
        <time>2018-05-26T11:55:54Z</time>
      </trkpt>
      <trkpt lat="43.46436" lon="1.62025">
        <ele>216</ele>
        <time>2018-05-26T11:55:54Z</time>
      </trkpt>
      <trkpt lat="43.46431" lon="1.62021">
        <ele>216</ele>
        <time>2018-05-26T11:55:54Z</time>
      </trkpt>
      <trkpt lat="43.46426" lon="1.62017">
        <ele>216</ele>
        <time>2018-05-26T11:55:54Z</time>
      </trkpt>
      <trkpt lat="43.46422" lon="1.62013">
        <ele>216</ele>
        <time>2018-05-26T11:56:11Z</time>
      </trkpt>
      <trkpt lat="43.46417" lon="1.62008">
        <ele>216</ele>
        <time>2018-05-26T11:56:11Z</time>
      </trkpt>
      <trkpt lat="43.46414" lon="1.62005">
        <ele>216</ele>
        <time>2018-05-26T11:56:11Z</time>
      </trkpt>
      <trkpt lat="43.46409" lon="1.62002">
        <ele>216</ele>
        <time>2018-05-26T11:56:11Z</time>
      </trkpt>
      <trkpt lat="43.46404" lon="1.61999">
        <ele>216</ele>
        <time>2018-05-26T11:56:27Z</time>
      </trkpt>
      <trkpt lat="43.46399" lon="1.61995">
        <ele>216</ele>
        <time>2018-05-26T11:56:27Z</time>
      </trkpt>
      <trkpt lat="43.46394" lon="1.61992">
        <ele>215</ele>
        <time>2018-05-26T11:56:27Z</time>
      </trkpt>
      <trkpt lat="43.46388" lon="1.6199">
        <ele>215</ele>
        <time>2018-05-26T11:56:27Z</time>
      </trkpt>
      <trkpt lat="43.46385" lon="1.61988">
        <ele>215</ele>
        <time>2018-05-26T11:56:42Z</time>
      </trkpt>
      <trkpt lat="43.46381" lon="1.61985">
        <ele>215</ele>
        <time>2018-05-26T11:56:42Z</time>
      </trkpt>
      <trkpt lat="43.46374" lon="1.6198">
        <ele>215</ele>
        <time>2018-05-26T11:56:42Z</time>
      </trkpt>
      <trkpt lat="43.46371" lon="1.61977">
        <ele>215</ele>
        <time>2018-05-26T11:56:42Z</time>
      </trkpt>
      <trkpt lat="43.46367" lon="1.61973">
        <ele>215</ele>
        <time>2018-05-26T11:56:58Z</time>
      </trkpt>
      <trkpt lat="43.46363" lon="1.61966">
        <ele>215</ele>
        <time>2018-05-26T11:56:58Z</time>
      </trkpt>
      <trkpt lat="43.4636" lon="1.61963">
        <ele>215</ele>
        <time>2018-05-26T11:56:58Z</time>
      </trkpt>
      <trkpt lat="43.46356" lon="1.6196">
        <ele>215</ele>
        <time>2018-05-26T11:56:58Z</time>
      </trkpt>
      <trkpt lat="43.46349" lon="1.61956">
        <ele>215</ele>
        <time>2018-05-26T11:57:15Z</time>
      </trkpt>
      <trkpt lat="43.46344" lon="1.61952">
        <ele>215</ele>
        <time>2018-05-26T11:57:15Z</time>
      </trkpt>
      <trkpt lat="43.46338" lon="1.6195">
        <ele>215</ele>
        <time>2018-05-26T11:57:15Z</time>
      </trkpt>
      <trkpt lat="43.46331" lon="1.61948">
        <ele>215</ele>
        <time>2018-05-26T11:57:15Z</time>
      </trkpt>
      <trkpt lat="43.46327" lon="1.61945">
        <ele>215</ele>
        <time>2018-05-26T11:57:30Z</time>
      </trkpt>
      <trkpt lat="43.46322" lon="1.61943">
        <ele>215</ele>
        <time>2018-05-26T11:57:30Z</time>
      </trkpt>
      <trkpt lat="43.46318" lon="1.61941">
        <ele>215</ele>
        <time>2018-05-26T11:57:30Z</time>
      </trkpt>
      <trkpt lat="43.46314" lon="1.61937">
        <ele>215</ele>
        <time>2018-05-26T11:57:30Z</time>
      </trkpt>
      <trkpt lat="43.4631" lon="1.61932">
        <ele>215</ele>
        <time>2018-05-26T11:57:47Z</time>
      </trkpt>
      <trkpt lat="43.46307" lon="1.61929">
        <ele>215</ele>
        <time>2018-05-26T11:57:47Z</time>
      </trkpt>
      <trkpt lat="43.46303" lon="1.61923">
        <ele>215</ele>
        <time>2018-05-26T11:57:47Z</time>
      </trkpt>
      <trkpt lat="43.46296" lon="1.61918">
        <ele>215</ele>
        <time>2018-05-26T11:57:47Z</time>
      </trkpt>
      <trkpt lat="43.46291" lon="1.61915">
        <ele>214</ele>
        <time>2018-05-26T11:58:02Z</time>
      </trkpt>
      <trkpt lat="43.46284" lon="1.61911">
        <ele>214</ele>
        <time>2018-05-26T11:58:02Z</time>
      </trkpt>
      <trkpt lat="43.46277" lon="1.61905">
        <ele>214</ele>
        <time>2018-05-26T11:58:02Z</time>
      </trkpt>
      <trkpt lat="43.46274" lon="1.61901">
        <ele>214</ele>
        <time>2018-05-26T11:58:02Z</time>
      </trkpt>
      <trkpt lat="43.46269" lon="1.61897">
        <ele>214</ele>
        <time>2018-05-26T11:58:18Z</time>
      </trkpt>
      <trkpt lat="43.46265" lon="1.61891">
        <ele>214</ele>
        <time>2018-05-26T11:58:18Z</time>
      </trkpt>
      <trkpt lat="43.46261" lon="1.61886">
        <ele>214</ele>
        <time>2018-05-26T11:58:18Z</time>
      </trkpt>
      <trkpt lat="43.46257" lon="1.61881">
        <ele>214</ele>
        <time>2018-05-26T11:58:18Z</time>
      </trkpt>
      <trkpt lat="43.46253" lon="1.61876">
        <ele>214</ele>
        <time>2018-05-26T11:58:34Z</time>
      </trkpt>
      <trkpt lat="43.46249" lon="1.61871">
        <ele>214</ele>
        <time>2018-05-26T11:58:34Z</time>
      </trkpt>
      <trkpt lat="43.46246" lon="1.61868">
        <ele>214</ele>
        <time>2018-05-26T11:58:34Z</time>
      </trkpt>
      <trkpt lat="43.46248" lon="1.61865">
        <ele>214</ele>
        <time>2018-05-26T11:58:34Z</time>
      </trkpt>
      <trkpt lat="43.46246" lon="1.61861">
        <ele>214</ele>
        <time>2018-05-26T11:58:50Z</time>
      </trkpt>
      <trkpt lat="43.46243" lon="1.61858">
        <ele>214</ele>
        <time>2018-05-26T11:58:50Z</time>
      </trkpt>
      <trkpt lat="43.46236" lon="1.61853">
        <ele>214</ele>
        <time>2018-05-26T11:58:50Z</time>
      </trkpt>
      <trkpt lat="43.46231" lon="1.61847">
        <ele>213</ele>
        <time>2018-05-26T11:58:50Z</time>
      </trkpt>
      <trkpt lat="43.46225" lon="1.61842">
        <ele>213</ele>
        <time>2018-05-26T11:59:06Z</time>
      </trkpt>
      <trkpt lat="43.46221" lon="1.61839">
        <ele>213</ele>
        <time>2018-05-26T11:59:06Z</time>
      </trkpt>
      <trkpt lat="43.46216" lon="1.61838">
        <ele>213</ele>
        <time>2018-05-26T11:59:06Z</time>
      </trkpt>
      <trkpt lat="43.46214" lon="1.61837">
        <ele>213</ele>
        <time>2018-05-26T11:59:06Z</time>
      </trkpt>
      <trkpt lat="43.46209" lon="1.61839">
        <ele>213</ele>
        <time>2018-05-26T11:59:23Z</time>
      </trkpt>
      <trkpt lat="43.46202" lon="1.61847">
        <ele>213</ele>
        <time>2018-05-26T11:59:23Z</time>
      </trkpt>
      <trkpt lat="43.46196" lon="1.6185">
        <ele>213</ele>
        <time>2018-05-26T11:59:23Z</time>
      </trkpt>
      <trkpt lat="43.46188" lon="1.61855">
        <ele>213</ele>
        <time>2018-05-26T11:59:23Z</time>
      </trkpt>
      <trkpt lat="43.46185" lon="1.61858">
        <ele>213</ele>
        <time>2018-05-26T11:59:39Z</time>
      </trkpt>
      <trkpt lat="43.46179" lon="1.61861">
        <ele>213</ele>
        <time>2018-05-26T11:59:39Z</time>
      </trkpt>
      <trkpt lat="43.46173" lon="1.61861">
        <ele>213</ele>
        <time>2018-05-26T11:59:39Z</time>
      </trkpt>
      <trkpt lat="43.46167" lon="1.61865">
        <ele>213</ele>
        <time>2018-05-26T11:59:39Z</time>
      </trkpt>
      <trkpt lat="43.46164" lon="1.61868">
        <ele>211</ele>
        <time>2018-05-26T11:59:54Z</time>
      </trkpt>
      <trkpt lat="43.4616" lon="1.61872">
        <ele>211</ele>
        <time>2018-05-26T11:59:54Z</time>
      </trkpt>
      <trkpt lat="43.46155" lon="1.61877">
        <ele>211</ele>
        <time>2018-05-26T11:59:54Z</time>
      </trkpt>
      <trkpt lat="43.46152" lon="1.6188">
        <ele>211</ele>
        <time>2018-05-26T11:59:54Z</time>
      </trkpt>
      <trkpt lat="43.46149" lon="1.61885">
        <ele>211</ele>
        <time>2018-05-26T12:00:11Z</time>
      </trkpt>
      <trkpt lat="43.46144" lon="1.61888">
        <ele>211</ele>
        <time>2018-05-26T12:00:11Z</time>
      </trkpt>
      <trkpt lat="43.46139" lon="1.61896">
        <ele>211</ele>
        <time>2018-05-26T12:00:11Z</time>
      </trkpt>
      <trkpt lat="43.46135" lon="1.619">
        <ele>211</ele>
        <time>2018-05-26T12:00:11Z</time>
      </trkpt>
      <trkpt lat="43.4613" lon="1.61905">
        <ele>211</ele>
        <time>2018-05-26T12:00:30Z</time>
      </trkpt>
      <trkpt lat="43.46128" lon="1.61906">
        <ele>211</ele>
        <time>2018-05-26T12:00:30Z</time>
      </trkpt>
      <trkpt lat="43.46125" lon="1.61908">
        <ele>211</ele>
        <time>2018-05-26T12:00:30Z</time>
      </trkpt>
      <trkpt lat="43.46122" lon="1.6191">
        <ele>211</ele>
        <time>2018-05-26T12:00:30Z</time>
      </trkpt>
      <trkpt lat="43.4612" lon="1.6191">
        <ele>210</ele>
        <time>2018-05-26T12:00:30Z</time>
      </trkpt>
      <trkpt lat="43.46118" lon="1.61913">
        <ele>210</ele>
        <time>2018-05-26T12:00:46Z</time>
      </trkpt>
      <trkpt lat="43.46114" lon="1.61915">
        <ele>210</ele>
        <time>2018-05-26T12:00:46Z</time>
      </trkpt>
      <trkpt lat="43.46111" lon="1.61917">
        <ele>212</ele>
        <time>2018-05-26T12:00:46Z</time>
      </trkpt>
      <trkpt lat="43.46103" lon="1.61922">
        <ele>211</ele>
        <time>2018-05-26T12:00:46Z</time>
      </trkpt>
      <trkpt lat="43.46097" lon="1.61927">
        <ele>211</ele>
        <time>2018-05-26T12:01:02Z</time>
      </trkpt>
      <trkpt lat="43.46092" lon="1.61937">
        <ele>211</ele>
        <time>2018-05-26T12:01:02Z</time>
      </trkpt>
      <trkpt lat="43.46087" lon="1.61944">
        <ele>211</ele>
        <time>2018-05-26T12:01:02Z</time>
      </trkpt>
      <trkpt lat="43.46082" lon="1.61948">
        <ele>209</ele>
        <time>2018-05-26T12:01:02Z</time>
      </trkpt>
      <trkpt lat="43.46079" lon="1.61951">
        <ele>209</ele>
        <time>2018-05-26T12:01:18Z</time>
      </trkpt>
      <trkpt lat="43.46076" lon="1.61958">
        <ele>209</ele>
        <time>2018-05-26T12:01:18Z</time>
      </trkpt>
      <trkpt lat="43.46072" lon="1.61962">
        <ele>209</ele>
        <time>2018-05-26T12:01:18Z</time>
      </trkpt>
      <trkpt lat="43.46069" lon="1.61965">
        <ele>209</ele>
        <time>2018-05-26T12:01:18Z</time>
      </trkpt>
      <trkpt lat="43.46065" lon="1.61971">
        <ele>209</ele>
        <time>2018-05-26T12:01:35Z</time>
      </trkpt>
      <trkpt lat="43.46061" lon="1.61974">
        <ele>209</ele>
        <time>2018-05-26T12:01:35Z</time>
      </trkpt>
      <trkpt lat="43.46057" lon="1.61979">
        <ele>209</ele>
        <time>2018-05-26T12:01:35Z</time>
      </trkpt>
      <trkpt lat="43.46053" lon="1.61983">
        <ele>209</ele>
        <time>2018-05-26T12:01:35Z</time>
      </trkpt>
      <trkpt lat="43.46049" lon="1.61988">
        <ele>209</ele>
        <time>2018-05-26T12:01:50Z</time>
      </trkpt>
      <trkpt lat="43.46046" lon="1.61993">
        <ele>209</ele>
        <time>2018-05-26T12:01:50Z</time>
      </trkpt>
      <trkpt lat="43.46043" lon="1.61999">
        <ele>209</ele>
        <time>2018-05-26T12:01:50Z</time>
      </trkpt>
      <trkpt lat="43.4604" lon="1.62007">
        <ele>211</ele>
        <time>2018-05-26T12:01:50Z</time>
      </trkpt>
      <trkpt lat="43.46038" lon="1.62014">
        <ele>211</ele>
        <time>2018-05-26T12:02:10Z</time>
      </trkpt>
      <trkpt lat="43.46033" lon="1.62026">
        <ele>211</ele>
        <time>2018-05-26T12:02:10Z</time>
      </trkpt>
      <trkpt lat="43.46031" lon="1.62032">
        <ele>211</ele>
        <time>2018-05-26T12:02:10Z</time>
      </trkpt>
      <trkpt lat="43.46028" lon="1.62037">
        <ele>211</ele>
        <time>2018-05-26T12:02:10Z</time>
      </trkpt>
      <trkpt lat="43.46022" lon="1.62046">
        <ele>211</ele>
        <time>2018-05-26T12:03:27Z</time>
      </trkpt>
      <trkpt lat="43.46021" lon="1.62046">
        <ele>211</ele>
        <time>2018-05-26T12:03:27Z</time>
      </trkpt>
      <trkpt lat="43.46016" lon="1.62045">
        <ele>211</ele>
        <time>2018-05-26T12:03:27Z</time>
      </trkpt>
      <trkpt lat="43.46009" lon="1.62041">
        <ele>211</ele>
        <time>2018-05-26T12:03:27Z</time>
      </trkpt>
      <trkpt lat="43.46003" lon="1.62038">
        <ele>211</ele>
        <time>2018-05-26T12:03:27Z</time>
      </trkpt>
      <trkpt lat="43.45998" lon="1.6204">
        <ele>208</ele>
        <time>2018-05-26T12:03:46Z</time>
      </trkpt>
      <trkpt lat="43.45993" lon="1.62041">
        <ele>208</ele>
        <time>2018-05-26T12:03:46Z</time>
      </trkpt>
      <trkpt lat="43.45992" lon="1.62044">
        <ele>208</ele>
        <time>2018-05-26T12:03:46Z</time>
      </trkpt>
      <trkpt lat="43.45992" lon="1.62047">
        <ele>208</ele>
        <time>2018-05-26T12:03:46Z</time>
      </trkpt>
      <trkpt lat="43.45989" lon="1.62051">
        <ele>209</ele>
        <time>2018-05-26T12:03:46Z</time>
      </trkpt>
      <trkpt lat="43.45987" lon="1.62056">
        <ele>209</ele>
        <time>2018-05-26T12:04:02Z</time>
      </trkpt>
      <trkpt lat="43.45983" lon="1.6206">
        <ele>209</ele>
        <time>2018-05-26T12:04:02Z</time>
      </trkpt>
      <trkpt lat="43.45979" lon="1.62065">
        <ele>209</ele>
        <time>2018-05-26T12:04:02Z</time>
      </trkpt>
      <trkpt lat="43.45974" lon="1.62069">
        <ele>209</ele>
        <time>2018-05-26T12:04:02Z</time>
      </trkpt>
      <trkpt lat="43.45969" lon="1.62073">
        <ele>209</ele>
        <time>2018-05-26T12:04:18Z</time>
      </trkpt>
      <trkpt lat="43.45965" lon="1.62077">
        <ele>208</ele>
        <time>2018-05-26T12:04:18Z</time>
      </trkpt>
      <trkpt lat="43.4596" lon="1.62081">
        <ele>208</ele>
        <time>2018-05-26T12:04:18Z</time>
      </trkpt>
      <trkpt lat="43.45953" lon="1.62078">
        <ele>208</ele>
        <time>2018-05-26T12:04:18Z</time>
      </trkpt>
      <trkpt lat="43.45947" lon="1.62078">
        <ele>208</ele>
        <time>2018-05-26T12:04:35Z</time>
      </trkpt>
      <trkpt lat="43.45944" lon="1.62083">
        <ele>208</ele>
        <time>2018-05-26T12:04:35Z</time>
      </trkpt>
      <trkpt lat="43.4594" lon="1.62086">
        <ele>209</ele>
        <time>2018-05-26T12:04:35Z</time>
      </trkpt>
      <trkpt lat="43.45935" lon="1.62087">
        <ele>209</ele>
        <time>2018-05-26T12:04:35Z</time>
      </trkpt>
      <trkpt lat="43.4593" lon="1.62086">
        <ele>208</ele>
        <time>2018-05-26T12:04:50Z</time>
      </trkpt>
      <trkpt lat="43.45925" lon="1.62086">
        <ele>208</ele>
        <time>2018-05-26T12:04:50Z</time>
      </trkpt>
      <trkpt lat="43.4592" lon="1.62085">
        <ele>207</ele>
        <time>2018-05-26T12:04:50Z</time>
      </trkpt>
      <trkpt lat="43.45915" lon="1.62083">
        <ele>207</ele>
        <time>2018-05-26T12:04:50Z</time>
      </trkpt>
      <trkpt lat="43.4591" lon="1.62083">
        <ele>207</ele>
        <time>2018-05-26T12:05:06Z</time>
      </trkpt>
      <trkpt lat="43.45905" lon="1.62083">
        <ele>207</ele>
        <time>2018-05-26T12:05:06Z</time>
      </trkpt>
      <trkpt lat="43.459" lon="1.62083">
        <ele>208</ele>
        <time>2018-05-26T12:05:06Z</time>
      </trkpt>
      <trkpt lat="43.45895" lon="1.62083">
        <ele>206</ele>
        <time>2018-05-26T12:05:06Z</time>
      </trkpt>
      <trkpt lat="43.45889" lon="1.62082">
        <ele>206</ele>
        <time>2018-05-26T12:05:23Z</time>
      </trkpt>
      <trkpt lat="43.45885" lon="1.6208">
        <ele>206</ele>
        <time>2018-05-26T12:05:24Z</time>
      </trkpt>
      <trkpt lat="43.4588" lon="1.62075">
        <ele>206</ele>
        <time>2018-05-26T12:05:24Z</time>
      </trkpt>
      <trkpt lat="43.45875" lon="1.62068">
        <ele>206</ele>
        <time>2018-05-26T12:05:24Z</time>
      </trkpt>
      <trkpt lat="43.45867" lon="1.62057">
        <ele>206</ele>
        <time>2018-05-26T12:05:42Z</time>
      </trkpt>
      <trkpt lat="43.45865" lon="1.62054">
        <ele>206</ele>
        <time>2018-05-26T12:05:42Z</time>
      </trkpt>
      <trkpt lat="43.45862" lon="1.62051">
        <ele>206</ele>
        <time>2018-05-26T12:05:42Z</time>
      </trkpt>
      <trkpt lat="43.45858" lon="1.62045">
        <ele>206</ele>
        <time>2018-05-26T12:05:42Z</time>
      </trkpt>
      <trkpt lat="43.45855" lon="1.62039">
        <ele>206</ele>
        <time>2018-05-26T12:05:58Z</time>
      </trkpt>
      <trkpt lat="43.45852" lon="1.62033">
        <ele>205</ele>
        <time>2018-05-26T12:05:58Z</time>
      </trkpt>
      <trkpt lat="43.45849" lon="1.62028">
        <ele>205</ele>
        <time>2018-05-26T12:05:58Z</time>
      </trkpt>
      <trkpt lat="43.45847" lon="1.62022">
        <ele>205</ele>
        <time>2018-05-26T12:05:58Z</time>
      </trkpt>
      <trkpt lat="43.45845" lon="1.62015">
        <ele>205</ele>
        <time>2018-05-26T12:06:14Z</time>
      </trkpt>
      <trkpt lat="43.45842" lon="1.62009">
        <ele>204</ele>
        <time>2018-05-26T12:06:14Z</time>
      </trkpt>
      <trkpt lat="43.4584" lon="1.62004">
        <ele>204</ele>
        <time>2018-05-26T12:06:14Z</time>
      </trkpt>
      <trkpt lat="43.45837" lon="1.61998">
        <ele>203</ele>
        <time>2018-05-26T12:06:14Z</time>
      </trkpt>
      <trkpt lat="43.45837" lon="1.61991">
        <ele>203</ele>
        <time>2018-05-26T12:06:30Z</time>
      </trkpt>
      <trkpt lat="43.45835" lon="1.61986">
        <ele>203</ele>
        <time>2018-05-26T12:06:30Z</time>
      </trkpt>
      <trkpt lat="43.45833" lon="1.6198">
        <ele>199</ele>
        <time>2018-05-26T12:06:30Z</time>
      </trkpt>
      <trkpt lat="43.45832" lon="1.61973">
        <ele>199</ele>
        <time>2018-05-26T12:06:30Z</time>
      </trkpt>
      <trkpt lat="43.4583" lon="1.61968">
        <ele>198</ele>
        <time>2018-05-26T12:06:47Z</time>
      </trkpt>
      <trkpt lat="43.45825" lon="1.61963">
        <ele>198</ele>
        <time>2018-05-26T12:06:47Z</time>
      </trkpt>
      <trkpt lat="43.45824" lon="1.61957">
        <ele>197</ele>
        <time>2018-05-26T12:06:47Z</time>
      </trkpt>
      <trkpt lat="43.45822" lon="1.61952">
        <ele>197</ele>
        <time>2018-05-26T12:06:47Z</time>
      </trkpt>
      <trkpt lat="43.45821" lon="1.61946">
        <ele>197</ele>
        <time>2018-05-26T12:07:02Z</time>
      </trkpt>
      <trkpt lat="43.45819" lon="1.61942">
        <ele>197</ele>
        <time>2018-05-26T12:07:02Z</time>
      </trkpt>
      <trkpt lat="43.45815" lon="1.61933">
        <ele>197</ele>
        <time>2018-05-26T12:07:02Z</time>
      </trkpt>
      <trkpt lat="43.45811" lon="1.61927">
        <ele>196</ele>
        <time>2018-05-26T12:07:02Z</time>
      </trkpt>
      <trkpt lat="43.45808" lon="1.61923">
        <ele>196</ele>
        <time>2018-05-26T12:07:19Z</time>
      </trkpt>
      <trkpt lat="43.45806" lon="1.61917">
        <ele>196</ele>
        <time>2018-05-26T12:07:19Z</time>
      </trkpt>
      <trkpt lat="43.45805" lon="1.61911">
        <ele>192</ele>
        <time>2018-05-26T12:07:19Z</time>
      </trkpt>
      <trkpt lat="43.45803" lon="1.61905">
        <ele>192</ele>
        <time>2018-05-26T12:07:19Z</time>
      </trkpt>
      <trkpt lat="43.45802" lon="1.619">
        <ele>192</ele>
        <time>2018-05-26T12:07:34Z</time>
      </trkpt>
      <trkpt lat="43.45799" lon="1.61892">
        <ele>191</ele>
        <time>2018-05-26T12:07:34Z</time>
      </trkpt>
      <trkpt lat="43.45796" lon="1.61886">
        <ele>191</ele>
        <time>2018-05-26T12:07:34Z</time>
      </trkpt>
      <trkpt lat="43.45794" lon="1.6188">
        <ele>190</ele>
        <time>2018-05-26T12:07:34Z</time>
      </trkpt>
      <trkpt lat="43.45791" lon="1.61874">
        <ele>190</ele>
        <time>2018-05-26T12:07:50Z</time>
      </trkpt>
      <trkpt lat="43.45789" lon="1.61868">
        <ele>190</ele>
        <time>2018-05-26T12:07:50Z</time>
      </trkpt>
      <trkpt lat="43.45787" lon="1.61861">
        <ele>189</ele>
        <time>2018-05-26T12:07:50Z</time>
      </trkpt>
      <trkpt lat="43.45784" lon="1.61856">
        <ele>189</ele>
        <time>2018-05-26T12:07:50Z</time>
      </trkpt>
      <trkpt lat="43.45779" lon="1.61852">
        <ele>188</ele>
        <time>2018-05-26T12:08:10Z</time>
      </trkpt>
      <trkpt lat="43.45777" lon="1.61848">
        <ele>188</ele>
        <time>2018-05-26T12:08:10Z</time>
      </trkpt>
      <trkpt lat="43.45774" lon="1.61844">
        <ele>187</ele>
        <time>2018-05-26T12:08:10Z</time>
      </trkpt>
      <trkpt lat="43.45773" lon="1.61844">
        <ele>187</ele>
        <time>2018-05-26T12:08:10Z</time>
      </trkpt>
      <trkpt lat="43.45773" lon="1.61844">
        <ele>187</ele>
        <time>2018-05-26T12:08:10Z</time>
      </trkpt>
      <trkpt lat="43.45772" lon="1.61844">
        <ele>187</ele>
        <time>2018-05-26T12:08:30Z</time>
      </trkpt>
      <trkpt lat="43.45772" lon="1.61844">
        <ele>187</ele>
        <time>2018-05-26T12:08:30Z</time>
      </trkpt>
      <trkpt lat="43.45771" lon="1.61842">
        <ele>187</ele>
        <time>2018-05-26T12:08:30Z</time>
      </trkpt>
      <trkpt lat="43.45769" lon="1.61838">
        <ele>186</ele>
        <time>2018-05-26T12:08:30Z</time>
      </trkpt>
      <trkpt lat="43.45764" lon="1.61832">
        <ele>183</ele>
        <time>2018-05-26T12:08:30Z</time>
      </trkpt>
      <trkpt lat="43.45758" lon="1.61826">
        <ele>183</ele>
        <time>2018-05-26T12:08:46Z</time>
      </trkpt>
      <trkpt lat="43.45755" lon="1.61819">
        <ele>183</ele>
        <time>2018-05-26T12:08:46Z</time>
      </trkpt>
      <trkpt lat="43.45752" lon="1.61813">
        <ele>183</ele>
        <time>2018-05-26T12:08:46Z</time>
      </trkpt>
      <trkpt lat="43.45749" lon="1.61807">
        <ele>179</ele>
        <time>2018-05-26T12:08:46Z</time>
      </trkpt>
      <trkpt lat="43.45745" lon="1.61802">
        <ele>178</ele>
        <time>2018-05-26T12:09:02Z</time>
      </trkpt>
      <trkpt lat="43.45742" lon="1.61796">
        <ele>178</ele>
        <time>2018-05-26T12:09:02Z</time>
      </trkpt>
      <trkpt lat="43.45738" lon="1.61791">
        <ele>178</ele>
        <time>2018-05-26T12:09:02Z</time>
      </trkpt>
      <trkpt lat="43.45735" lon="1.61785">
        <ele>178</ele>
        <time>2018-05-26T12:09:02Z</time>
      </trkpt>
      <trkpt lat="43.45731" lon="1.61781">
        <ele>178</ele>
        <time>2018-05-26T12:09:18Z</time>
      </trkpt>
      <trkpt lat="43.45728" lon="1.61776">
        <ele>177</ele>
        <time>2018-05-26T12:09:18Z</time>
      </trkpt>
      <trkpt lat="43.45724" lon="1.6177">
        <ele>177</ele>
        <time>2018-05-26T12:09:18Z</time>
      </trkpt>
      <trkpt lat="43.45721" lon="1.61764">
        <ele>177</ele>
        <time>2018-05-26T12:09:18Z</time>
      </trkpt>
      <trkpt lat="43.45717" lon="1.61758">
        <ele>177</ele>
        <time>2018-05-26T12:09:34Z</time>
      </trkpt>
      <trkpt lat="43.45713" lon="1.61753">
        <ele>177</ele>
        <time>2018-05-26T12:09:34Z</time>
      </trkpt>
      <trkpt lat="43.45709" lon="1.61748">
        <ele>174</ele>
        <time>2018-05-26T12:09:34Z</time>
      </trkpt>
      <trkpt lat="43.45705" lon="1.61743">
        <ele>174</ele>
        <time>2018-05-26T12:09:34Z</time>
      </trkpt>
      <trkpt lat="43.45697" lon="1.6173">
        <ele>174</ele>
        <time>2018-05-26T12:10:06Z</time>
      </trkpt>
      <trkpt lat="43.45694" lon="1.61726">
        <ele>173</ele>
        <time>2018-05-26T12:10:06Z</time>
      </trkpt>
      <trkpt lat="43.45691" lon="1.6172">
        <ele>173</ele>
        <time>2018-05-26T12:10:06Z</time>
      </trkpt>
      <trkpt lat="43.45687" lon="1.61715">
        <ele>173</ele>
        <time>2018-05-26T12:10:06Z</time>
      </trkpt>
      <trkpt lat="43.45683" lon="1.61708">
        <ele>173</ele>
        <time>2018-05-26T12:10:06Z</time>
      </trkpt>
      <trkpt lat="43.4568" lon="1.61704">
        <ele>173</ele>
        <time>2018-05-26T12:10:22Z</time>
      </trkpt>
      <trkpt lat="43.45677" lon="1.617">
        <ele>172</ele>
        <time>2018-05-26T12:10:22Z</time>
      </trkpt>
      <trkpt lat="43.45674" lon="1.61695">
        <ele>172</ele>
        <time>2018-05-26T12:10:22Z</time>
      </trkpt>
      <trkpt lat="43.45671" lon="1.61689">
        <ele>172</ele>
        <time>2018-05-26T12:10:22Z</time>
      </trkpt>
      <trkpt lat="43.45668" lon="1.61687">
        <ele>171</ele>
        <time>2018-05-26T12:10:38Z</time>
      </trkpt>
      <trkpt lat="43.45666" lon="1.61683">
        <ele>169</ele>
        <time>2018-05-26T12:10:38Z</time>
      </trkpt>
      <trkpt lat="43.45664" lon="1.61679">
        <ele>169</ele>
        <time>2018-05-26T12:10:38Z</time>
      </trkpt>
      <trkpt lat="43.4566" lon="1.61673">
        <ele>169</ele>
        <time>2018-05-26T12:10:38Z</time>
      </trkpt>
      <trkpt lat="43.45657" lon="1.61669">
        <ele>169</ele>
        <time>2018-05-26T12:10:54Z</time>
      </trkpt>
      <trkpt lat="43.45654" lon="1.61663">
        <ele>168</ele>
        <time>2018-05-26T12:10:54Z</time>
      </trkpt>
      <trkpt lat="43.4565" lon="1.61658">
        <ele>168</ele>
        <time>2018-05-26T12:10:54Z</time>
      </trkpt>
      <trkpt lat="43.45647" lon="1.61652">
        <ele>168</ele>
        <time>2018-05-26T12:10:54Z</time>
      </trkpt>
      <trkpt lat="43.45643" lon="1.61646">
        <ele>168</ele>
        <time>2018-05-26T12:11:10Z</time>
      </trkpt>
      <trkpt lat="43.45639" lon="1.61641">
        <ele>167</ele>
        <time>2018-05-26T12:11:10Z</time>
      </trkpt>
      <trkpt lat="43.45635" lon="1.61634">
        <ele>167</ele>
        <time>2018-05-26T12:11:10Z</time>
      </trkpt>
      <trkpt lat="43.45631" lon="1.61628">
        <ele>167</ele>
        <time>2018-05-26T12:11:10Z</time>
      </trkpt>
      <trkpt lat="43.45628" lon="1.61623">
        <ele>167</ele>
        <time>2018-05-26T12:11:26Z</time>
      </trkpt>
      <trkpt lat="43.45625" lon="1.61618">
        <ele>167</ele>
        <time>2018-05-26T12:11:26Z</time>
      </trkpt>
      <trkpt lat="43.45621" lon="1.61613">
        <ele>167</ele>
        <time>2018-05-26T12:11:26Z</time>
      </trkpt>
      <trkpt lat="43.45617" lon="1.61608">
        <ele>167</ele>
        <time>2018-05-26T12:11:26Z</time>
      </trkpt>
      <trkpt lat="43.45615" lon="1.61602">
        <ele>167</ele>
        <time>2018-05-26T12:11:42Z</time>
      </trkpt>
      <trkpt lat="43.45614" lon="1.61599">
        <ele>167</ele>
        <time>2018-05-26T12:11:42Z</time>
      </trkpt>
      <trkpt lat="43.45612" lon="1.61596">
        <ele>166</ele>
        <time>2018-05-26T12:11:42Z</time>
      </trkpt>
      <trkpt lat="43.45608" lon="1.61591">
        <ele>166</ele>
        <time>2018-05-26T12:11:42Z</time>
      </trkpt>
      <trkpt lat="43.45605" lon="1.61586">
        <ele>166</ele>
        <time>2018-05-26T12:11:59Z</time>
      </trkpt>
      <trkpt lat="43.45601" lon="1.61583">
        <ele>166</ele>
        <time>2018-05-26T12:11:59Z</time>
      </trkpt>
      <trkpt lat="43.45598" lon="1.61581">
        <ele>165</ele>
        <time>2018-05-26T12:11:59Z</time>
      </trkpt>
      <trkpt lat="43.45595" lon="1.61576">
        <ele>165</ele>
        <time>2018-05-26T12:11:59Z</time>
      </trkpt>
      <trkpt lat="43.45591" lon="1.6157">
        <ele>165</ele>
        <time>2018-05-26T12:12:14Z</time>
      </trkpt>
      <trkpt lat="43.45586" lon="1.61564">
        <ele>165</ele>
        <time>2018-05-26T12:12:14Z</time>
      </trkpt>
      <trkpt lat="43.45581" lon="1.61556">
        <ele>164</ele>
        <time>2018-05-26T12:12:14Z</time>
      </trkpt>
      <trkpt lat="43.45577" lon="1.61551">
        <ele>164</ele>
        <time>2018-05-26T12:12:14Z</time>
      </trkpt>
      <trkpt lat="43.45573" lon="1.61549">
        <ele>164</ele>
        <time>2018-05-26T12:12:30Z</time>
      </trkpt>
      <trkpt lat="43.45568" lon="1.61544">
        <ele>164</ele>
        <time>2018-05-26T12:12:30Z</time>
      </trkpt>
      <trkpt lat="43.45564" lon="1.61539">
        <ele>164</ele>
        <time>2018-05-26T12:12:30Z</time>
      </trkpt>
      <trkpt lat="43.45559" lon="1.61535">
        <ele>164</ele>
        <time>2018-05-26T12:12:31Z</time>
      </trkpt>
      <trkpt lat="43.45556" lon="1.61533">
        <ele>164</ele>
        <time>2018-05-26T12:12:46Z</time>
      </trkpt>
      <trkpt lat="43.45553" lon="1.6153">
        <ele>164</ele>
        <time>2018-05-26T12:12:46Z</time>
      </trkpt>
      <trkpt lat="43.45549" lon="1.61528">
        <ele>164</ele>
        <time>2018-05-26T12:12:46Z</time>
      </trkpt>
      <trkpt lat="43.45545" lon="1.61527">
        <ele>164</ele>
        <time>2018-05-26T12:12:46Z</time>
      </trkpt>
      <trkpt lat="43.45541" lon="1.61525">
        <ele>164</ele>
        <time>2018-05-26T12:13:02Z</time>
      </trkpt>
      <trkpt lat="43.45536" lon="1.61521">
        <ele>164</ele>
        <time>2018-05-26T12:13:02Z</time>
      </trkpt>
      <trkpt lat="43.45533" lon="1.6152">
        <ele>164</ele>
        <time>2018-05-26T12:13:02Z</time>
      </trkpt>
      <trkpt lat="43.45529" lon="1.61517">
        <ele>164</ele>
        <time>2018-05-26T12:13:02Z</time>
      </trkpt>
      <trkpt lat="43.45525" lon="1.61515">
        <ele>164</ele>
        <time>2018-05-26T12:13:18Z</time>
      </trkpt>
      <trkpt lat="43.45523" lon="1.6151">
        <ele>164</ele>
        <time>2018-05-26T12:13:18Z</time>
      </trkpt>
      <trkpt lat="43.45521" lon="1.61506">
        <ele>164</ele>
        <time>2018-05-26T12:13:18Z</time>
      </trkpt>
      <trkpt lat="43.45517" lon="1.61506">
        <ele>164</ele>
        <time>2018-05-26T12:13:18Z</time>
      </trkpt>
      <trkpt lat="43.45504" lon="1.61503">
        <ele>164</ele>
        <time>2018-05-26T12:13:50Z</time>
      </trkpt>
      <trkpt lat="43.45504" lon="1.61504">
        <ele>164</ele>
        <time>2018-05-26T12:13:50Z</time>
      </trkpt>
      <trkpt lat="43.45499" lon="1.61504">
        <ele>164</ele>
        <time>2018-05-26T12:13:50Z</time>
      </trkpt>
      <trkpt lat="43.45493" lon="1.61501">
        <ele>164</ele>
        <time>2018-05-26T12:13:50Z</time>
      </trkpt>
      <trkpt lat="43.4549" lon="1.61499">
        <ele>164</ele>
        <time>2018-05-26T12:13:50Z</time>
      </trkpt>
      <trkpt lat="43.45486" lon="1.61497">
        <ele>163</ele>
        <time>2018-05-26T12:14:06Z</time>
      </trkpt>
      <trkpt lat="43.45483" lon="1.61495">
        <ele>163</ele>
        <time>2018-05-26T12:14:06Z</time>
      </trkpt>
      <trkpt lat="43.45477" lon="1.61494">
        <ele>163</ele>
        <time>2018-05-26T12:14:06Z</time>
      </trkpt>
      <trkpt lat="43.45473" lon="1.61494">
        <ele>163</ele>
        <time>2018-05-26T12:14:06Z</time>
      </trkpt>
      <trkpt lat="43.45468" lon="1.61493">
        <ele>163</ele>
        <time>2018-05-26T12:14:23Z</time>
      </trkpt>
      <trkpt lat="43.45463" lon="1.6149">
        <ele>163</ele>
        <time>2018-05-26T12:14:23Z</time>
      </trkpt>
      <trkpt lat="43.45459" lon="1.6149">
        <ele>163</ele>
        <time>2018-05-26T12:14:23Z</time>
      </trkpt>
      <trkpt lat="43.45454" lon="1.61489">
        <ele>163</ele>
        <time>2018-05-26T12:14:23Z</time>
      </trkpt>
      <trkpt lat="43.4545" lon="1.61488">
        <ele>163</ele>
        <time>2018-05-26T12:14:38Z</time>
      </trkpt>
      <trkpt lat="43.45444" lon="1.61487">
        <ele>163</ele>
        <time>2018-05-26T12:14:38Z</time>
      </trkpt>
      <trkpt lat="43.45439" lon="1.61486">
        <ele>163</ele>
        <time>2018-05-26T12:14:38Z</time>
      </trkpt>
      <trkpt lat="43.45434" lon="1.61485">
        <ele>162</ele>
        <time>2018-05-26T12:14:38Z</time>
      </trkpt>
      <trkpt lat="43.45428" lon="1.61484">
        <ele>162</ele>
        <time>2018-05-26T12:14:54Z</time>
      </trkpt>
      <trkpt lat="43.45423" lon="1.61483">
        <ele>162</ele>
        <time>2018-05-26T12:14:54Z</time>
      </trkpt>
      <trkpt lat="43.45418" lon="1.61483">
        <ele>162</ele>
        <time>2018-05-26T12:14:54Z</time>
      </trkpt>
      <trkpt lat="43.45412" lon="1.61481">
        <ele>161</ele>
        <time>2018-05-26T12:14:54Z</time>
      </trkpt>
      <trkpt lat="43.45408" lon="1.61478">
        <ele>161</ele>
        <time>2018-05-26T12:15:10Z</time>
      </trkpt>
      <trkpt lat="43.45402" lon="1.61475">
        <ele>161</ele>
        <time>2018-05-26T12:15:10Z</time>
      </trkpt>
      <trkpt lat="43.45397" lon="1.61472">
        <ele>161</ele>
        <time>2018-05-26T12:15:10Z</time>
      </trkpt>
      <trkpt lat="43.45395" lon="1.61475">
        <ele>161</ele>
        <time>2018-05-26T12:15:10Z</time>
      </trkpt>
      <trkpt lat="43.45391" lon="1.6148">
        <ele>161</ele>
        <time>2018-05-26T12:15:27Z</time>
      </trkpt>
      <trkpt lat="43.45389" lon="1.61487">
        <ele>161</ele>
        <time>2018-05-26T12:15:27Z</time>
      </trkpt>
      <trkpt lat="43.45387" lon="1.61493">
        <ele>161</ele>
        <time>2018-05-26T12:15:27Z</time>
      </trkpt>
      <trkpt lat="43.45388" lon="1.61501">
        <ele>161</ele>
        <time>2018-05-26T12:15:27Z</time>
      </trkpt>
      <trkpt lat="43.45386" lon="1.61505">
        <ele>161</ele>
        <time>2018-05-26T12:15:42Z</time>
      </trkpt>
      <trkpt lat="43.45381" lon="1.61509">
        <ele>161</ele>
        <time>2018-05-26T12:15:42Z</time>
      </trkpt>
      <trkpt lat="43.45377" lon="1.61513">
        <ele>161</ele>
        <time>2018-05-26T12:15:42Z</time>
      </trkpt>
      <trkpt lat="43.45376" lon="1.6152">
        <ele>161</ele>
        <time>2018-05-26T12:15:42Z</time>
      </trkpt>
      <trkpt lat="43.45374" lon="1.61525">
        <ele>160</ele>
        <time>2018-05-26T12:15:58Z</time>
      </trkpt>
      <trkpt lat="43.45373" lon="1.61531">
        <ele>160</ele>
        <time>2018-05-26T12:15:58Z</time>
      </trkpt>
      <trkpt lat="43.45373" lon="1.61541">
        <ele>160</ele>
        <time>2018-05-26T12:15:58Z</time>
      </trkpt>
      <trkpt lat="43.45373" lon="1.61548">
        <ele>160</ele>
        <time>2018-05-26T12:15:58Z</time>
      </trkpt>
    </trkseg>
  </trk>
</gpx>